Wetterdaten: Sonntag, 28.01.2018
Datum Zeit Temp. A. Feuchte A. Luftdruck Regen Wind Richtung Richtung Sonnenschein ET UV Solar Taupunkt Windchill Windböen
28.01.2018 00:00 3,2 °C 91 % 1034,2 hPa 0,0 mm 5,3 km/h (1 Bft) S-SW 211 ° 0 min 0,000 mm 0,0 UV-I 0 W/m² 1,9 °C 1,9 °C 6,4 km/h (2 Bft)
28.01.2018 00:01 3,2 °C 91 % 1034,2 hPa 0,0 mm 2,1 km/h (1 Bft) S-SW 211 ° 0 min 0,000 mm 0,0 UV-I 0 W/m² 1,9 °C 3,2 °C 3,2 km/h (1 Bft)
28.01.2018 00:02 3,2 °C 91 % 1034,2 hPa 0,0 mm 2,5 km/h (1 Bft) S-SW 211 ° 0 min 0,000 mm 0,0 UV-I 0 W/m² 1,9 °C 3,2 °C 4,8 km/h (1 Bft)
28.01.2018 00:03 3,2 °C 91 % 1034,2 hPa 0,0 mm 3,1 km/h (1 Bft) S-SW 211 ° 0 min 0,000 mm 0,0 UV-I 0 W/m² 1,9 °C 3,2 °C 4,8 km/h (1 Bft)
28.01.2018 00:04 3,3 °C 91 % 1034,2 hPa 0,0 mm 3,2 km/h (1 Bft) S-SW 211 ° 0 min 0,000 mm 0,0 UV-I 0 W/m² 2,0 °C 3,3 °C 4,8 km/h (1 Bft)
28.01.2018 00:05 3,3 °C 90 % 1034,2 hPa 0,0 mm 3,3 km/h (1 Bft) S-SW 211 ° 0 min 0,000 mm 0,0 UV-I 0 W/m² 1,8 °C 3,3 °C 4,8 km/h (1 Bft)
28.01.2018 00:06 3,3 °C 90 % 1034,1 hPa 0,0 mm 3,0 km/h (1 Bft) S-SW 211 ° 0 min 0,000 mm 0,0 UV-I 0 W/m² 1,8 °C 3,3 °C 4,8 km/h (1 Bft)
28.01.2018 00:07 3,3 °C 90 % 1034,1 hPa 0,0 mm 3,7 km/h (1 Bft) S-SW 209 ° 0 min 0,000 mm 0,0 UV-I 0 W/m² 1,8 °C 3,3 °C 4,8 km/h (1 Bft)
28.01.2018 00:08 3,3 °C 90 % 1034,1 hPa 0,0 mm 1,5 km/h (1 Bft) S-SW 209 ° 0 min 0,000 mm 0,0 UV-I 0 W/m² 1,8 °C 3,3 °C 3,2 km/h (1 Bft)
28.01.2018 00:09 3,3 °C 90 % 1034,1 hPa 0,0 mm 2,9 km/h (1 Bft) S-SW 209 ° 0 min 0,000 mm 0,0 UV-I 0 W/m² 1,8 °C 3,3 °C 4,8 km/h (1 Bft)
28.01.2018 00:10 3,3 °C 90 % 1034,0 hPa 0,0 mm 2,4 km/h (1 Bft) S-SW 209 ° 0 min 0,000 mm 0,0 UV-I 0 W/m² 1,8 °C 3,3 °C 3,2 km/h (1 Bft)
28.01.2018 00:11 3,3 °C 90 % 1034,0 hPa 0,0 mm 2,1 km/h (1 Bft) S-SW 209 ° 0 min 0,000 mm 0,0 UV-I 0 W/m² 1,8 °C 3,3 °C 4,8 km/h (1 Bft)
28.01.2018 00:12 3,3 °C 90 % 1034,0 hPa 0,0 mm 2,9 km/h (1 Bft) S-SW 195 ° 0 min 0,000 mm 0,0 UV-I 0 W/m² 1,8 °C 3,3 °C 6,4 km/h (2 Bft)
28.01.2018 00:13 3,3 °C 90 % 1034,0 hPa 0,0 mm 1,2 km/h (1 Bft) S-SW 195 ° 0 min 0,000 mm 0,0 UV-I 0 W/m² 1,8 °C 3,3 °C 3,2 km/h (1 Bft)
28.01.2018 00:14 3,3 °C 90 % 1034,0 hPa 0,0 mm 2,1 km/h (1 Bft) S-SW 195 ° 0 min 0,000 mm 0,0 UV-I 0 W/m² 1,8 °C 3,3 °C 3,2 km/h (1 Bft)
28.01.2018 00:15 3,3 °C 90 % 1034,0 hPa 0,0 mm 0,0 km/h (0 Bft) S-SW 195 ° 0 min 0,000 mm 0,0 UV-I 0 W/m² 1,8 °C 3,3 °C 0,0 km/h (0 Bft)
28.01.2018 00:16 3,3 °C 90 % 1034,0 hPa 0,0 mm 0,0 km/h (0 Bft) S-SW 195 ° 0 min 0,000 mm 0,0 UV-I 0 W/m² 1,8 °C 3,3 °C 0,0 km/h (0 Bft)
28.01.2018 00:17 3,3 °C 90 % 1034,1 hPa 0,0 mm 3,4 km/h (1 Bft) S-SW 194 ° 0 min 0,000 mm 0,0 UV-I 0 W/m² 1,8 °C 3,3 °C 6,4 km/h (2 Bft)
28.01.2018 00:18 3,3 °C 90 % 1034,0 hPa 0,0 mm 1,5 km/h (1 Bft) S-SW 194 ° 0 min 0,000 mm 0,0 UV-I 0 W/m² 1,8 °C 3,3 °C 3,2 km/h (1 Bft)
28.01.2018 00:19 3,3 °C 90 % 1034,0 hPa 0,0 mm 2,0 km/h (1 Bft) S-SW 194 ° 0 min 0,000 mm 0,0 UV-I 0 W/m² 1,8 °C 3,3 °C 3,2 km/h (1 Bft)
28.01.2018 00:20 3,3 °C 90 % 1034,1 hPa 0,0 mm 0,0 km/h (0 Bft) S-SW 194 ° 0 min 0,000 mm 0,0 UV-I 0 W/m² 1,8 °C 3,3 °C 0,0 km/h (0 Bft)
28.01.2018 00:21 3,3 °C 90 % 1034,1 hPa 0,0 mm 0,0 km/h (0 Bft) S-SW 194 ° 0 min 0,000 mm 0,0 UV-I 0 W/m² 1,8 °C 3,3 °C 0,0 km/h (0 Bft)
28.01.2018 00:22 3,3 °C 90 % 1034,1 hPa 0,0 mm 1,2 km/h (1 Bft) S-SW 194 ° 0 min 0,000 mm 0,0 UV-I 0 W/m² 1,8 °C 3,3 °C 3,2 km/h (1 Bft)
28.01.2018 00:23 3,3 °C 90 % 1034,1 hPa 0,0 mm 0,8 km/h (0 Bft) S-SW 194 ° 0 min 0,000 mm 0,0 UV-I 0 W/m² 1,8 °C 3,3 °C 3,2 km/h (1 Bft)
28.01.2018 00:24 3,2 °C 90 % 1034,0 hPa 0,0 mm 2,2 km/h (1 Bft) S-SW 194 ° 0 min 0,000 mm 0,0 UV-I 0 W/m² 1,7 °C 3,2 °C 3,2 km/h (1 Bft)
28.01.2018 00:25 3,3 °C 90 % 1034,1 hPa 0,0 mm 0,5 km/h (0 Bft) S-SW 194 ° 0 min 0,000 mm 0,0 UV-I 0 W/m² 1,8 °C 3,3 °C 1,6 km/h (1 Bft)
28.01.2018 00:26 3,3 °C 90 % 1034,0 hPa 0,0 mm 0,0 km/h (0 Bft) S-SW 194 ° 0 min 0,000 mm 0,0 UV-I 0 W/m² 1,8 °C 3,3 °C 0,0 km/h (0 Bft)
28.01.2018 00:27 3,3 °C 90 % 1034,1 hPa 0,0 mm 0,0 km/h (0 Bft) S-SW 194 ° 0 min 0,000 mm 0,0 UV-I 0 W/m² 1,8 °C 3,3 °C 0,0 km/h (0 Bft)
28.01.2018 00:28 3,2 °C 90 % 1034,1 hPa 0,0 mm 0,0 km/h (0 Bft) S-SW 194 ° 0 min 0,000 mm 0,0 UV-I 0 W/m² 1,7 °C 3,2 °C 0,0 km/h (0 Bft)
28.01.2018 00:29 3,2 °C 90 % 1034,1 hPa 0,0 mm 0,0 km/h (0 Bft) S-SW 194 ° 0 min 0,000 mm 0,0 UV-I 0 W/m² 1,7 °C 3,2 °C 0,0 km/h (0 Bft)
28.01.2018 00:30 3,2 °C 90 % 1034,1 hPa 0,0 mm 0,0 km/h (0 Bft) S-SW 194 ° 0 min 0,000 mm 0,0 UV-I 0 W/m² 1,7 °C 3,2 °C 0,0 km/h (0 Bft)
28.01.2018 00:31 3,2 °C 90 % 1034,1 hPa 0,0 mm 0,0 km/h (0 Bft) S-SW 194 ° 0 min 0,000 mm 0,0 UV-I 0 W/m² 1,7 °C 3,2 °C 0,0 km/h (0 Bft)
28.01.2018 00:32 3,2 °C 90 % 1034,1 hPa 0,0 mm 0,0 km/h (0 Bft) S-SW 194 ° 0 min 0,000 mm 0,0 UV-I 0 W/m² 1,7 °C 3,2 °C 0,0 km/h (0 Bft)
28.01.2018 00:33 3,2 °C 90 % 1034,1 hPa 0,0 mm 0,0 km/h (0 Bft) S-SW 194 ° 0 min 0,000 mm 0,0 UV-I 0 W/m² 1,7 °C 3,2 °C 0,0 km/h (0 Bft)
28.01.2018 00:34 3,2 °C 90 % 1034,1 hPa 0,0 mm 0,0 km/h (0 Bft) S-SW 194 ° 0 min 0,000 mm 0,0 UV-I 0 W/m² 1,7 °C 3,2 °C 0,0 km/h (0 Bft)
28.01.2018 00:35 3,2 °C 90 % 1034,1 hPa 0,0 mm 0,0 km/h (0 Bft) S-SW 194 ° 0 min 0,000 mm 0,0 UV-I 0 W/m² 1,7 °C 3,2 °C 0,0 km/h (0 Bft)
28.01.2018 00:36 3,2 °C 90 % 1034,2 hPa 0,0 mm 0,0 km/h (0 Bft) S-SW 194 ° 0 min 0,000 mm 0,0 UV-I 0 W/m² 1,7 °C 3,2 °C 0,0 km/h (0 Bft)
28.01.2018 00:37 3,2 °C 90 % 1034,1 hPa 0,0 mm 0,0 km/h (0 Bft) S-SW 194 ° 0 min 0,000 mm 0,0 UV-I 0 W/m² 1,7 °C 3,2 °C 0,0 km/h (0 Bft)
28.01.2018 00:38 3,2 °C 90 % 1034,1 hPa 0,0 mm 0,0 km/h (0 Bft) S-SW 194 ° 0 min 0,000 mm 0,0 UV-I 0 W/m² 1,7 °C 3,2 °C 0,0 km/h (0 Bft)
28.01.2018 00:39 3,2 °C 90 % 1034,1 hPa 0,0 mm 0,0 km/h (0 Bft) S-SW 194 ° 0 min 0,000 mm 0,0 UV-I 0 W/m² 1,7 °C 3,2 °C 0,0 km/h (0 Bft)
28.01.2018 00:40 3,2 °C 90 % 1034,1 hPa 0,0 mm 0,7 km/h (0 Bft) S-SW 194 ° 0 min 0,000 mm 0,0 UV-I 0 W/m² 1,7 °C 3,2 °C 1,6 km/h (1 Bft)
28.01.2018 00:41 3,2 °C 89 % 1034,1 hPa 0,0 mm 2,4 km/h (1 Bft) S-SW 210 ° 0 min 0,000 mm 0,0 UV-I 0 W/m² 1,6 °C 3,2 °C 3,2 km/h (1 Bft)
28.01.2018 00:42 3,2 °C 89 % 1034,0 hPa 0,0 mm 0,8 km/h (0 Bft) S-SW 210 ° 0 min 0,000 mm 0,0 UV-I 0 W/m² 1,6 °C 3,2 °C 3,2 km/h (1 Bft)
28.01.2018 00:43 3,1 °C 89 % 1034,0 hPa 0,0 mm 0,0 km/h (0 Bft) S-SW 210 ° 0 min 0,000 mm 0,0 UV-I 0 W/m² 1,5 °C 3,1 °C 0,0 km/h (0 Bft)
28.01.2018 00:44 3,1 °C 89 % 1034,0 hPa 0,0 mm 0,0 km/h (0 Bft) S-SW 210 ° 0 min 0,000 mm 0,0 UV-I 0 W/m² 1,5 °C 3,1 °C 0,0 km/h (0 Bft)
28.01.2018 00:45 3,1 °C 89 % 1034,1 hPa 0,0 mm 0,0 km/h (0 Bft) S-SW 210 ° 0 min 0,000 mm 0,0 UV-I 0 W/m² 1,5 °C 3,1 °C 0,0 km/h (0 Bft)
28.01.2018 00:46 3,1 °C 89 % 1034,1 hPa 0,0 mm 0,0 km/h (0 Bft) S-SW 210 ° 0 min 0,000 mm 0,0 UV-I 0 W/m² 1,5 °C 3,1 °C 0,0 km/h (0 Bft)
28.01.2018 00:47 3,1 °C 89 % 1034,1 hPa 0,0 mm 0,0 km/h (0 Bft) S-SW 210 ° 0 min 0,000 mm 0,0 UV-I 0 W/m² 1,5 °C 3,1 °C 0,0 km/h (0 Bft)
28.01.2018 00:48 3,1 °C 89 % 1034,1 hPa 0,0 mm 0,0 km/h (0 Bft) S-SW 210 ° 0 min 0,000 mm 0,0 UV-I 0 W/m² 1,5 °C 3,1 °C 0,0 km/h (0 Bft)
28.01.2018 00:49 3,1 °C 89 % 1034,1 hPa 0,0 mm 0,0 km/h (0 Bft) S-SW 210 ° 0 min 0,000 mm 0,0 UV-I 0 W/m² 1,5 °C 3,1 °C 0,0 km/h (0 Bft)
28.01.2018 00:50 3,1 °C 89 % 1034,1 hPa 0,0 mm 0,0 km/h (0 Bft) S-SW 210 ° 0 min 0,000 mm 0,0 UV-I 0 W/m² 1,5 °C 3,1 °C 0,0 km/h (0 Bft)
28.01.2018 00:51 3,1 °C 89 % 1034,1 hPa 0,0 mm 0,0 km/h (0 Bft) S-SW 210 ° 0 min 0,000 mm 0,0 UV-I 0 W/m² 1,5 °C 3,1 °C 0,0 km/h (0 Bft)
28.01.2018 00:52 3,0 °C 89 % 1034,0 hPa 0,0 mm 0,0 km/h (0 Bft) S-SW 210 ° 0 min 0,000 mm 0,0 UV-I 0 W/m² 1,4 °C 3,0 °C 0,0 km/h (0 Bft)
28.01.2018 00:53 3,0 °C 89 % 1034,1 hPa 0,0 mm 0,0 km/h (0 Bft) S-SW 210 ° 0 min 0,000 mm 0,0 UV-I 0 W/m² 1,4 °C 3,0 °C 0,0 km/h (0 Bft)
28.01.2018 00:54 2,9 °C 89 % 1034,0 hPa 0,0 mm 0,0 km/h (0 Bft) S-SW 210 ° 0 min 0,000 mm 0,0 UV-I 0 W/m² 1,3 °C 2,9 °C 0,0 km/h (0 Bft)
28.01.2018 00:55 2,9 °C 89 % 1034,0 hPa 0,0 mm 0,0 km/h (0 Bft) S-SW 210 ° 0 min 0,000 mm 0,0 UV-I 0 W/m² 1,3 °C 2,9 °C 0,0 km/h (0 Bft)
28.01.2018 00:56 2,9 °C 89 % 1034,0 hPa 0,0 mm 0,0 km/h (0 Bft) S-SW 210 ° 0 min 0,000 mm 0,0 UV-I 0 W/m² 1,3 °C 2,9 °C 0,0 km/h (0 Bft)
28.01.2018 00:57 2,9 °C 89 % 1034,0 hPa 0,0 mm 0,0 km/h (0 Bft) S-SW 210 ° 0 min 0,000 mm 0,0 UV-I 0 W/m² 1,3 °C 2,9 °C 0,0 km/h (0 Bft)
28.01.2018 00:58 2,9 °C 89 % 1034,0 hPa 0,0 mm 0,0 km/h (0 Bft) S-SW 210 ° 0 min 0,000 mm 0,0 UV-I 0 W/m² 1,3 °C 2,9 °C 0,0 km/h (0 Bft)
28.01.2018 00:59 2,9 °C 89 % 1034,0 hPa 0,0 mm 0,0 km/h (0 Bft) S-SW 210 ° 0 min 0,000 mm 0,0 UV-I 0 W/m² 1,3 °C 2,9 °C 0,0 km/h (0 Bft)
28.01.2018 01:00 2,8 °C 89 % 1034,0 hPa 0,0 mm 0,0 km/h (0 Bft) S-SW 210 ° 0 min 0,000 mm 0,0 UV-I 0 W/m² 1,2 °C 2,8 °C 0,0 km/h (0 Bft)
28.01.2018 01:01 2,8 °C 89 % 1034,0 hPa 0,0 mm 0,0 km/h (0 Bft) S-SW 210 ° 0 min 0,000 mm 0,0 UV-I 0 W/m² 1,2 °C 2,8 °C 0,0 km/h (0 Bft)
28.01.2018 01:02 2,8 °C 89 % 1034,1 hPa 0,0 mm 0,0 km/h (0 Bft) S-SW 210 ° 0 min 0,000 mm 0,0 UV-I 0 W/m² 1,2 °C 2,8 °C 0,0 km/h (0 Bft)
28.01.2018 01:03 2,8 °C 89 % 1034,1 hPa 0,0 mm 0,0 km/h (0 Bft) S-SW 210 ° 0 min 0,000 mm 0,0 UV-I 0 W/m² 1,2 °C 2,8 °C 0,0 km/h (0 Bft)
28.01.2018 01:04 2,8 °C 89 % 1034,1 hPa 0,0 mm 0,0 km/h (0 Bft) S-SW 210 ° 0 min 0,000 mm 0,0 UV-I 0 W/m² 1,2 °C 2,8 °C 0,0 km/h (0 Bft)
28.01.2018 01:05 2,8 °C 89 % 1034,0 hPa 0,0 mm 0,0 km/h (0 Bft) S-SW 210 ° 0 min 0,000 mm 0,0 UV-I 0 W/m² 1,2 °C 2,8 °C 0,0 km/h (0 Bft)
28.01.2018 01:06 2,8 °C 89 % 1034,0 hPa 0,0 mm 0,0 km/h (0 Bft) S-SW 210 ° 0 min 0,000 mm 0,0 UV-I 0 W/m² 1,2 °C 2,8 °C 0,0 km/h (0 Bft)
28.01.2018 01:07 2,8 °C 89 % 1034,1 hPa 0,0 mm 0,0 km/h (0 Bft) S-SW 210 ° 0 min 0,000 mm 0,0 UV-I 0 W/m² 1,2 °C 2,8 °C 0,0 km/h (0 Bft)
28.01.2018 01:08 2,8 °C 89 % 1034,1 hPa 0,0 mm 0,0 km/h (0 Bft) S-SW 210 ° 0 min 0,000 mm 0,0 UV-I 0 W/m² 1,2 °C 2,8 °C 0,0 km/h (0 Bft)
28.01.2018 01:09 2,7 °C 89 % 1034,1 hPa 0,0 mm 0,0 km/h (0 Bft) S-SW 210 ° 0 min 0,000 mm 0,0 UV-I 0 W/m² 1,1 °C 2,7 °C 0,0 km/h (0 Bft)
28.01.2018 01:10 2,7 °C 89 % 1034,1 hPa 0,0 mm 0,0 km/h (0 Bft) S-SW 210 ° 0 min 0,000 mm 0,0 UV-I 0 W/m² 1,1 °C 2,7 °C 0,0 km/h (0 Bft)
28.01.2018 01:11 2,7 °C 89 % 1034,2 hPa 0,0 mm 0,7 km/h (0 Bft) S-SW 210 ° 0 min 0,000 mm 0,0 UV-I 0 W/m² 1,1 °C 2,7 °C 4,8 km/h (1 Bft)
28.01.2018 01:12 2,7 °C 89 % 1034,2 hPa 0,0 mm 0,6 km/h (0 Bft) S-SW 210 ° 0 min 0,000 mm 0,0 UV-I 0 W/m² 1,1 °C 2,7 °C 3,2 km/h (1 Bft)
28.01.2018 01:13 2,7 °C 89 % 1034,3 hPa 0,0 mm 0,1 km/h (0 Bft) S-SW 210 ° 0 min 0,000 mm 0,0 UV-I 0 W/m² 1,1 °C 2,7 °C 1,6 km/h (1 Bft)
28.01.2018 01:14 2,7 °C 89 % 1034,3 hPa 0,0 mm 0,0 km/h (0 Bft) S-SW 210 ° 0 min 0,000 mm 0,0 UV-I 0 W/m² 1,1 °C 2,7 °C 0,0 km/h (0 Bft)
28.01.2018 01:15 2,7 °C 89 % 1034,3 hPa 0,0 mm 0,0 km/h (0 Bft) S-SW 210 ° 0 min 0,000 mm 0,0 UV-I 0 W/m² 1,1 °C 2,7 °C 0,0 km/h (0 Bft)
28.01.2018 01:16 2,7 °C 89 % 1034,3 hPa 0,0 mm 0,0 km/h (0 Bft) S-SW 210 ° 0 min 0,000 mm 0,0 UV-I 0 W/m² 1,1 °C 2,7 °C 0,0 km/h (0 Bft)
28.01.2018 01:17 2,7 °C 89 % 1034,1 hPa 0,0 mm 0,0 km/h (0 Bft) S-SW 210 ° 0 min 0,000 mm 0,0 UV-I 0 W/m² 1,1 °C 2,7 °C 0,0 km/h (0 Bft)
28.01.2018 01:18 2,7 °C 89 % 1034,1 hPa 0,0 mm 0,0 km/h (0 Bft) S-SW 210 ° 0 min 0,000 mm 0,0 UV-I 0 W/m² 1,1 °C 2,7 °C 0,0 km/h (0 Bft)
28.01.2018 01:19 2,7 °C 89 % 1034,1 hPa 0,0 mm 1,7 km/h (1 Bft) S-SW 210 ° 0 min 0,000 mm 0,0 UV-I 0 W/m² 1,1 °C 2,7 °C 3,2 km/h (1 Bft)
28.01.2018 01:20 2,6 °C 89 % 1034,1 hPa 0,0 mm 1,3 km/h (1 Bft) S-SW 210 ° 0 min 0,000 mm 0,0 UV-I 0 W/m² 1,0 °C 2,6 °C 3,2 km/h (1 Bft)
28.01.2018 01:21 2,6 °C 90 % 1034,1 hPa 0,0 mm 2,7 km/h (1 Bft) S-SW 210 ° 0 min 0,000 mm 0,0 UV-I 0 W/m² 1,1 °C 2,6 °C 4,8 km/h (1 Bft)
28.01.2018 01:22 2,6 °C 90 % 1034,1 hPa 0,0 mm 4,2 km/h (1 Bft) S 179 ° 0 min 0,000 mm 0,0 UV-I 0 W/m² 1,1 °C 2,6 °C 4,8 km/h (1 Bft)
28.01.2018 01:23 2,7 °C 90 % 1034,0 hPa 0,0 mm 6,2 km/h (2 Bft) S 182 ° 0 min 0,000 mm 0,0 UV-I 0 W/m² 1,2 °C 1,0 °C 8,0 km/h (2 Bft)
28.01.2018 01:24 2,7 °C 90 % 1034,0 hPa 0,0 mm 3,1 km/h (1 Bft) S 182 ° 0 min 0,000 mm 0,0 UV-I 0 W/m² 1,2 °C 2,7 °C 4,8 km/h (1 Bft)
28.01.2018 01:25 2,7 °C 90 % 1034,0 hPa 0,0 mm 3,6 km/h (1 Bft) S 180 ° 0 min 0,000 mm 0,0 UV-I 0 W/m² 1,2 °C 2,7 °C 6,4 km/h (2 Bft)
28.01.2018 01:26 2,7 °C 90 % 1034,0 hPa 0,0 mm 1,9 km/h (1 Bft) S 180 ° 0 min 0,000 mm 0,0 UV-I 0 W/m² 1,2 °C 2,7 °C 3,2 km/h (1 Bft)
28.01.2018 01:27 2,7 °C 90 % 1034,1 hPa 0,0 mm 2,4 km/h (1 Bft) S 180 ° 0 min 0,000 mm 0,0 UV-I 0 W/m² 1,2 °C 2,7 °C 4,8 km/h (1 Bft)
28.01.2018 01:28 2,7 °C 90 % 1034,2 hPa 0,0 mm 2,4 km/h (1 Bft) S 180 ° 0 min 0,000 mm 0,0 UV-I 0 W/m² 1,2 °C 2,7 °C 4,8 km/h (1 Bft)
28.01.2018 01:29 2,7 °C 90 % 1034,2 hPa 0,0 mm 2,7 km/h (1 Bft) S 180 ° 0 min 0,000 mm 0,0 UV-I 0 W/m² 1,2 °C 2,7 °C 4,8 km/h (1 Bft)
28.01.2018 01:30 2,7 °C 90 % 1034,2 hPa 0,0 mm 3,1 km/h (1 Bft) S 180 ° 0 min 0,000 mm 0,0 UV-I 0 W/m² 1,2 °C 2,7 °C 4,8 km/h (1 Bft)
28.01.2018 01:31 2,7 °C 90 % 1034,2 hPa 0,0 mm 3,8 km/h (1 Bft) S 188 ° 0 min 0,000 mm 0,0 UV-I 0 W/m² 1,2 °C 2,7 °C 4,8 km/h (1 Bft)
28.01.2018 01:32 2,8 °C 90 % 1034,2 hPa 0,0 mm 2,2 km/h (1 Bft) S 188 ° 0 min 0,000 mm 0,0 UV-I 0 W/m² 1,3 °C 2,8 °C 3,2 km/h (1 Bft)
28.01.2018 01:33 2,8 °C 90 % 1034,2 hPa 0,0 mm 0,7 km/h (0 Bft) S 188 ° 0 min 0,000 mm 0,0 UV-I 0 W/m² 1,3 °C 2,8 °C 1,6 km/h (1 Bft)
28.01.2018 01:34 2,8 °C 90 % 1034,2 hPa 0,0 mm 3,9 km/h (1 Bft) S 188 ° 0 min 0,000 mm 0,0 UV-I 0 W/m² 1,3 °C 2,8 °C 4,8 km/h (1 Bft)
28.01.2018 01:35 2,8 °C 90 % 1034,2 hPa 0,0 mm 3,6 km/h (1 Bft) S 188 ° 0 min 0,000 mm 0,0 UV-I 0 W/m² 1,3 °C 2,8 °C 4,8 km/h (1 Bft)
28.01.2018 01:36 2,8 °C 90 % 1034,2 hPa 0,0 mm 2,6 km/h (1 Bft) S 188 ° 0 min 0,000 mm 0,0 UV-I 0 W/m² 1,3 °C 2,8 °C 3,2 km/h (1 Bft)
28.01.2018 01:37 2,8 °C 90 % 1034,2 hPa 0,0 mm 1,3 km/h (1 Bft) S 188 ° 0 min 0,000 mm 0,0 UV-I 0 W/m² 1,3 °C 2,8 °C 1,6 km/h (1 Bft)
28.01.2018 01:38 2,9 °C 90 % 1034,1 hPa 0,0 mm 1,2 km/h (1 Bft) S 188 ° 0 min 0,000 mm 0,0 UV-I 0 W/m² 1,4 °C 2,9 °C 1,6 km/h (1 Bft)
28.01.2018 01:39 2,9 °C 90 % 1034,1 hPa 0,0 mm 2,5 km/h (1 Bft) S 188 ° 0 min 0,000 mm 0,0 UV-I 0 W/m² 1,4 °C 2,9 °C 3,2 km/h (1 Bft)
28.01.2018 01:40 2,9 °C 90 % 1034,2 hPa 0,0 mm 1,9 km/h (1 Bft) S 188 ° 0 min 0,000 mm 0,0 UV-I 0 W/m² 1,4 °C 2,9 °C 3,2 km/h (1 Bft)
28.01.2018 01:41 2,9 °C 90 % 1034,2 hPa 0,0 mm 0,7 km/h (0 Bft) S 188 ° 0 min 0,000 mm 0,0 UV-I 0 W/m² 1,4 °C 2,9 °C 3,2 km/h (1 Bft)
28.01.2018 01:42 2,9 °C 90 % 1034,2 hPa 0,0 mm 0,0 km/h (0 Bft) S 188 ° 0 min 0,000 mm 0,0 UV-I 0 W/m² 1,4 °C 2,9 °C 0,0 km/h (0 Bft)
28.01.2018 01:43 2,9 °C 90 % 1034,2 hPa 0,0 mm 0,0 km/h (0 Bft) S 188 ° 0 min 0,000 mm 0,0 UV-I 0 W/m² 1,4 °C 2,9 °C 0,0 km/h (0 Bft)
28.01.2018 01:44 2,9 °C 89 % 1034,2 hPa 0,0 mm 0,0 km/h (0 Bft) S 188 ° 0 min 0,000 mm 0,0 UV-I 0 W/m² 1,3 °C 2,9 °C 0,0 km/h (0 Bft)
28.01.2018 01:45 2,9 °C 89 % 1034,2 hPa 0,0 mm 0,0 km/h (0 Bft) S 188 ° 0 min 0,000 mm 0,0 UV-I 0 W/m² 1,3 °C 2,9 °C 0,0 km/h (0 Bft)
28.01.2018 01:46 2,9 °C 89 % 1034,2 hPa 0,0 mm 0,0 km/h (0 Bft) S 188 ° 0 min 0,000 mm 0,0 UV-I 0 W/m² 1,3 °C 2,9 °C 0,0 km/h (0 Bft)
28.01.2018 01:47 2,9 °C 89 % 1034,2 hPa 0,0 mm 0,0 km/h (0 Bft) N 0 ° 0 min 0,000 mm 0,0 UV-I 0 W/m² 1,3 °C 2,9 °C 0,0 km/h (0 Bft)
28.01.2018 01:48 2,9 °C 89 % 1034,2 hPa 0,0 mm 0,0 km/h (0 Bft) N 0 ° 0 min 0,000 mm 0,0 UV-I 0 W/m² 1,3 °C 2,9 °C 0,0 km/h (0 Bft)
28.01.2018 01:49 2,9 °C 89 % 1034,2 hPa 0,0 mm 0,0 km/h (0 Bft) N 0 ° 0 min 0,000 mm 0,0 UV-I 0 W/m² 1,3 °C 2,9 °C 0,0 km/h (0 Bft)
28.01.2018 01:50 2,9 °C 89 % 1034,2 hPa 0,0 mm 0,0 km/h (0 Bft) N 0 ° 0 min 0,000 mm 0,0 UV-I 0 W/m² 1,3 °C 2,9 °C 0,0 km/h (0 Bft)
28.01.2018 01:51 2,9 °C 89 % 1034,3 hPa 0,0 mm 0,0 km/h (0 Bft) N 0 ° 0 min 0,000 mm 0,0 UV-I 0 W/m² 1,3 °C 2,9 °C 0,0 km/h (0 Bft)
28.01.2018 01:52 2,9 °C 89 % 1034,2 hPa 0,0 mm 0,0 km/h (0 Bft) N 0 ° 0 min 0,000 mm 0,0 UV-I 0 W/m² 1,3 °C 2,9 °C 0,0 km/h (0 Bft)
28.01.2018 01:53 2,9 °C 89 % 1034,3 hPa 0,0 mm 0,0 km/h (0 Bft) N 0 ° 0 min 0,000 mm 0,0 UV-I 0 W/m² 1,3 °C 2,9 °C 0,0 km/h (0 Bft)
28.01.2018 01:55 2,8 °C 89 % 1034,3 hPa 0,0 mm 0,0 km/h (0 Bft) S 188 ° 0 min 0,000 mm 0,0 UV-I 0 W/m² 1,2 °C 2,8 °C 0,0 km/h (0 Bft)
28.01.2018 01:56 2,8 °C 89 % 1034,3 hPa 0,0 mm 0,0 km/h (0 Bft) S 188 ° 0 min 0,000 mm 0,0 UV-I 0 W/m² 1,2 °C 2,8 °C 0,0 km/h (0 Bft)
28.01.2018 01:57 2,8 °C 89 % 1034,3 hPa 0,0 mm 0,0 km/h (0 Bft) S 188 ° 0 min 0,000 mm 0,0 UV-I 0 W/m² 1,2 °C 2,8 °C 0,0 km/h (0 Bft)
28.01.2018 01:58 2,8 °C 89 % 1034,2 hPa 0,0 mm 0,0 km/h (0 Bft) S 188 ° 0 min 0,000 mm 0,0 UV-I 0 W/m² 1,2 °C 2,8 °C 0,0 km/h (0 Bft)
28.01.2018 01:59 2,8 °C 89 % 1034,2 hPa 0,0 mm 2,9 km/h (1 Bft) S 188 ° 0 min 0,000 mm 0,0 UV-I 0 W/m² 1,2 °C 2,8 °C 6,4 km/h (2 Bft)
28.01.2018 02:00 2,8 °C 89 % 1034,2 hPa 0,0 mm 2,7 km/h (1 Bft) S 188 ° 0 min 0,000 mm 0,0 UV-I 0 W/m² 1,2 °C 2,8 °C 4,8 km/h (1 Bft)
28.01.2018 02:01 2,8 °C 89 % 1034,1 hPa 0,0 mm 0,9 km/h (0 Bft) S 188 ° 0 min 0,000 mm 0,0 UV-I 0 W/m² 1,2 °C 2,8 °C 1,6 km/h (1 Bft)
28.01.2018 02:02 2,7 °C 89 % 1034,2 hPa 0,0 mm 2,9 km/h (1 Bft) SW 225 ° 0 min 0,000 mm 0,0 UV-I 0 W/m² 1,1 °C 2,7 °C 4,8 km/h (1 Bft)
28.01.2018 02:03 2,7 °C 89 % 1034,2 hPa 0,0 mm 2,7 km/h (1 Bft) SW 225 ° 0 min 0,000 mm 0,0 UV-I 0 W/m² 1,1 °C 2,7 °C 3,2 km/h (1 Bft)
28.01.2018 02:04 2,7 °C 89 % 1034,1 hPa 0,0 mm 1,9 km/h (1 Bft) SW 225 ° 0 min 0,000 mm 0,0 UV-I 0 W/m² 1,1 °C 2,7 °C 3,2 km/h (1 Bft)
28.01.2018 02:05 2,7 °C 89 % 1034,1 hPa 0,0 mm 0,0 km/h (0 Bft) SW 225 ° 0 min 0,000 mm 0,0 UV-I 0 W/m² 1,1 °C 2,7 °C 0,0 km/h (0 Bft)
28.01.2018 02:06 2,7 °C 89 % 1034,1 hPa 0,0 mm 0,0 km/h (0 Bft) SW 225 ° 0 min 0,000 mm 0,0 UV-I 0 W/m² 1,1 °C 2,7 °C 0,0 km/h (0 Bft)
28.01.2018 02:07 2,7 °C 89 % 1034,2 hPa 0,0 mm 0,0 km/h (0 Bft) SW 225 ° 0 min 0,000 mm 0,0 UV-I 0 W/m² 1,1 °C 2,7 °C 0,0 km/h (0 Bft)
28.01.2018 02:08 2,6 °C 89 % 1034,1 hPa 0,0 mm 0,0 km/h (0 Bft) SW 225 ° 0 min 0,000 mm 0,0 UV-I 0 W/m² 1,0 °C 2,6 °C 0,0 km/h (0 Bft)
28.01.2018 02:09 2,6 °C 89 % 1034,1 hPa 0,0 mm 0,1 km/h (0 Bft) SW 225 ° 0 min 0,000 mm 0,0 UV-I 0 W/m² 1,0 °C 2,6 °C 1,6 km/h (1 Bft)
28.01.2018 02:10 2,6 °C 89 % 1034,0 hPa 0,0 mm 0,5 km/h (0 Bft) SW 225 ° 0 min 0,000 mm 0,0 UV-I 0 W/m² 1,0 °C 2,6 °C 1,6 km/h (1 Bft)
28.01.2018 02:11 2,6 °C 89 % 1034,0 hPa 0,0 mm 0,0 km/h (0 Bft) SW 225 ° 0 min 0,000 mm 0,0 UV-I 0 W/m² 1,0 °C 2,6 °C 0,0 km/h (0 Bft)
28.01.2018 02:12 2,6 °C 89 % 1034,0 hPa 0,0 mm 0,0 km/h (0 Bft) SW 225 ° 0 min 0,000 mm 0,0 UV-I 0 W/m² 1,0 °C 2,6 °C 0,0 km/h (0 Bft)
28.01.2018 02:13 2,6 °C 89 % 1034,0 hPa 0,0 mm 0,0 km/h (0 Bft) SW 225 ° 0 min 0,000 mm 0,0 UV-I 0 W/m² 1,0 °C 2,6 °C 0,0 km/h (0 Bft)
28.01.2018 02:14 2,6 °C 89 % 1034,1 hPa 0,0 mm 0,0 km/h (0 Bft) SW 225 ° 0 min 0,000 mm 0,0 UV-I 0 W/m² 1,0 °C 2,6 °C 0,0 km/h (0 Bft)
28.01.2018 02:15 2,6 °C 89 % 1034,1 hPa 0,0 mm 0,0 km/h (0 Bft) SW 225 ° 0 min 0,000 mm 0,0 UV-I 0 W/m² 1,0 °C 2,6 °C 0,0 km/h (0 Bft)
28.01.2018 02:16 2,6 °C 89 % 1034,1 hPa 0,0 mm 0,0 km/h (0 Bft) SW 225 ° 0 min 0,000 mm 0,0 UV-I 0 W/m² 1,0 °C 2,6 °C 0,0 km/h (0 Bft)
28.01.2018 02:17 2,6 °C 89 % 1034,1 hPa 0,0 mm 0,0 km/h (0 Bft) SW 225 ° 0 min 0,000 mm 0,0 UV-I 0 W/m² 1,0 °C 2,6 °C 0,0 km/h (0 Bft)
28.01.2018 02:18 2,6 °C 89 % 1034,2 hPa 0,0 mm 0,0 km/h (0 Bft) SW 225 ° 0 min 0,000 mm 0,0 UV-I 0 W/m² 1,0 °C 2,6 °C 0,0 km/h (0 Bft)
28.01.2018 02:19 2,6 °C 89 % 1034,2 hPa 0,0 mm 0,0 km/h (0 Bft) SW 225 ° 0 min 0,000 mm 0,0 UV-I 0 W/m² 1,0 °C 2,6 °C 0,0 km/h (0 Bft)
28.01.2018 02:20 2,5 °C 89 % 1034,0 hPa 0,0 mm 0,3 km/h (0 Bft) SW 225 ° 0 min 0,000 mm 0,0 UV-I 0 W/m² 0,9 °C 2,5 °C 1,6 km/h (1 Bft)
28.01.2018 02:21 2,5 °C 89 % 1034,0 hPa 0,0 mm 0,6 km/h (0 Bft) SW 225 ° 0 min 0,000 mm 0,0 UV-I 0 W/m² 0,9 °C 2,5 °C 1,6 km/h (1 Bft)
28.01.2018 02:22 2,5 °C 89 % 1034,1 hPa 0,0 mm 0,0 km/h (0 Bft) SW 225 ° 0 min 0,000 mm 0,0 UV-I 0 W/m² 0,9 °C 2,5 °C 0,0 km/h (0 Bft)
28.01.2018 02:23 2,5 °C 89 % 1034,2 hPa 0,0 mm 3,3 km/h (1 Bft) W-SW 252 ° 0 min 0,000 mm 0,0 UV-I 0 W/m² 0,9 °C 2,5 °C 6,4 km/h (2 Bft)
28.01.2018 02:24 2,4 °C 89 % 1034,1 hPa 0,0 mm 3,3 km/h (1 Bft) W 267 ° 0 min 0,000 mm 0,0 UV-I 0 W/m² 0,8 °C 2,4 °C 9,7 km/h (2 Bft)
28.01.2018 02:25 2,4 °C 89 % 1034,1 hPa 0,0 mm 6,6 km/h (2 Bft) W 263 ° 0 min 0,000 mm 0,0 UV-I 0 W/m² 0,8 °C 0,5 °C 9,7 km/h (2 Bft)
28.01.2018 02:26 2,4 °C 89 % 1034,1 hPa 0,0 mm 4,2 km/h (1 Bft) SW 232 ° 0 min 0,000 mm 0,0 UV-I 0 W/m² 0,8 °C 2,4 °C 6,4 km/h (2 Bft)
28.01.2018 02:27 2,4 °C 89 % 1034,2 hPa 0,0 mm 5,0 km/h (1 Bft) S-SW 204 ° 0 min 0,000 mm 0,0 UV-I 0 W/m² 0,8 °C 1,1 °C 6,4 km/h (2 Bft)
28.01.2018 02:28 2,4 °C 89 % 1034,2 hPa 0,0 mm 5,6 km/h (1 Bft) S-SW 204 ° 0 min 0,000 mm 0,0 UV-I 0 W/m² 0,8 °C 0,9 °C 6,4 km/h (2 Bft)
28.01.2018 02:29 2,3 °C 89 % 1034,2 hPa 0,0 mm 4,3 km/h (1 Bft) S-SW 200 ° 0 min 0,000 mm 0,0 UV-I 0 W/m² 0,7 °C 2,3 °C 6,4 km/h (2 Bft)
28.01.2018 02:30 2,3 °C 89 % 1034,1 hPa 0,0 mm 2,4 km/h (1 Bft) S-SW 200 ° 0 min 0,000 mm 0,0 UV-I 0 W/m² 0,7 °C 2,3 °C 3,2 km/h (1 Bft)
28.01.2018 02:31 2,3 °C 89 % 1034,2 hPa 0,0 mm 3,0 km/h (1 Bft) S-SW 200 ° 0 min 0,000 mm 0,0 UV-I 0 W/m² 0,7 °C 2,3 °C 4,8 km/h (1 Bft)
28.01.2018 02:32 2,3 °C 89 % 1034,2 hPa 0,0 mm 2,7 km/h (1 Bft) S-SW 200 ° 0 min 0,000 mm 0,0 UV-I 0 W/m² 0,7 °C 2,3 °C 4,8 km/h (1 Bft)
28.01.2018 02:33 2,3 °C 90 % 1034,2 hPa 0,0 mm 1,8 km/h (1 Bft) S-SW 200 ° 0 min 0,000 mm 0,0 UV-I 0 W/m² 0,8 °C 2,3 °C 3,2 km/h (1 Bft)
28.01.2018 02:34 2,3 °C 90 % 1034,3 hPa 0,0 mm 0,9 km/h (0 Bft) S-SW 200 ° 0 min 0,000 mm 0,0 UV-I 0 W/m² 0,8 °C 2,3 °C 1,6 km/h (1 Bft)
28.01.2018 02:35 2,3 °C 90 % 1034,3 hPa 0,0 mm 0,1 km/h (0 Bft) S-SW 200 ° 0 min 0,000 mm 0,0 UV-I 0 W/m² 0,8 °C 2,3 °C 1,6 km/h (1 Bft)
28.01.2018 02:36 2,3 °C 90 % 1034,3 hPa 0,0 mm 1,6 km/h (1 Bft) S-SW 200 ° 0 min 0,000 mm 0,0 UV-I 0 W/m² 0,8 °C 2,3 °C 1,6 km/h (1 Bft)
28.01.2018 02:37 2,3 °C 89 % 1034,3 hPa 0,0 mm 1,6 km/h (1 Bft) S-SW 202 ° 0 min 0,000 mm 0,0 UV-I 0 W/m² 0,7 °C 2,3 °C 3,2 km/h (1 Bft)
28.01.2018 02:38 2,3 °C 89 % 1034,3 hPa 0,0 mm 4,8 km/h (1 Bft) S-SW 202 ° 0 min 0,000 mm 0,0 UV-I 0 W/m² 0,7 °C 1,1 °C 6,4 km/h (2 Bft)
28.01.2018 02:39 2,3 °C 89 % 1034,4 hPa 0,0 mm 4,8 km/h (1 Bft) S-SW 202 ° 0 min 0,000 mm 0,0 UV-I 0 W/m² 0,7 °C 1,1 °C 8,0 km/h (2 Bft)
28.01.2018 02:40 2,2 °C 89 % 1034,3 hPa 0,0 mm 3,2 km/h (1 Bft) S-SW 202 ° 0 min 0,000 mm 0,0 UV-I 0 W/m² 0,6 °C 2,2 °C 4,8 km/h (1 Bft)
28.01.2018 02:41 2,2 °C 89 % 1034,3 hPa 0,0 mm 3,2 km/h (1 Bft) S-SW 202 ° 0 min 0,000 mm 0,0 UV-I 0 W/m² 0,6 °C 2,2 °C 4,8 km/h (1 Bft)
28.01.2018 02:42 2,2 °C 89 % 1034,3 hPa 0,0 mm 3,2 km/h (1 Bft) S-SW 202 ° 0 min 0,000 mm 0,0 UV-I 0 W/m² 0,6 °C 2,2 °C 4,8 km/h (1 Bft)
28.01.2018 02:43 2,2 °C 89 % 1034,4 hPa 0,0 mm 3,2 km/h (1 Bft) S-SW 202 ° 0 min 0,000 mm 0,0 UV-I 0 W/m² 0,6 °C 2,2 °C 4,8 km/h (1 Bft)
28.01.2018 02:45 2,2 °C 89 % 1034,4 hPa 0,0 mm 1,4 km/h (1 Bft) S-SW 204 ° 0 min 0,000 mm 0,0 UV-I 0 W/m² 0,6 °C 2,2 °C 3,2 km/h (1 Bft)
28.01.2018 02:46 2,2 °C 90 % 1034,4 hPa 0,0 mm 0,0 km/h (0 Bft) S-SW 204 ° 0 min 0,000 mm 0,0 UV-I 0 W/m² 0,7 °C 2,2 °C 0,0 km/h (0 Bft)
28.01.2018 02:47 2,2 °C 89 % 1034,5 hPa 0,0 mm 3,3 km/h (1 Bft) S 180 ° 0 min 0,000 mm 0,0 UV-I 0 W/m² 0,6 °C 2,2 °C 4,8 km/h (1 Bft)
28.01.2018 02:48 2,2 °C 90 % 1034,4 hPa 0,0 mm 6,3 km/h (2 Bft) S-SO 154 ° 0 min 0,000 mm 0,0 UV-I 0 W/m² 0,7 °C 0,4 °C 9,7 km/h (2 Bft)
28.01.2018 02:49 2,2 °C 90 % 1034,4 hPa 0,0 mm 4,0 km/h (1 Bft) S-SO 154 ° 0 min 0,000 mm 0,0 UV-I 0 W/m² 0,7 °C 2,2 °C 6,4 km/h (2 Bft)
28.01.2018 02:50 2,2 °C 90 % 1034,4 hPa 0,0 mm 2,3 km/h (1 Bft) S-SO 158 ° 0 min 0,000 mm 0,0 UV-I 0 W/m² 0,7 °C 2,2 °C 4,8 km/h (1 Bft)
28.01.2018 02:51 2,2 °C 90 % 1034,4 hPa 0,0 mm 0,0 km/h (0 Bft) S-SO 158 ° 0 min 0,000 mm 0,0 UV-I 0 W/m² 0,7 °C 2,2 °C 0,0 km/h (0 Bft)
28.01.2018 02:52 2,2 °C 90 % 1034,3 hPa 0,0 mm 0,0 km/h (0 Bft) S-SO 158 ° 0 min 0,000 mm 0,0 UV-I 0 W/m² 0,7 °C 2,2 °C 0,0 km/h (0 Bft)
28.01.2018 02:53 2,1 °C 90 % 1034,3 hPa 0,0 mm 0,0 km/h (0 Bft) S-SO 158 ° 0 min 0,000 mm 0,0 UV-I 0 W/m² 0,6 °C 2,1 °C 0,0 km/h (0 Bft)
28.01.2018 02:54 2,1 °C 90 % 1034,4 hPa 0,0 mm 0,0 km/h (0 Bft) S-SO 158 ° 0 min 0,000 mm 0,0 UV-I 0 W/m² 0,6 °C 2,1 °C 0,0 km/h (0 Bft)
28.01.2018 02:55 2,2 °C 90 % 1034,4 hPa 0,0 mm 0,0 km/h (0 Bft) S-SO 158 ° 0 min 0,000 mm 0,0 UV-I 0 W/m² 0,7 °C 2,2 °C 0,0 km/h (0 Bft)
28.01.2018 02:56 2,1 °C 90 % 1034,4 hPa 0,0 mm 0,5 km/h (0 Bft) SW 215 ° 0 min 0,000 mm 0,0 UV-I 0 W/m² 0,6 °C 2,1 °C 3,2 km/h (1 Bft)
28.01.2018 02:57 2,1 °C 90 % 1034,4 hPa 0,0 mm 1,5 km/h (1 Bft) SW 225 ° 0 min 0,000 mm 0,0 UV-I 0 W/m² 0,6 °C 2,1 °C 3,2 km/h (1 Bft)
28.01.2018 02:58 2,1 °C 90 % 1034,5 hPa 0,0 mm 0,2 km/h (0 Bft) SW 225 ° 0 min 0,000 mm 0,0 UV-I 0 W/m² 0,6 °C 2,1 °C 1,6 km/h (1 Bft)
28.01.2018 02:59 2,1 °C 90 % 1034,4 hPa 0,0 mm 0,0 km/h (0 Bft) SW 225 ° 0 min 0,000 mm 0,0 UV-I 0 W/m² 0,6 °C 2,1 °C 0,0 km/h (0 Bft)
28.01.2018 03:00 2,1 °C 90 % 1034,4 hPa 0,0 mm 0,0 km/h (0 Bft) SW 225 ° 0 min 0,000 mm 0,0 UV-I 0 W/m² 0,6 °C 2,1 °C 0,0 km/h (0 Bft)
28.01.2018 03:01 2,1 °C 90 % 1034,4 hPa 0,0 mm 0,0 km/h (0 Bft) SW 225 ° 0 min 0,000 mm 0,0 UV-I 0 W/m² 0,6 °C 2,1 °C 0,0 km/h (0 Bft)
28.01.2018 03:02 2,1 °C 90 % 1034,5 hPa 0,0 mm 0,0 km/h (0 Bft) SW 225 ° 0 min 0,000 mm 0,0 UV-I 0 W/m² 0,6 °C 2,1 °C 0,0 km/h (0 Bft)
28.01.2018 03:03 2,1 °C 90 % 1034,4 hPa 0,0 mm 0,0 km/h (0 Bft) SW 225 ° 0 min 0,000 mm 0,0 UV-I 0 W/m² 0,6 °C 2,1 °C 0,0 km/h (0 Bft)
28.01.2018 03:04 2,1 °C 89 % 1034,4 hPa 0,0 mm 0,0 km/h (0 Bft) SW 225 ° 0 min 0,000 mm 0,0 UV-I 0 W/m² 0,5 °C 2,1 °C 0,0 km/h (0 Bft)
28.01.2018 03:05 2,1 °C 90 % 1034,4 hPa 0,0 mm 0,0 km/h (0 Bft) SW 225 ° 0 min 0,000 mm 0,0 UV-I 0 W/m² 0,6 °C 2,1 °C 0,0 km/h (0 Bft)
28.01.2018 03:06 2,0 °C 90 % 1034,4 hPa 0,0 mm 0,0 km/h (0 Bft) SW 225 ° 0 min 0,000 mm 0,0 UV-I 0 W/m² 0,5 °C 2,0 °C 0,0 km/h (0 Bft)
28.01.2018 03:07 2,0 °C 89 % 1034,4 hPa 0,0 mm 0,0 km/h (0 Bft) SW 225 ° 0 min 0,000 mm 0,0 UV-I 0 W/m² 0,4 °C 2,0 °C 0,0 km/h (0 Bft)
28.01.2018 03:08 2,0 °C 89 % 1034,5 hPa 0,0 mm 0,0 km/h (0 Bft) SW 225 ° 0 min 0,000 mm 0,0 UV-I 0 W/m² 0,4 °C 2,0 °C 0,0 km/h (0 Bft)
28.01.2018 03:09 2,0 °C 89 % 1034,5 hPa 0,0 mm 0,7 km/h (0 Bft) SW 225 ° 0 min 0,000 mm 0,0 UV-I 0 W/m² 0,4 °C 2,0 °C 1,6 km/h (1 Bft)
28.01.2018 03:10 2,0 °C 89 % 1034,5 hPa 0,0 mm 0,0 km/h (0 Bft) SW 225 ° 0 min 0,000 mm 0,0 UV-I 0 W/m² 0,4 °C 2,0 °C 0,0 km/h (0 Bft)
28.01.2018 03:11 1,9 °C 89 % 1034,5 hPa 0,0 mm 0,0 km/h (0 Bft) SW 225 ° 0 min 0,000 mm 0,0 UV-I 0 W/m² 0,3 °C 1,9 °C 0,0 km/h (0 Bft)
28.01.2018 03:12 2,0 °C 89 % 1034,5 hPa 0,0 mm 0,0 km/h (0 Bft) SW 225 ° 0 min 0,000 mm 0,0 UV-I 0 W/m² 0,4 °C 2,0 °C 0,0 km/h (0 Bft)
28.01.2018 03:13 1,9 °C 89 % 1034,6 hPa 0,0 mm 0,1 km/h (0 Bft) SW 225 ° 0 min 0,000 mm 0,0 UV-I 0 W/m² 0,3 °C 1,9 °C 1,6 km/h (1 Bft)
28.01.2018 03:14 1,9 °C 89 % 1034,5 hPa 0,0 mm 1,0 km/h (0 Bft) SW 225 ° 0 min 0,000 mm 0,0 UV-I 0 W/m² 0,3 °C 1,9 °C 3,2 km/h (1 Bft)
28.01.2018 03:15 1,9 °C 89 % 1034,5 hPa 0,0 mm 0,1 km/h (0 Bft) SW 225 ° 0 min 0,000 mm 0,0 UV-I 0 W/m² 0,3 °C 1,9 °C 1,6 km/h (1 Bft)
28.01.2018 03:16 1,9 °C 89 % 1034,4 hPa 0,0 mm 3,5 km/h (1 Bft) S-SW 207 ° 0 min 0,000 mm 0,0 UV-I 0 W/m² 0,3 °C 1,9 °C 4,8 km/h (1 Bft)
28.01.2018 03:17 1,9 °C 89 % 1034,4 hPa 0,0 mm 2,2 km/h (1 Bft) S-SW 206 ° 0 min 0,000 mm 0,0 UV-I 0 W/m² 0,3 °C 1,9 °C 3,2 km/h (1 Bft)
28.01.2018 03:18 1,9 °C 89 % 1034,4 hPa 0,0 mm 2,4 km/h (1 Bft) S-SW 200 ° 0 min 0,000 mm 0,0 UV-I 0 W/m² 0,3 °C 1,9 °C 4,8 km/h (1 Bft)
28.01.2018 03:19 1,8 °C 90 % 1034,5 hPa 0,0 mm 4,2 km/h (1 Bft) S-SW 200 ° 0 min 0,000 mm 0,0 UV-I 0 W/m² 0,3 °C 1,8 °C 6,4 km/h (2 Bft)
28.01.2018 03:20 1,8 °C 90 % 1034,5 hPa 0,0 mm 2,9 km/h (1 Bft) S-SW 200 ° 0 min 0,000 mm 0,0 UV-I 0 W/m² 0,3 °C 1,8 °C 4,8 km/h (1 Bft)
28.01.2018 03:21 1,8 °C 90 % 1034,5 hPa 0,0 mm 3,4 km/h (1 Bft) S-SW 196 ° 0 min 0,000 mm 0,0 UV-I 0 W/m² 0,3 °C 1,8 °C 4,8 km/h (1 Bft)
28.01.2018 03:22 1,9 °C 90 % 1034,5 hPa 0,0 mm 2,7 km/h (1 Bft) S-SW 196 ° 0 min 0,000 mm 0,0 UV-I 0 W/m² 0,4 °C 1,9 °C 4,8 km/h (1 Bft)
28.01.2018 03:23 1,8 °C 90 % 1034,4 hPa 0,0 mm 3,8 km/h (1 Bft) S-SW 196 ° 0 min 0,000 mm 0,0 UV-I 0 W/m² 0,3 °C 1,8 °C 8,0 km/h (2 Bft)
28.01.2018 03:24 1,8 °C 90 % 1034,4 hPa 0,0 mm 4,2 km/h (1 Bft) S 175 ° 0 min 0,000 mm 0,0 UV-I 0 W/m² 0,3 °C 1,8 °C 8,0 km/h (2 Bft)
28.01.2018 03:25 1,8 °C 90 % 1034,4 hPa 0,0 mm 3,2 km/h (1 Bft) S 175 ° 0 min 0,000 mm 0,0 UV-I 0 W/m² 0,3 °C 1,8 °C 4,8 km/h (1 Bft)
28.01.2018 03:26 1,8 °C 90 % 1034,4 hPa 0,0 mm 3,0 km/h (1 Bft) S 175 ° 0 min 0,000 mm 0,0 UV-I 0 W/m² 0,3 °C 1,8 °C 4,8 km/h (1 Bft)
28.01.2018 03:27 1,8 °C 90 % 1034,4 hPa 0,0 mm 2,5 km/h (1 Bft) S 175 ° 0 min 0,000 mm 0,0 UV-I 0 W/m² 0,3 °C 1,8 °C 3,2 km/h (1 Bft)
28.01.2018 03:28 1,8 °C 90 % 1034,4 hPa 0,0 mm 2,3 km/h (1 Bft) S 175 ° 0 min 0,000 mm 0,0 UV-I 0 W/m² 0,3 °C 1,8 °C 4,8 km/h (1 Bft)
28.01.2018 03:29 1,8 °C 90 % 1034,4 hPa 0,0 mm 1,7 km/h (1 Bft) S 175 ° 0 min 0,000 mm 0,0 UV-I 0 W/m² 0,3 °C 1,8 °C 3,2 km/h (1 Bft)
28.01.2018 03:30 1,8 °C 90 % 1034,4 hPa 0,0 mm 2,3 km/h (1 Bft) S 175 ° 0 min 0,000 mm 0,0 UV-I 0 W/m² 0,3 °C 1,8 °C 3,2 km/h (1 Bft)
28.01.2018 03:31 1,8 °C 90 % 1034,4 hPa 0,0 mm 1,5 km/h (1 Bft) S 175 ° 0 min 0,000 mm 0,0 UV-I 0 W/m² 0,3 °C 1,8 °C 3,2 km/h (1 Bft)
28.01.2018 03:32 1,8 °C 90 % 1034,4 hPa 0,0 mm 0,0 km/h (0 Bft) S 175 ° 0 min 0,000 mm 0,0 UV-I 0 W/m² 0,3 °C 1,8 °C 0,0 km/h (0 Bft)
28.01.2018 03:33 1,8 °C 90 % 1034,5 hPa 0,0 mm 0,0 km/h (0 Bft) S 175 ° 0 min 0,000 mm 0,0 UV-I 0 W/m² 0,3 °C 1,8 °C 0,0 km/h (0 Bft)
28.01.2018 03:34 1,8 °C 90 % 1034,5 hPa 0,0 mm 0,0 km/h (0 Bft) S 175 ° 0 min 0,000 mm 0,0 UV-I 0 W/m² 0,3 °C 1,8 °C 0,0 km/h (0 Bft)
28.01.2018 03:35 1,8 °C 90 % 1034,5 hPa 0,0 mm 0,0 km/h (0 Bft) S 175 ° 0 min 0,000 mm 0,0 UV-I 0 W/m² 0,3 °C 1,8 °C 0,0 km/h (0 Bft)
28.01.2018 03:36 1,8 °C 90 % 1034,5 hPa 0,0 mm 0,0 km/h (0 Bft) S-SW 202 ° 0 min 0,000 mm 0,0 UV-I 0 W/m² 0,3 °C 1,8 °C 0,0 km/h (0 Bft)
28.01.2018 03:37 1,8 °C 90 % 1034,6 hPa 0,0 mm 2,6 km/h (1 Bft) S-SW 202 ° 0 min 0,000 mm 0,0 UV-I 0 W/m² 0,3 °C 1,8 °C 6,4 km/h (2 Bft)
28.01.2018 03:38 1,8 °C 90 % 1034,6 hPa 0,0 mm 3,7 km/h (1 Bft) S-SW 193 ° 0 min 0,000 mm 0,0 UV-I 0 W/m² 0,3 °C 1,8 °C 6,4 km/h (2 Bft)
28.01.2018 03:39 1,8 °C 90 % 1034,6 hPa 0,0 mm 2,1 km/h (1 Bft) S-SW 193 ° 0 min 0,000 mm 0,0 UV-I 0 W/m² 0,3 °C 1,8 °C 3,2 km/h (1 Bft)
28.01.2018 03:40 1,8 °C 90 % 1034,6 hPa 0,0 mm 3,6 km/h (1 Bft) S-SW 195 ° 0 min 0,000 mm 0,0 UV-I 0 W/m² 0,3 °C 1,8 °C 8,0 km/h (2 Bft)
28.01.2018 03:41 1,8 °C 90 % 1034,5 hPa 0,0 mm 8,0 km/h (2 Bft) S-SW 196 ° 0 min 0,000 mm 0,0 UV-I 0 W/m² 0,3 °C -0,6 °C 8,0 km/h (2 Bft)
28.01.2018 03:42 1,8 °C 90 % 1034,5 hPa 0,0 mm 3,2 km/h (1 Bft) S-SW 202 ° 0 min 0,000 mm 0,0 UV-I 0 W/m² 0,3 °C 1,8 °C 4,8 km/h (1 Bft)
28.01.2018 03:43 1,7 °C 90 % 1034,5 hPa 0,0 mm 3,2 km/h (1 Bft) S-SW 202 ° 0 min 0,000 mm 0,0 UV-I 0 W/m² 0,2 °C 1,7 °C 4,8 km/h (1 Bft)
28.01.2018 03:44 1,7 °C 90 % 1034,4 hPa 0,0 mm 4,8 km/h (1 Bft) S-SW 202 ° 0 min 0,000 mm 0,0 UV-I 0 W/m² 0,2 °C 0,4 °C 6,4 km/h (2 Bft)
28.01.2018 03:45 1,8 °C 90 % 1034,5 hPa 0,0 mm 3,2 km/h (1 Bft) S-SW 202 ° 0 min 0,000 mm 0,0 UV-I 0 W/m² 0,3 °C 1,8 °C 4,8 km/h (1 Bft)
28.01.2018 03:46 1,7 °C 90 % 1034,5 hPa 0,0 mm 3,2 km/h (1 Bft) S-SW 202 ° 0 min 0,000 mm 0,0 UV-I 0 W/m² 0,2 °C 1,7 °C 6,4 km/h (2 Bft)
28.01.2018 03:47 1,7 °C 90 % 1034,5 hPa 0,0 mm 1,6 km/h (1 Bft) S-SW 202 ° 0 min 0,000 mm 0,0 UV-I 0 W/m² 0,2 °C 1,7 °C 3,2 km/h (1 Bft)
28.01.2018 03:48 1,7 °C 90 % 1034,5 hPa 0,0 mm 0,0 km/h (0 Bft) S-SW 202 ° 0 min 0,000 mm 0,0 UV-I 0 W/m² 0,2 °C 1,7 °C 1,6 km/h (1 Bft)
28.01.2018 03:50 1,7 °C 90 % 1034,5 hPa 0,0 mm 5,9 km/h (2 Bft) S 174 ° 0 min 0,000 mm 0,0 UV-I 0 W/m² 0,2 °C -0,0 °C 8,0 km/h (2 Bft)
28.01.2018 03:51 1,7 °C 90 % 1034,5 hPa 0,0 mm 3,6 km/h (1 Bft) S-SW 192 ° 0 min 0,000 mm 0,0 UV-I 0 W/m² 0,2 °C 1,7 °C 4,8 km/h (1 Bft)
28.01.2018 03:52 1,7 °C 90 % 1034,5 hPa 0,0 mm 3,0 km/h (1 Bft) S-SW 192 ° 0 min 0,000 mm 0,0 UV-I 0 W/m² 0,2 °C 1,7 °C 4,8 km/h (1 Bft)
28.01.2018 03:53 1,7 °C 90 % 1034,5 hPa 0,0 mm 1,9 km/h (1 Bft) S-SW 192 ° 0 min 0,000 mm 0,0 UV-I 0 W/m² 0,2 °C 1,7 °C 3,2 km/h (1 Bft)
28.01.2018 03:54 1,7 °C 90 % 1034,5 hPa 0,0 mm 2,0 km/h (1 Bft) S-SW 192 ° 0 min 0,000 mm 0,0 UV-I 0 W/m² 0,2 °C 1,7 °C 4,8 km/h (1 Bft)
28.01.2018 03:55 1,7 °C 90 % 1034,4 hPa 0,0 mm 3,9 km/h (1 Bft) W 259 ° 0 min 0,000 mm 0,0 UV-I 0 W/m² 0,2 °C 1,7 °C 6,4 km/h (2 Bft)
28.01.2018 03:56 1,7 °C 90 % 1034,4 hPa 0,0 mm 0,5 km/h (0 Bft) W 259 ° 0 min 0,000 mm 0,0 UV-I 0 W/m² 0,2 °C 1,7 °C 1,6 km/h (1 Bft)
28.01.2018 03:57 1,8 °C 90 % 1034,4 hPa 0,0 mm 2,0 km/h (1 Bft) S-SW 198 ° 0 min 0,000 mm 0,0 UV-I 0 W/m² 0,3 °C 1,8 °C 4,8 km/h (1 Bft)
28.01.2018 03:58 1,8 °C 90 % 1034,4 hPa 0,0 mm 2,0 km/h (1 Bft) S-SW 198 ° 0 min 0,000 mm 0,0 UV-I 0 W/m² 0,3 °C 1,8 °C 4,8 km/h (1 Bft)
28.01.2018 03:59 1,8 °C 90 % 1034,4 hPa 0,0 mm 0,1 km/h (0 Bft) S-SW 198 ° 0 min 0,000 mm 0,0 UV-I 0 W/m² 0,3 °C 1,8 °C 1,6 km/h (1 Bft)
28.01.2018 04:00 1,8 °C 90 % 1034,4 hPa 0,0 mm 2,0 km/h (1 Bft) S-SW 198 ° 0 min 0,000 mm 0,0 UV-I 0 W/m² 0,3 °C 1,8 °C 3,2 km/h (1 Bft)
28.01.2018 04:01 1,8 °C 90 % 1034,4 hPa 0,0 mm 4,2 km/h (1 Bft) S-SW 198 ° 0 min 0,000 mm 0,0 UV-I 0 W/m² 0,3 °C 1,8 °C 6,4 km/h (2 Bft)
28.01.2018 04:02 1,8 °C 90 % 1034,4 hPa 0,0 mm 4,5 km/h (1 Bft) S 187 ° 0 min 0,000 mm 0,0 UV-I 0 W/m² 0,3 °C 1,8 °C 9,7 km/h (2 Bft)
28.01.2018 04:03 1,8 °C 90 % 1034,5 hPa 0,0 mm 6,2 km/h (2 Bft) S-SW 204 ° 0 min 0,000 mm 0,0 UV-I 0 W/m² 0,3 °C -0,0 °C 8,0 km/h (2 Bft)
28.01.2018 04:04 1,8 °C 90 % 1034,5 hPa 0,0 mm 4,8 km/h (1 Bft) S 186 ° 0 min 0,000 mm 0,0 UV-I 0 W/m² 0,3 °C 0,5 °C 6,4 km/h (2 Bft)
28.01.2018 04:05 1,9 °C 90 % 1034,5 hPa 0,0 mm 3,6 km/h (1 Bft) S 188 ° 0 min 0,000 mm 0,0 UV-I 0 W/m² 0,4 °C 1,9 °C 6,4 km/h (2 Bft)
28.01.2018 04:06 1,9 °C 90 % 1034,5 hPa 0,0 mm 3,4 km/h (1 Bft) W-SW 252 ° 0 min 0,000 mm 0,0 UV-I 0 W/m² 0,4 °C 1,9 °C 6,4 km/h (2 Bft)
28.01.2018 04:07 1,9 °C 90 % 1034,4 hPa 0,0 mm 5,2 km/h (1 Bft) S-SW 202 ° 0 min 0,000 mm 0,0 UV-I 0 W/m² 0,4 °C 0,5 °C 8,0 km/h (2 Bft)
28.01.2018 04:08 1,9 °C 90 % 1034,4 hPa 0,0 mm 6,0 km/h (2 Bft) S-SW 196 ° 0 min 0,000 mm 0,0 UV-I 0 W/m² 0,4 °C 0,2 °C 8,0 km/h (2 Bft)
28.01.2018 04:09 1,9 °C 90 % 1034,5 hPa 0,0 mm 5,2 km/h (1 Bft) S-SW 196 ° 0 min 0,000 mm 0,0 UV-I 0 W/m² 0,4 °C 0,5 °C 8,0 km/h (2 Bft)
28.01.2018 04:10 1,9 °C 90 % 1034,5 hPa 0,0 mm 5,8 km/h (2 Bft) S-SW 199 ° 0 min 0,000 mm 0,0 UV-I 0 W/m² 0,4 °C 0,2 °C 6,4 km/h (2 Bft)
28.01.2018 04:11 1,9 °C 90 % 1034,6 hPa 0,0 mm 5,0 km/h (1 Bft) S-SW 197 ° 0 min 0,000 mm 0,0 UV-I 0 W/m² 0,4 °C 0,6 °C 8,0 km/h (2 Bft)
28.01.2018 04:12 1,9 °C 90 % 1034,6 hPa 0,0 mm 2,6 km/h (1 Bft) SW 219 ° 0 min 0,000 mm 0,0 UV-I 0 W/m² 0,4 °C 1,9 °C 4,8 km/h (1 Bft)
28.01.2018 04:13 1,9 °C 90 % 1034,6 hPa 0,0 mm 3,8 km/h (1 Bft) SW 216 ° 0 min 0,000 mm 0,0 UV-I 0 W/m² 0,4 °C 1,9 °C 4,8 km/h (1 Bft)
28.01.2018 04:14 1,9 °C 90 % 1034,6 hPa 0,0 mm 3,0 km/h (1 Bft) SW 216 ° 0 min 0,000 mm 0,0 UV-I 0 W/m² 0,4 °C 1,9 °C 4,8 km/h (1 Bft)
28.01.2018 04:15 1,9 °C 90 % 1034,7 hPa 0,0 mm 3,8 km/h (1 Bft) SW 216 ° 0 min 0,000 mm 0,0 UV-I 0 W/m² 0,4 °C 1,9 °C 6,4 km/h (2 Bft)
28.01.2018 04:16 2,0 °C 90 % 1034,7 hPa 0,0 mm 4,1 km/h (1 Bft) S-SW 211 ° 0 min 0,000 mm 0,0 UV-I 0 W/m² 0,5 °C 2,0 °C 6,4 km/h (2 Bft)
28.01.2018 04:17 2,0 °C 90 % 1034,7 hPa 0,0 mm 5,9 km/h (2 Bft) S-SW 198 ° 0 min 0,000 mm 0,0 UV-I 0 W/m² 0,5 °C 0,3 °C 9,7 km/h (2 Bft)
28.01.2018 04:18 2,0 °C 90 % 1034,7 hPa 0,0 mm 7,1 km/h (2 Bft) S-SW 211 ° 0 min 0,000 mm 0,0 UV-I 0 W/m² 0,5 °C -0,1 °C 11,3 km/h (2 Bft)
28.01.2018 04:19 2,0 °C 90 % 1034,7 hPa 0,0 mm 5,0 km/h (1 Bft) S-SW 198 ° 0 min 0,000 mm 0,0 UV-I 0 W/m² 0,5 °C 0,7 °C 6,4 km/h (2 Bft)
28.01.2018 04:20 2,0 °C 90 % 1034,8 hPa 0,0 mm 4,6 km/h (1 Bft) S-SW 194 ° 0 min 0,000 mm 0,0 UV-I 0 W/m² 0,5 °C 0,9 °C 9,7 km/h (2 Bft)
28.01.2018 04:21 1,9 °C 90 % 1034,7 hPa 0,0 mm 8,0 km/h (2 Bft) S-SW 203 ° 0 min 0,000 mm 0,0 UV-I 0 W/m² 0,4 °C -0,5 °C 9,7 km/h (2 Bft)
28.01.2018 04:22 1,9 °C 89 % 1034,8 hPa 0,0 mm 7,8 km/h (2 Bft) S-SW 200 ° 0 min 0,000 mm 0,0 UV-I 0 W/m² 0,3 °C -0,4 °C 9,7 km/h (2 Bft)
28.01.2018 04:23 1,9 °C 90 % 1034,8 hPa 0,0 mm 6,6 km/h (2 Bft) S-SW 195 ° 0 min 0,000 mm 0,0 UV-I 0 W/m² 0,4 °C -0,1 °C 8,0 km/h (2 Bft)
28.01.2018 04:24 1,9 °C 89 % 1034,8 hPa 0,0 mm 6,3 km/h (2 Bft) S-SW 212 ° 0 min 0,000 mm 0,0 UV-I 0 W/m² 0,3 °C 0,0 °C 11,3 km/h (2 Bft)
28.01.2018 04:25 1,9 °C 89 % 1034,8 hPa 0,0 mm 6,4 km/h (2 Bft) S-SW 211 ° 0 min 0,000 mm 0,0 UV-I 0 W/m² 0,3 °C 0,0 °C 9,7 km/h (2 Bft)
28.01.2018 04:26 1,8 °C 89 % 1034,8 hPa 0,0 mm 6,4 km/h (2 Bft) S-SW 209 ° 0 min 0,000 mm 0,0 UV-I 0 W/m² 0,2 °C -0,1 °C 9,7 km/h (2 Bft)
28.01.2018 04:27 1,8 °C 89 % 1034,8 hPa 0,0 mm 6,8 km/h (2 Bft) S-SW 206 ° 0 min 0,000 mm 0,0 UV-I 0 W/m² 0,2 °C -0,2 °C 9,7 km/h (2 Bft)
28.01.2018 04:28 1,8 °C 89 % 1034,8 hPa 0,0 mm 3,6 km/h (1 Bft) S-SW 206 ° 0 min 0,000 mm 0,0 UV-I 0 W/m² 0,2 °C 1,8 °C 4,8 km/h (1 Bft)
28.01.2018 04:29 1,8 °C 89 % 1034,9 hPa 0,0 mm 1,7 km/h (1 Bft) S-SW 206 ° 0 min 0,000 mm 0,0 UV-I 0 W/m² 0,2 °C 1,8 °C 3,2 km/h (1 Bft)
28.01.2018 04:30 1,7 °C 89 % 1034,9 hPa 0,0 mm 1,5 km/h (1 Bft) S-SW 206 ° 0 min 0,000 mm 0,0 UV-I 0 W/m² 0,1 °C 1,7 °C 4,8 km/h (1 Bft)
28.01.2018 04:31 1,7 °C 89 % 1034,9 hPa 0,0 mm 1,3 km/h (1 Bft) S-SW 206 ° 0 min 0,000 mm 0,0 UV-I 0 W/m² 0,1 °C 1,7 °C 3,2 km/h (1 Bft)
28.01.2018 04:32 1,7 °C 89 % 1034,9 hPa 0,0 mm 1,3 km/h (1 Bft) S-SW 206 ° 0 min 0,000 mm 0,0 UV-I 0 W/m² 0,1 °C 1,7 °C 3,2 km/h (1 Bft)
28.01.2018 04:33 1,7 °C 89 % 1034,9 hPa 0,0 mm 0,0 km/h (0 Bft) S-SW 206 ° 0 min 0,000 mm 0,0 UV-I 0 W/m² 0,1 °C 1,7 °C 0,0 km/h (0 Bft)
28.01.2018 04:34 1,7 °C 89 % 1034,9 hPa 0,0 mm 0,7 km/h (0 Bft) S-SW 206 ° 0 min 0,000 mm 0,0 UV-I 0 W/m² 0,1 °C 1,7 °C 3,2 km/h (1 Bft)
28.01.2018 04:35 1,7 °C 89 % 1034,9 hPa 0,0 mm 2,2 km/h (1 Bft) S-SW 199 ° 0 min 0,000 mm 0,0 UV-I 0 W/m² 0,1 °C 1,7 °C 6,4 km/h (2 Bft)
28.01.2018 04:36 1,6 °C 89 % 1034,9 hPa 0,0 mm 4,6 km/h (1 Bft) SW 219 ° 0 min 0,000 mm 0,0 UV-I 0 W/m² -0,0 °C 0,4 °C 8,0 km/h (2 Bft)
28.01.2018 04:37 1,6 °C 89 % 1034,8 hPa 0,0 mm 5,7 km/h (1 Bft) S-SW 198 ° 0 min 0,000 mm 0,0 UV-I 0 W/m² -0,0 °C -0,1 °C 9,7 km/h (2 Bft)
28.01.2018 04:38 1,6 °C 89 % 1034,9 hPa 0,0 mm 5,2 km/h (1 Bft) S-SW 192 ° 0 min 0,000 mm 0,0 UV-I 0 W/m² -0,0 °C 0,1 °C 8,0 km/h (2 Bft)
28.01.2018 04:39 1,6 °C 89 % 1034,8 hPa 0,0 mm 0,9 km/h (0 Bft) S-SW 192 ° 0 min 0,000 mm 0,0 UV-I 0 W/m² -0,0 °C 1,6 °C 3,2 km/h (1 Bft)
28.01.2018 04:40 1,6 °C 89 % 1034,9 hPa 0,0 mm 0,0 km/h (0 Bft) S-SW 192 ° 0 min 0,000 mm 0,0 UV-I 0 W/m² -0,0 °C 1,6 °C 0,0 km/h (0 Bft)
28.01.2018 04:41 1,6 °C 89 % 1034,9 hPa 0,0 mm 0,0 km/h (0 Bft) S-SW 192 ° 0 min 0,000 mm 0,0 UV-I 0 W/m² -0,0 °C 1,6 °C 0,0 km/h (0 Bft)
28.01.2018 04:42 1,6 °C 89 % 1034,9 hPa 0,0 mm 3,2 km/h (1 Bft) SW 225 ° 0 min 0,000 mm 0,0 UV-I 0 W/m² -0,0 °C 1,6 °C 9,7 km/h (2 Bft)
28.01.2018 04:43 1,5 °C 89 % 1034,9 hPa 0,0 mm 6,4 km/h (2 Bft) SW 225 ° 0 min 0,000 mm 0,0 UV-I 0 W/m² -0,1 °C -0,4 °C 9,7 km/h (2 Bft)
28.01.2018 04:44 1,5 °C 89 % 1034,9 hPa 0,0 mm 6,4 km/h (2 Bft) S-SW 202 ° 0 min 0,000 mm 0,0 UV-I 0 W/m² -0,1 °C -0,4 °C 8,0 km/h (2 Bft)
28.01.2018 04:45 1,6 °C 90 % 1034,9 hPa 0,0 mm 6,4 km/h (2 Bft) S-SW 202 ° 0 min 0,000 mm 0,0 UV-I 0 W/m² 0,1 °C -0,3 °C 9,7 km/h (2 Bft)
28.01.2018 04:46 1,6 °C 90 % 1034,8 hPa 0,0 mm 8,0 km/h (2 Bft) S-SW 202 ° 0 min 0,000 mm 0,0 UV-I 0 W/m² 0,1 °C -0,9 °C 11,3 km/h (2 Bft)
28.01.2018 04:47 1,6 °C 90 % 1034,8 hPa 0,0 mm 9,7 km/h (2 Bft) S 180 ° 0 min 0,000 mm 0,0 UV-I 0 W/m² 0,1 °C -1,3 °C 11,3 km/h (2 Bft)
28.01.2018 04:48 1,6 °C 90 % 1034,9 hPa 0,0 mm 6,4 km/h (2 Bft) S-SW 202 ° 0 min 0,000 mm 0,0 UV-I 0 W/m² 0,1 °C -0,3 °C 9,7 km/h (2 Bft)
28.01.2018 04:50 1,6 °C 90 % 1034,9 hPa 0,0 mm 4,8 km/h (1 Bft) SW 236 ° 0 min 0,000 mm 0,0 UV-I 0 W/m² 0,1 °C 0,3 °C 6,4 km/h (2 Bft)
28.01.2018 04:52 1,6 °C 90 % 1034,9 hPa 0,0 mm 6,5 km/h (2 Bft) S-SW 196 ° 0 min 0,000 mm 0,0 UV-I 0 W/m² 0,1 °C -0,4 °C 11,3 km/h (2 Bft)
28.01.2018 04:53 1,6 °C 90 % 1034,9 hPa 0,0 mm 7,2 km/h (2 Bft) SW 215 ° 0 min 0,000 mm 0,0 UV-I 0 W/m² 0,1 °C -0,6 °C 12,9 km/h (3 Bft)
28.01.2018 04:54 1,6 °C 90 % 1034,9 hPa 0,0 mm 7,4 km/h (2 Bft) S 191 ° 0 min 0,000 mm 0,0 UV-I 0 W/m² 0,1 °C -0,7 °C 9,7 km/h (2 Bft)
28.01.2018 04:55 1,7 °C 90 % 1034,9 hPa 0,0 mm 6,9 km/h (2 Bft) S-SO 168 ° 0 min 0,000 mm 0,0 UV-I 0 W/m² 0,2 °C -0,4 °C 8,0 km/h (2 Bft)
28.01.2018 04:56 1,7 °C 90 % 1034,9 hPa 0,0 mm 7,4 km/h (2 Bft) W-SW 248 ° 0 min 0,000 mm 0,0 UV-I 0 W/m² 0,2 °C -0,6 °C 9,7 km/h (2 Bft)
28.01.2018 04:57 1,7 °C 90 % 1034,9 hPa 0,0 mm 6,3 km/h (2 Bft) S 186 ° 0 min 0,000 mm 0,0 UV-I 0 W/m² 0,2 °C -0,2 °C 9,7 km/h (2 Bft)
28.01.2018 04:58 1,7 °C 90 % 1034,9 hPa 0,0 mm 7,2 km/h (2 Bft) S-SW 202 ° 0 min 0,000 mm 0,0 UV-I 0 W/m² 0,2 °C -0,5 °C 9,7 km/h (2 Bft)
28.01.2018 04:59 1,7 °C 90 % 1034,9 hPa 0,0 mm 6,5 km/h (2 Bft) S-SW 192 ° 0 min 0,000 mm 0,0 UV-I 0 W/m² 0,2 °C -0,3 °C 8,0 km/h (2 Bft)
28.01.2018 05:00 1,7 °C 90 % 1034,9 hPa 0,0 mm 4,2 km/h (1 Bft) S 189 ° 0 min 0,000 mm 0,0 UV-I 0 W/m² 0,2 °C 1,7 °C 8,0 km/h (2 Bft)
28.01.2018 05:01 1,7 °C 90 % 1034,8 hPa 0,0 mm 5,3 km/h (1 Bft) S-SW 195 ° 0 min 0,000 mm 0,0 UV-I 0 W/m² 0,2 °C 0,2 °C 8,0 km/h (2 Bft)
28.01.2018 05:02 1,7 °C 90 % 1034,9 hPa 0,0 mm 5,9 km/h (2 Bft) S-SW 196 ° 0 min 0,000 mm 0,0 UV-I 0 W/m² 0,2 °C -0,0 °C 8,0 km/h (2 Bft)
28.01.2018 05:03 1,8 °C 90 % 1034,8 hPa 0,0 mm 8,3 km/h (2 Bft) S 184 ° 0 min 0,000 mm 0,0 UV-I 0 W/m² 0,3 °C -0,7 °C 11,3 km/h (2 Bft)
28.01.2018 05:04 1,8 °C 90 % 1034,8 hPa 0,0 mm 4,9 km/h (1 Bft) S-SW 205 ° 0 min 0,000 mm 0,0 UV-I 0 W/m² 0,3 °C 0,5 °C 9,7 km/h (2 Bft)
28.01.2018 05:05 1,8 °C 90 % 1034,8 hPa 0,0 mm 7,7 km/h (2 Bft) W-SW 248 ° 0 min 0,000 mm 0,0 UV-I 0 W/m² 0,3 °C -0,5 °C 11,3 km/h (2 Bft)
28.01.2018 05:06 1,8 °C 90 % 1034,8 hPa 0,0 mm 3,8 km/h (1 Bft) SW 229 ° 0 min 0,000 mm 0,0 UV-I 0 W/m² 0,3 °C 1,8 °C 4,8 km/h (1 Bft)
28.01.2018 05:07 1,8 °C 90 % 1034,8 hPa 0,0 mm 3,4 km/h (1 Bft) SW 224 ° 0 min 0,000 mm 0,0 UV-I 0 W/m² 0,3 °C 1,8 °C 6,4 km/h (2 Bft)
28.01.2018 05:08 1,8 °C 90 % 1034,8 hPa 0,0 mm 4,8 km/h (1 Bft) S-SW 201 ° 0 min 0,000 mm 0,0 UV-I 0 W/m² 0,3 °C 0,5 °C 6,4 km/h (2 Bft)
28.01.2018 05:09 1,8 °C 90 % 1034,8 hPa 0,0 mm 5,4 km/h (1 Bft) SW 231 ° 0 min 0,000 mm 0,0 UV-I 0 W/m² 0,3 °C 0,3 °C 9,7 km/h (2 Bft)
28.01.2018 05:10 1,8 °C 90 % 1034,8 hPa 0,0 mm 4,5 km/h (1 Bft) S-SW 192 ° 0 min 0,000 mm 0,0 UV-I 0 W/m² 0,3 °C 1,8 °C 12,9 km/h (3 Bft)
28.01.2018 05:11 1,8 °C 90 % 1034,8 hPa 0,0 mm 7,3 km/h (2 Bft) S-SW 204 ° 0 min 0,000 mm 0,0 UV-I 0 W/m² 0,3 °C -0,4 °C 11,3 km/h (2 Bft)
28.01.2018 05:12 1,8 °C 90 % 1034,8 hPa 0,0 mm 5,0 km/h (1 Bft) S-SW 206 ° 0 min 0,000 mm 0,0 UV-I 0 W/m² 0,3 °C 0,5 °C 9,7 km/h (2 Bft)
28.01.2018 05:13 1,8 °C 90 % 1034,7 hPa 0,0 mm 5,6 km/h (1 Bft) S-SW 208 ° 0 min 0,000 mm 0,0 UV-I 0 W/m² 0,3 °C 0,2 °C 9,7 km/h (2 Bft)
28.01.2018 05:14 1,8 °C 90 % 1034,7 hPa 0,0 mm 12,2 km/h (2 Bft) S-SW 204 ° 0 min 0,000 mm 0,0 UV-I 0 W/m² 0,3 °C -1,7 °C 16,1 km/h (3 Bft)
28.01.2018 05:15 1,8 °C 90 % 1034,7 hPa 0,0 mm 7,0 km/h (2 Bft) SW 232 ° 0 min 0,000 mm 0,0 UV-I 0 W/m² 0,3 °C -0,3 °C 9,7 km/h (2 Bft)
28.01.2018 05:16 1,8 °C 90 % 1034,7 hPa 0,0 mm 3,6 km/h (1 Bft) W-SW 246 ° 0 min 0,000 mm 0,0 UV-I 0 W/m² 0,3 °C 1,8 °C 6,4 km/h (2 Bft)
28.01.2018 05:17 1,8 °C 90 % 1034,6 hPa 0,0 mm 3,2 km/h (1 Bft) S-SW 207 ° 0 min 0,000 mm 0,0 UV-I 0 W/m² 0,3 °C 1,8 °C 4,8 km/h (1 Bft)
28.01.2018 05:18 1,8 °C 90 % 1034,6 hPa 0,0 mm 3,2 km/h (1 Bft) S-SW 207 ° 0 min 0,000 mm 0,0 UV-I 0 W/m² 0,3 °C 1,8 °C 6,4 km/h (2 Bft)
28.01.2018 05:19 1,8 °C 90 % 1034,6 hPa 0,0 mm 3,0 km/h (1 Bft) S 190 ° 0 min 0,000 mm 0,0 UV-I 0 W/m² 0,3 °C 1,8 °C 4,8 km/h (1 Bft)
28.01.2018 05:20 1,8 °C 90 % 1034,6 hPa 0,0 mm 5,2 km/h (1 Bft) S-SW 210 ° 0 min 0,000 mm 0,0 UV-I 0 W/m² 0,3 °C 0,4 °C 9,7 km/h (2 Bft)
28.01.2018 05:21 1,8 °C 90 % 1034,6 hPa 0,0 mm 8,3 km/h (2 Bft) S-SW 200 ° 0 min 0,000 mm 0,0 UV-I 0 W/m² 0,3 °C -0,7 °C 9,7 km/h (2 Bft)
28.01.2018 05:22 1,8 °C 90 % 1034,7 hPa 0,0 mm 8,1 km/h (2 Bft) S-SW 204 ° 0 min 0,000 mm 0,0 UV-I 0 W/m² 0,3 °C -0,7 °C 11,3 km/h (2 Bft)
28.01.2018 05:23 1,8 °C 90 % 1034,7 hPa 0,0 mm 2,6 km/h (1 Bft) S-SW 205 ° 0 min 0,000 mm 0,0 UV-I 0 W/m² 0,3 °C 1,8 °C 4,8 km/h (1 Bft)
28.01.2018 05:24 1,8 °C 90 % 1034,7 hPa 0,0 mm 4,3 km/h (1 Bft) S-SW 211 ° 0 min 0,000 mm 0,0 UV-I 0 W/m² 0,3 °C 1,8 °C 6,4 km/h (2 Bft)
28.01.2018 05:25 1,8 °C 90 % 1034,6 hPa 0,0 mm 3,6 km/h (1 Bft) S-SW 212 ° 0 min 0,000 mm 0,0 UV-I 0 W/m² 0,3 °C 1,8 °C 6,4 km/h (2 Bft)
28.01.2018 05:26 1,8 °C 90 % 1034,6 hPa 0,0 mm 4,8 km/h (1 Bft) S-SW 205 ° 0 min 0,000 mm 0,0 UV-I 0 W/m² 0,3 °C 0,5 °C 4,8 km/h (1 Bft)
28.01.2018 05:27 1,8 °C 90 % 1034,7 hPa 0,0 mm 1,6 km/h (1 Bft) S-SW 202 ° 0 min 0,000 mm 0,0 UV-I 0 W/m² 0,3 °C 1,8 °C 3,2 km/h (1 Bft)
28.01.2018 05:28 1,8 °C 90 % 1034,6 hPa 0,0 mm 1,6 km/h (1 Bft) S-SW 202 ° 0 min 0,000 mm 0,0 UV-I 0 W/m² 0,3 °C 1,8 °C 1,6 km/h (1 Bft)
28.01.2018 05:29 1,7 °C 90 % 1034,6 hPa 0,0 mm 0,0 km/h (0 Bft) N 0 ° 0 min 0,000 mm 0,0 UV-I 0 W/m² 0,2 °C 1,7 °C 0,0 km/h (0 Bft)
28.01.2018 05:30 1,7 °C 90 % 1034,6 hPa 0,0 mm 0,0 km/h (0 Bft) N 0 ° 0 min 0,000 mm 0,0 UV-I 0 W/m² 0,2 °C 1,7 °C 0,0 km/h (0 Bft)
28.01.2018 05:31 1,7 °C 90 % 1034,7 hPa 0,0 mm 0,0 km/h (0 Bft) N 0 ° 0 min 0,000 mm 0,0 UV-I 0 W/m² 0,2 °C 1,7 °C 0,0 km/h (0 Bft)
28.01.2018 05:32 1,7 °C 90 % 1034,7 hPa 0,0 mm 0,0 km/h (0 Bft) N 0 ° 0 min 0,000 mm 0,0 UV-I 0 W/m² 0,2 °C 1,7 °C 0,0 km/h (0 Bft)
28.01.2018 05:33 1,7 °C 90 % 1034,7 hPa 0,0 mm 0,0 km/h (0 Bft) S-SW 202 ° 0 min 0,000 mm 0,0 UV-I 0 W/m² 0,2 °C 1,7 °C 1,6 km/h (1 Bft)
28.01.2018 05:35 1,7 °C 90 % 1034,7 hPa 0,0 mm 5,9 km/h (2 Bft) S-SW 206 ° 0 min 0,000 mm 0,0 UV-I 0 W/m² 0,2 °C -0,0 °C 8,0 km/h (2 Bft)
28.01.2018 05:36 1,7 °C 90 % 1034,7 hPa 0,0 mm 3,4 km/h (1 Bft) SW 216 ° 0 min 0,000 mm 0,0 UV-I 0 W/m² 0,2 °C 1,7 °C 4,8 km/h (1 Bft)
28.01.2018 05:37 1,7 °C 90 % 1034,7 hPa 0,0 mm 0,8 km/h (0 Bft) SW 216 ° 0 min 0,000 mm 0,0 UV-I 0 W/m² 0,2 °C 1,7 °C 3,2 km/h (1 Bft)
28.01.2018 05:38 1,6 °C 90 % 1034,7 hPa 0,0 mm 1,5 km/h (1 Bft) S-SW 202 ° 0 min 0,000 mm 0,0 UV-I 0 W/m² 0,1 °C 1,6 °C 6,4 km/h (2 Bft)
28.01.2018 05:39 1,6 °C 90 % 1034,7 hPa 0,0 mm 6,0 km/h (2 Bft) S-SW 212 ° 0 min 0,000 mm 0,0 UV-I 0 W/m² 0,1 °C -0,2 °C 8,0 km/h (2 Bft)
28.01.2018 05:40 1,6 °C 90 % 1034,7 hPa 0,0 mm 5,9 km/h (2 Bft) S 184 ° 0 min 0,000 mm 0,0 UV-I 0 W/m² 0,1 °C -0,1 °C 9,7 km/h (2 Bft)
28.01.2018 05:41 1,6 °C 90 % 1034,8 hPa 0,0 mm 8,2 km/h (2 Bft) S-SW 213 ° 0 min 0,000 mm 0,0 UV-I 0 W/m² 0,1 °C -0,9 °C 11,3 km/h (2 Bft)
28.01.2018 05:42 1,5 °C 90 % 1034,8 hPa 0,0 mm 7,6 km/h (2 Bft) S-SW 205 ° 0 min 0,000 mm 0,0 UV-I 0 W/m² 0,0 °C -0,9 °C 11,3 km/h (2 Bft)
28.01.2018 05:43 1,5 °C 90 % 1034,7 hPa 0,0 mm 1,5 km/h (1 Bft) S 173 ° 0 min 0,000 mm 0,0 UV-I 0 W/m² 0,0 °C 1,5 °C 3,2 km/h (1 Bft)
28.01.2018 05:44 1,4 °C 90 % 1034,7 hPa 0,0 mm 2,3 km/h (1 Bft) SW 226 ° 0 min 0,000 mm 0,0 UV-I 0 W/m² -0,1 °C 1,4 °C 3,2 km/h (1 Bft)
28.01.2018 05:45 1,4 °C 90 % 1034,7 hPa 0,0 mm 2,4 km/h (1 Bft) W-SW 247 ° 0 min 0,000 mm 0,0 UV-I 0 W/m² -0,1 °C 1,4 °C 4,8 km/h (1 Bft)
28.01.2018 05:46 1,4 °C 90 % 1034,7 hPa 0,0 mm 1,6 km/h (1 Bft) W-SW 247 ° 0 min 0,000 mm 0,0 UV-I 0 W/m² -0,1 °C 1,4 °C 1,6 km/h (1 Bft)
28.01.2018 05:47 1,4 °C 90 % 1034,7 hPa 0,0 mm 0,0 km/h (0 Bft) W-SW 247 ° 0 min 0,000 mm 0,0 UV-I 0 W/m² -0,1 °C 1,4 °C 1,6 km/h (1 Bft)
28.01.2018 05:48 1,4 °C 90 % 1034,7 hPa 0,0 mm 0,0 km/h (0 Bft) N 0 ° 0 min 0,000 mm 0,0 UV-I 0 W/m² -0,1 °C 1,4 °C 0,0 km/h (0 Bft)
28.01.2018 05:49 1,4 °C 90 % 1034,7 hPa 0,0 mm 0,0 km/h (0 Bft) N 0 ° 0 min 0,000 mm 0,0 UV-I 0 W/m² -0,1 °C 1,4 °C 0,0 km/h (0 Bft)
28.01.2018 05:50 1,3 °C 90 % 1034,7 hPa 0,0 mm 1,6 km/h (1 Bft) W-SW 247 ° 0 min 0,000 mm 0,0 UV-I 0 W/m² -0,2 °C 1,3 °C 4,8 km/h (1 Bft)
28.01.2018 05:51 1,3 °C 90 % 1034,7 hPa 0,0 mm 1,6 km/h (1 Bft) W-SW 247 ° 0 min 0,000 mm 0,0 UV-I 0 W/m² -0,2 °C 1,3 °C 3,2 km/h (1 Bft)
28.01.2018 05:52 1,3 °C 90 % 1034,7 hPa 0,0 mm 3,2 km/h (1 Bft) S 180 ° 0 min 0,000 mm 0,0 UV-I 0 W/m² -0,2 °C 1,3 °C 6,4 km/h (2 Bft)
28.01.2018 05:53 1,3 °C 90 % 1034,7 hPa 0,0 mm 3,2 km/h (1 Bft) S 180 ° 0 min 0,000 mm 0,0 UV-I 0 W/m² -0,2 °C 1,3 °C 6,4 km/h (2 Bft)
28.01.2018 05:55 1,3 °C 90 % 1034,7 hPa 0,0 mm 5,5 km/h (1 Bft) S-SW 199 ° 0 min 0,000 mm 0,0 UV-I 0 W/m² -0,2 °C -0,3 °C 6,4 km/h (2 Bft)
28.01.2018 05:56 1,3 °C 90 % 1034,6 hPa 0,0 mm 5,4 km/h (1 Bft) S-SW 199 ° 0 min 0,000 mm 0,0 UV-I 0 W/m² -0,2 °C -0,3 °C 6,4 km/h (2 Bft)
28.01.2018 05:57 1,3 °C 90 % 1034,7 hPa 0,0 mm 2,7 km/h (1 Bft) S-SW 199 ° 0 min 0,000 mm 0,0 UV-I 0 W/m² -0,2 °C 1,3 °C 3,2 km/h (1 Bft)
28.01.2018 05:58 1,3 °C 90 % 1034,7 hPa 0,0 mm 2,1 km/h (1 Bft) S-SW 199 ° 0 min 0,000 mm 0,0 UV-I 0 W/m² -0,2 °C 1,3 °C 3,2 km/h (1 Bft)
28.01.2018 05:59 1,3 °C 90 % 1034,7 hPa 0,0 mm 2,7 km/h (1 Bft) S-SW 199 ° 0 min 0,000 mm 0,0 UV-I 0 W/m² -0,2 °C 1,3 °C 4,8 km/h (1 Bft)
28.01.2018 06:00 1,3 °C 90 % 1034,7 hPa 0,0 mm 2,3 km/h (1 Bft) S-SW 199 ° 0 min 0,000 mm 0,0 UV-I 0 W/m² -0,2 °C 1,3 °C 4,8 km/h (1 Bft)
28.01.2018 06:01 1,3 °C 90 % 1034,7 hPa 0,0 mm 4,7 km/h (1 Bft) S-SW 199 ° 0 min 0,000 mm 0,0 UV-I 0 W/m² -0,2 °C 0,0 °C 6,4 km/h (2 Bft)
28.01.2018 06:02 1,2 °C 90 % 1034,7 hPa 0,0 mm 3,3 km/h (1 Bft) S-SW 199 ° 0 min 0,000 mm 0,0 UV-I 0 W/m² -0,3 °C 1,2 °C 4,8 km/h (1 Bft)
28.01.2018 06:03 1,2 °C 90 % 1034,7 hPa 0,0 mm 2,3 km/h (1 Bft) S-SW 199 ° 0 min 0,000 mm 0,0 UV-I 0 W/m² -0,3 °C 1,2 °C 4,8 km/h (1 Bft)
28.01.2018 06:04 1,2 °C 90 % 1034,7 hPa 0,0 mm 1,6 km/h (1 Bft) S-SW 199 ° 0 min 0,000 mm 0,0 UV-I 0 W/m² -0,3 °C 1,2 °C 3,2 km/h (1 Bft)
28.01.2018 06:05 1,2 °C 90 % 1034,7 hPa 0,0 mm 1,9 km/h (1 Bft) S-SW 199 ° 0 min 0,000 mm 0,0 UV-I 0 W/m² -0,3 °C 1,2 °C 3,2 km/h (1 Bft)
28.01.2018 06:06 1,2 °C 90 % 1034,7 hPa 0,0 mm 1,6 km/h (1 Bft) S-SW 199 ° 0 min 0,000 mm 0,0 UV-I 0 W/m² -0,3 °C 1,2 °C 1,6 km/h (1 Bft)
28.01.2018 06:07 1,1 °C 90 % 1034,6 hPa 0,0 mm 1,6 km/h (1 Bft) S-SW 202 ° 0 min 0,000 mm 0,0 UV-I 0 W/m² -0,4 °C 1,1 °C 1,6 km/h (1 Bft)
28.01.2018 06:08 1,1 °C 90 % 1034,6 hPa 0,0 mm 3,2 km/h (1 Bft) S-SW 202 ° 0 min 0,000 mm 0,0 UV-I 0 W/m² -0,4 °C 1,1 °C 6,4 km/h (2 Bft)
28.01.2018 06:09 1,1 °C 90 % 1034,6 hPa 0,0 mm 3,2 km/h (1 Bft) S-SW 202 ° 0 min 0,000 mm 0,0 UV-I 0 W/m² -0,4 °C 1,1 °C 6,4 km/h (2 Bft)
28.01.2018 06:10 1,1 °C 90 % 1034,5 hPa 0,0 mm 3,2 km/h (1 Bft) S-SW 202 ° 0 min 0,000 mm 0,0 UV-I 0 W/m² -0,4 °C 1,1 °C 6,4 km/h (2 Bft)
28.01.2018 06:11 1,1 °C 90 % 1034,5 hPa 0,0 mm 1,6 km/h (1 Bft) SW 225 ° 0 min 0,000 mm 0,0 UV-I 0 W/m² -0,4 °C 1,1 °C 3,2 km/h (1 Bft)
28.01.2018 06:12 1,1 °C 90 % 1034,5 hPa 0,0 mm 1,6 km/h (1 Bft) S-SW 202 ° 0 min 0,000 mm 0,0 UV-I 0 W/m² -0,4 °C 1,1 °C 8,0 km/h (2 Bft)
28.01.2018 06:13 1,1 °C 90 % 1034,5 hPa 0,0 mm 3,2 km/h (1 Bft) S-SW 202 ° 0 min 0,000 mm 0,0 UV-I 0 W/m² -0,4 °C 1,1 °C 4,8 km/h (1 Bft)
28.01.2018 06:15 1,1 °C 90 % 1034,5 hPa 0,0 mm 3,1 km/h (1 Bft) SW 225 ° 0 min 0,000 mm 0,0 UV-I 0 W/m² -0,4 °C 1,1 °C 6,4 km/h (2 Bft)
28.01.2018 06:16 1,2 °C 90 % 1034,5 hPa 0,0 mm 3,6 km/h (1 Bft) W-SW 238 ° 0 min 0,000 mm 0,0 UV-I 0 W/m² -0,3 °C 1,2 °C 6,4 km/h (2 Bft)
28.01.2018 06:17 1,2 °C 90 % 1034,5 hPa 0,0 mm 3,2 km/h (1 Bft) SW 226 ° 0 min 0,000 mm 0,0 UV-I 0 W/m² -0,3 °C 1,2 °C 4,8 km/h (1 Bft)
28.01.2018 06:18 1,2 °C 90 % 1034,5 hPa 0,0 mm 2,4 km/h (1 Bft) SW 226 ° 0 min 0,000 mm 0,0 UV-I 0 W/m² -0,3 °C 1,2 °C 4,8 km/h (1 Bft)
28.01.2018 06:19 1,2 °C 90 % 1034,5 hPa 0,0 mm 1,9 km/h (1 Bft) W-SW 241 ° 0 min 0,000 mm 0,0 UV-I 0 W/m² -0,3 °C 1,2 °C 4,8 km/h (1 Bft)
28.01.2018 06:20 1,2 °C 90 % 1034,5 hPa 0,0 mm 1,3 km/h (1 Bft) W-SW 241 ° 0 min 0,000 mm 0,0 UV-I 0 W/m² -0,3 °C 1,2 °C 4,8 km/h (1 Bft)
28.01.2018 06:21 1,2 °C 90 % 1034,5 hPa 0,0 mm 2,2 km/h (1 Bft) W-SW 241 ° 0 min 0,000 mm 0,0 UV-I 0 W/m² -0,3 °C 1,2 °C 3,2 km/h (1 Bft)
28.01.2018 06:22 1,2 °C 90 % 1034,5 hPa 0,0 mm 0,2 km/h (0 Bft) W-SW 241 ° 0 min 0,000 mm 0,0 UV-I 0 W/m² -0,3 °C 1,2 °C 3,2 km/h (1 Bft)
28.01.2018 06:23 1,2 °C 90 % 1034,5 hPa 0,0 mm 0,9 km/h (0 Bft) W-SW 241 ° 0 min 0,000 mm 0,0 UV-I 0 W/m² -0,3 °C 1,2 °C 3,2 km/h (1 Bft)
28.01.2018 06:24 1,1 °C 90 % 1034,5 hPa 0,0 mm 0,7 km/h (0 Bft) W-SW 241 ° 0 min 0,000 mm 0,0 UV-I 0 W/m² -0,4 °C 1,1 °C 3,2 km/h (1 Bft)
28.01.2018 06:25 1,1 °C 90 % 1034,5 hPa 0,0 mm 0,0 km/h (0 Bft) W-SW 241 ° 0 min 0,000 mm 0,0 UV-I 0 W/m² -0,4 °C 1,1 °C 0,0 km/h (0 Bft)
28.01.2018 06:26 1,1 °C 90 % 1034,5 hPa 0,0 mm 0,3 km/h (0 Bft) W-SW 241 ° 0 min 0,000 mm 0,0 UV-I 0 W/m² -0,4 °C 1,1 °C 1,6 km/h (1 Bft)
28.01.2018 06:27 1,1 °C 90 % 1034,6 hPa 0,0 mm 0,4 km/h (0 Bft) W-SW 241 ° 0 min 0,000 mm 0,0 UV-I 0 W/m² -0,4 °C 1,1 °C 1,6 km/h (1 Bft)
28.01.2018 06:28 1,1 °C 90 % 1034,6 hPa 0,0 mm 1,7 km/h (1 Bft) W-SW 242 ° 0 min 0,000 mm 0,0 UV-I 0 W/m² -0,4 °C 1,1 °C 3,2 km/h (1 Bft)
28.01.2018 06:29 1,1 °C 90 % 1034,6 hPa 0,0 mm 0,0 km/h (0 Bft) W-SW 242 ° 0 min 0,000 mm 0,0 UV-I 0 W/m² -0,4 °C 1,1 °C 0,0 km/h (0 Bft)
28.01.2018 06:30 1,1 °C 90 % 1034,6 hPa 0,0 mm 0,3 km/h (0 Bft) W-SW 240 ° 0 min 0,000 mm 0,0 UV-I 0 W/m² -0,4 °C 1,1 °C 3,2 km/h (1 Bft)
28.01.2018 06:31 1,0 °C 90 % 1034,6 hPa 0,0 mm 2,3 km/h (1 Bft) W-SW 241 ° 0 min 0,000 mm 0,0 UV-I 0 W/m² -0,5 °C 1,0 °C 4,8 km/h (1 Bft)
28.01.2018 06:32 1,0 °C 90 % 1034,7 hPa 0,0 mm 0,6 km/h (0 Bft) W-SW 241 ° 0 min 0,000 mm 0,0 UV-I 0 W/m² -0,5 °C 1,0 °C 3,2 km/h (1 Bft)
28.01.2018 06:33 0,9 °C 89 % 1034,7 hPa 0,0 mm 0,0 km/h (0 Bft) W-SW 241 ° 0 min 0,000 mm 0,0 UV-I 0 W/m² -0,7 °C 0,9 °C 0,0 km/h (0 Bft)
28.01.2018 06:34 0,9 °C 90 % 1034,7 hPa 0,0 mm 0,0 km/h (0 Bft) W-SW 241 ° 0 min 0,000 mm 0,0 UV-I 0 W/m² -0,6 °C 0,9 °C 0,0 km/h (0 Bft)
28.01.2018 06:35 0,8 °C 89 % 1034,7 hPa 0,0 mm 0,7 km/h (0 Bft) W-SW 241 ° 0 min 0,000 mm 0,0 UV-I 0 W/m² -0,8 °C 0,8 °C 3,2 km/h (1 Bft)
28.01.2018 06:36 0,8 °C 89 % 1034,7 hPa 0,0 mm 0,8 km/h (0 Bft) W-SW 241 ° 0 min 0,000 mm 0,0 UV-I 0 W/m² -0,8 °C 0,8 °C 3,2 km/h (1 Bft)
28.01.2018 06:37 0,8 °C 89 % 1034,7 hPa 0,0 mm 2,1 km/h (1 Bft) W-SW 241 ° 0 min 0,000 mm 0,0 UV-I 0 W/m² -0,8 °C 0,8 °C 3,2 km/h (1 Bft)
28.01.2018 06:38 0,8 °C 89 % 1034,7 hPa 0,0 mm 1,5 km/h (1 Bft) W-SW 241 ° 0 min 0,000 mm 0,0 UV-I 0 W/m² -0,8 °C 0,8 °C 3,2 km/h (1 Bft)
28.01.2018 06:39 0,8 °C 90 % 1034,7 hPa 0,0 mm 2,5 km/h (1 Bft) S-SW 202 ° 0 min 0,000 mm 0,0 UV-I 0 W/m² -0,6 °C 0,8 °C 3,2 km/h (1 Bft)
28.01.2018 06:40 0,8 °C 90 % 1034,7 hPa 0,0 mm 0,9 km/h (0 Bft) S-SW 202 ° 0 min 0,000 mm 0,0 UV-I 0 W/m² -0,6 °C 0,8 °C 3,2 km/h (1 Bft)
28.01.2018 06:41 0,8 °C 90 % 1034,7 hPa 0,0 mm 2,9 km/h (1 Bft) S-SW 202 ° 0 min 0,000 mm 0,0 UV-I 0 W/m² -0,6 °C 0,8 °C 4,8 km/h (1 Bft)
28.01.2018 06:42 0,8 °C 90 % 1034,7 hPa 0,0 mm 4,5 km/h (1 Bft) S-SW 208 ° 0 min 0,000 mm 0,0 UV-I 0 W/m² -0,6 °C 0,8 °C 8,0 km/h (2 Bft)
28.01.2018 06:43 0,8 °C 90 % 1034,7 hPa 0,0 mm 4,4 km/h (1 Bft) S 188 ° 0 min 0,000 mm 0,0 UV-I 0 W/m² -0,6 °C 0,8 °C 8,0 km/h (2 Bft)
28.01.2018 06:44 0,8 °C 90 % 1034,7 hPa 0,0 mm 3,5 km/h (1 Bft) S-SW 194 ° 0 min 0,000 mm 0,0 UV-I 0 W/m² -0,6 °C 0,8 °C 4,8 km/h (1 Bft)
28.01.2018 06:45 0,8 °C 90 % 1034,7 hPa 0,0 mm 3,6 km/h (1 Bft) S-SW 195 ° 0 min 0,000 mm 0,0 UV-I 0 W/m² -0,6 °C 0,8 °C 4,8 km/h (1 Bft)
28.01.2018 06:46 0,7 °C 90 % 1034,8 hPa 0,0 mm 2,5 km/h (1 Bft) S-SW 195 ° 0 min 0,000 mm 0,0 UV-I 0 W/m² -0,7 °C 0,7 °C 3,2 km/h (1 Bft)
28.01.2018 06:47 0,7 °C 90 % 1034,7 hPa 0,0 mm 0,8 km/h (0 Bft) S-SW 195 ° 0 min 0,000 mm 0,0 UV-I 0 W/m² -0,7 °C 0,7 °C 3,2 km/h (1 Bft)
28.01.2018 06:48 0,7 °C 90 % 1034,7 hPa 0,0 mm 0,6 km/h (0 Bft) S-SW 195 ° 0 min 0,000 mm 0,0 UV-I 0 W/m² -0,7 °C 0,7 °C 3,2 km/h (1 Bft)
28.01.2018 06:49 0,7 °C 90 % 1034,7 hPa 0,0 mm 0,7 km/h (0 Bft) S-SW 195 ° 0 min 0,000 mm 0,0 UV-I 0 W/m² -0,7 °C 0,7 °C 3,2 km/h (1 Bft)
28.01.2018 06:50 0,7 °C 90 % 1034,8 hPa 0,0 mm 0,7 km/h (0 Bft) S-SW 195 ° 0 min 0,000 mm 0,0 UV-I 0 W/m² -0,7 °C 0,7 °C 1,6 km/h (1 Bft)
28.01.2018 06:51 0,7 °C 90 % 1034,8 hPa 0,0 mm 0,0 km/h (0 Bft) S-SW 195 ° 0 min 0,000 mm 0,0 UV-I 0 W/m² -0,7 °C 0,7 °C 0,0 km/h (0 Bft)
28.01.2018 06:52 0,7 °C 90 % 1034,7 hPa 0,0 mm 0,0 km/h (0 Bft) S-SW 195 ° 0 min 0,000 mm 0,0 UV-I 0 W/m² -0,7 °C 0,7 °C 0,0 km/h (0 Bft)
28.01.2018 06:53 0,7 °C 90 % 1034,7 hPa 0,0 mm 0,0 km/h (0 Bft) S-SW 195 ° 0 min 0,000 mm 0,0 UV-I 0 W/m² -0,7 °C 0,7 °C 0,0 km/h (0 Bft)
28.01.2018 06:54 0,7 °C 90 % 1034,7 hPa 0,0 mm 4,5 km/h (1 Bft) S-SW 195 ° 0 min 0,000 mm 0,0 UV-I 0 W/m² -0,7 °C 0,7 °C 8,0 km/h (2 Bft)
28.01.2018 06:55 0,7 °C 90 % 1034,7 hPa 0,0 mm 3,7 km/h (1 Bft) S-SW 198 ° 0 min 0,000 mm 0,0 UV-I 0 W/m² -0,7 °C 0,7 °C 4,8 km/h (1 Bft)
28.01.2018 06:56 0,7 °C 90 % 1034,6 hPa 0,0 mm 7,0 km/h (2 Bft) S-SW 205 ° 0 min 0,000 mm 0,0 UV-I 0 W/m² -0,7 °C -1,6 °C 11,3 km/h (2 Bft)
28.01.2018 06:57 0,7 °C 91 % 1034,6 hPa 0,0 mm 5,3 km/h (1 Bft) S-SW 196 ° 0 min 0,000 mm 0,0 UV-I 0 W/m² -0,6 °C -0,9 °C 8,0 km/h (2 Bft)
28.01.2018 06:58 0,7 °C 91 % 1034,6 hPa 0,0 mm 5,2 km/h (1 Bft) S-SW 209 ° 0 min 0,000 mm 0,0 UV-I 0 W/m² -0,6 °C -0,9 °C 6,4 km/h (2 Bft)
28.01.2018 06:59 0,7 °C 91 % 1034,6 hPa 0,0 mm 6,2 km/h (2 Bft) SW 234 ° 0 min 0,000 mm 0,0 UV-I 0 W/m² -0,6 °C -1,3 °C 8,0 km/h (2 Bft)
28.01.2018 07:00 0,7 °C 91 % 1034,6 hPa 0,0 mm 4,7 km/h (1 Bft) S-SW 202 ° 0 min 0,000 mm 0,0 UV-I 0 W/m² -0,6 °C -0,7 °C 6,4 km/h (2 Bft)
28.01.2018 07:01 0,7 °C 91 % 1034,6 hPa 0,0 mm 3,5 km/h (1 Bft) S-SW 208 ° 0 min 0,000 mm 0,0 UV-I 0 W/m² -0,6 °C 0,7 °C 6,4 km/h (2 Bft)
28.01.2018 07:02 0,7 °C 91 % 1034,5 hPa 0,0 mm 5,1 km/h (1 Bft) SW 214 ° 0 min 0,000 mm 0,0 UV-I 0 W/m² -0,6 °C -0,8 °C 9,7 km/h (2 Bft)
28.01.2018 07:03 0,7 °C 91 % 1034,6 hPa 0,0 mm 5,0 km/h (1 Bft) SW 236 ° 0 min 0,000 mm 0,0 UV-I 0 W/m² -0,6 °C -0,8 °C 6,4 km/h (2 Bft)
28.01.2018 07:04 0,7 °C 91 % 1034,6 hPa 0,0 mm 4,2 km/h (1 Bft) SW 215 ° 0 min 0,000 mm 0,0 UV-I 0 W/m² -0,6 °C 0,7 °C 6,4 km/h (2 Bft)
28.01.2018 07:05 0,7 °C 91 % 1034,5 hPa 0,0 mm 5,1 km/h (1 Bft) S-SW 213 ° 0 min 0,000 mm 0,0 UV-I 0 W/m² -0,6 °C -0,8 °C 6,4 km/h (2 Bft)
28.01.2018 07:06 0,7 °C 91 % 1034,5 hPa 0,0 mm 3,8 km/h (1 Bft) SW 215 ° 0 min 0,000 mm 0,0 UV-I 0 W/m² -0,6 °C 0,7 °C 4,8 km/h (1 Bft)
28.01.2018 07:07 0,7 °C 91 % 1034,5 hPa 0,0 mm 4,3 km/h (1 Bft) SW 224 ° 0 min 0,000 mm 0,0 UV-I 0 W/m² -0,6 °C 0,7 °C 6,4 km/h (2 Bft)
28.01.2018 07:08 0,8 °C 91 % 1034,5 hPa 0,0 mm 5,6 km/h (1 Bft) SW 221 ° 0 min 0,000 mm 0,0 UV-I 0 W/m² -0,5 °C -0,9 °C 8,0 km/h (2 Bft)
28.01.2018 07:09 0,8 °C 91 % 1034,5 hPa 0,0 mm 5,2 km/h (1 Bft) S 187 ° 0 min 0,000 mm 0,0 UV-I 0 W/m² -0,5 °C -0,8 °C 6,4 km/h (2 Bft)
28.01.2018 07:10 0,8 °C 91 % 1034,5 hPa 0,0 mm 4,4 km/h (1 Bft) SW 223 ° 0 min 0,000 mm 0,0 UV-I 0 W/m² -0,5 °C 0,8 °C 6,4 km/h (2 Bft)
28.01.2018 07:11 0,8 °C 91 % 1034,4 hPa 0,0 mm 6,8 km/h (2 Bft) S 188 ° 0 min 0,000 mm 0,0 UV-I 0 W/m² -0,5 °C -1,4 °C 9,7 km/h (2 Bft)
28.01.2018 07:12 0,8 °C 91 % 1034,4 hPa 0,0 mm 3,9 km/h (1 Bft) S-SW 200 ° 0 min 0,000 mm 0,0 UV-I 0 W/m² -0,5 °C 0,8 °C 9,7 km/h (2 Bft)
28.01.2018 07:13 0,8 °C 91 % 1034,5 hPa 0,0 mm 4,4 km/h (1 Bft) SW 224 ° 0 min 0,000 mm 0,0 UV-I 0 W/m² -0,5 °C 0,8 °C 6,4 km/h (2 Bft)
28.01.2018 07:14 0,8 °C 91 % 1034,5 hPa 0,0 mm 4,4 km/h (1 Bft) S-SW 212 ° 0 min 0,000 mm 0,0 UV-I 0 W/m² -0,5 °C 0,8 °C 8,0 km/h (2 Bft)
28.01.2018 07:15 0,9 °C 91 % 1034,6 hPa 0,0 mm 5,8 km/h (2 Bft) SW 223 ° 0 min 0,000 mm 0,0 UV-I 0 W/m² -0,4 °C -0,9 °C 9,7 km/h (2 Bft)
28.01.2018 07:16 0,9 °C 91 % 1034,6 hPa 0,0 mm 4,0 km/h (1 Bft) W-SW 238 ° 0 min 0,000 mm 0,0 UV-I 0 W/m² -0,4 °C 0,9 °C 6,4 km/h (2 Bft)
28.01.2018 07:17 0,9 °C 91 % 1034,7 hPa 0,0 mm 3,2 km/h (1 Bft) SW 217 ° 0 min 0,000 mm 0,0 UV-I 0 W/m² -0,4 °C 0,9 °C 4,8 km/h (1 Bft)
28.01.2018 07:18 0,9 °C 91 % 1034,7 hPa 0,0 mm 3,8 km/h (1 Bft) S-SW 211 ° 0 min 0,000 mm 0,0 UV-I 0 W/m² -0,4 °C 0,9 °C 4,8 km/h (1 Bft)
28.01.2018 07:19 0,9 °C 91 % 1034,7 hPa 0,0 mm 5,2 km/h (1 Bft) S-SW 207 ° 0 min 0,000 mm 0,0 UV-I 0 W/m² -0,4 °C -0,7 °C 6,4 km/h (2 Bft)
28.01.2018 07:20 1,0 °C 91 % 1034,7 hPa 0,0 mm 3,2 km/h (1 Bft) S-SW 207 ° 0 min 0,000 mm 0,0 UV-I 0 W/m² -0,3 °C 1,0 °C 4,8 km/h (1 Bft)
28.01.2018 07:21 1,0 °C 91 % 1034,7 hPa 0,0 mm 5,5 km/h (1 Bft) S-SW 207 ° 0 min 0,000 mm 0,0 UV-I 0 W/m² -0,3 °C -0,7 °C 8,0 km/h (2 Bft)
28.01.2018 07:22 1,1 °C 91 % 1034,6 hPa 0,0 mm 5,5 km/h (1 Bft) S-SW 200 ° 0 min 0,000 mm 0,0 UV-I 0 W/m² -0,2 °C -0,6 °C 9,7 km/h (2 Bft)
28.01.2018 07:23 1,1 °C 91 % 1034,7 hPa 0,0 mm 6,5 km/h (2 Bft) S-SW 197 ° 0 min 0,000 mm 0,0 UV-I 0 W/m² -0,2 °C -0,9 °C 9,7 km/h (2 Bft)
28.01.2018 07:24 1,1 °C 91 % 1034,6 hPa 0,0 mm 7,0 km/h (2 Bft) S-SW 209 ° 0 min 0,000 mm 0,0 UV-I 0 W/m² -0,2 °C -1,1 °C 9,7 km/h (2 Bft)
28.01.2018 07:25 1,2 °C 91 % 1034,6 hPa 0,0 mm 6,5 km/h (2 Bft) S 186 ° 0 min 0,000 mm 0,0 UV-I 0 W/m² -0,1 °C -0,8 °C 9,7 km/h (2 Bft)
28.01.2018 07:26 1,2 °C 91 % 1034,6 hPa 0,0 mm 6,4 km/h (2 Bft) S 185 ° 0 min 0,000 mm 0,0 UV-I 0 W/m² -0,1 °C -0,8 °C 9,7 km/h (2 Bft)
28.01.2018 07:27 1,3 °C 91 % 1034,6 hPa 0,0 mm 7,0 km/h (2 Bft) S-SW 208 ° 0 min 0,000 mm 0,0 UV-I 0 W/m² -0,0 °C -0,9 °C 12,9 km/h (3 Bft)
28.01.2018 07:28 1,3 °C 90 % 1034,6 hPa 0,0 mm 6,2 km/h (2 Bft) S-SW 211 ° 0 min 0,000 mm 0,0 UV-I 0 W/m² -0,2 °C -0,6 °C 8,0 km/h (2 Bft)
28.01.2018 07:29 1,3 °C 91 % 1034,6 hPa 0,0 mm 7,3 km/h (2 Bft) S-SW 194 ° 0 min 0,000 mm 0,0 UV-I 0 W/m² -0,0 °C -1,0 °C 9,7 km/h (2 Bft)
28.01.2018 07:30 1,3 °C 91 % 1034,6 hPa 0,0 mm 9,7 km/h (2 Bft) S-SW 209 ° 0 min 0,000 mm 0,0 UV-I 0 W/m² -0,0 °C -1,7 °C 12,9 km/h (3 Bft)
28.01.2018 07:31 1,4 °C 90 % 1034,6 hPa 0,0 mm 6,3 km/h (2 Bft) S-SO 166 ° 0 min 0,000 mm 0,0 UV-I 0 W/m² -0,1 °C -0,5 °C 9,7 km/h (2 Bft)
28.01.2018 07:32 1,4 °C 90 % 1034,5 hPa 0,0 mm 4,8 km/h (1 Bft) S-SW 198 ° 0 min 0,000 mm 0,0 UV-I 0 W/m² -0,1 °C 0,1 °C 9,7 km/h (2 Bft)
28.01.2018 07:33 1,4 °C 90 % 1034,5 hPa 0,0 mm 6,0 km/h (2 Bft) S 189 ° 0 min 0,000 mm 0,0 UV-I 0 W/m² -0,1 °C -0,4 °C 8,0 km/h (2 Bft)
28.01.2018 07:34 1,4 °C 90 % 1034,5 hPa 0,0 mm 4,8 km/h (1 Bft) S 183 ° 0 min 0,000 mm 0,0 UV-I 0 W/m² -0,1 °C 0,1 °C 8,0 km/h (2 Bft)
28.01.2018 07:35 1,4 °C 90 % 1034,5 hPa 0,0 mm 4,4 km/h (1 Bft) S-SW 207 ° 0 min 0,000 mm 0,0 UV-I 0 W/m² -0,1 °C 1,4 °C 6,4 km/h (2 Bft)
28.01.2018 07:36 1,5 °C 90 % 1034,5 hPa 0,0 mm 4,8 km/h (1 Bft) S-SW 198 ° 0 min 0,000 mm 0,0 UV-I 0 W/m² 0,0 °C 0,2 °C 6,4 km/h (2 Bft)
28.01.2018 07:37 1,5 °C 90 % 1034,6 hPa 0,0 mm 6,3 km/h (2 Bft) S-SW 196 ° 0 min 0,000 mm 0,0 UV-I 0 W/m² 0,0 °C -0,4 °C 12,9 km/h (3 Bft)
28.01.2018 07:38 1,5 °C 90 % 1034,5 hPa 0,0 mm 4,8 km/h (1 Bft) SW 221 ° 0 min 0,000 mm 0,0 UV-I 0 W/m² 0,0 °C 0,2 °C 8,0 km/h (2 Bft)
28.01.2018 07:39 1,6 °C 89 % 1034,5 hPa 0,0 mm 6,1 km/h (2 Bft) S-SW 207 ° 0 min 0,000 mm 0,0 UV-I 0 W/m² -0,0 °C -0,2 °C 11,3 km/h (2 Bft)
28.01.2018 07:40 1,6 °C 89 % 1034,5 hPa 0,0 mm 6,2 km/h (2 Bft) SW 216 ° 0 min 0,000 mm 0,0 UV-I 0 W/m² -0,0 °C -0,3 °C 9,7 km/h (2 Bft)
28.01.2018 07:41 1,6 °C 89 % 1034,5 hPa 0,0 mm 5,9 km/h (2 Bft) S-SW 205 ° 0 min 0,000 mm 0,0 UV-I 0 W/m² -0,0 °C -0,1 °C 9,7 km/h (2 Bft)
28.01.2018 07:42 1,7 °C 89 % 1034,6 hPa 0,0 mm 6,4 km/h (2 Bft) SW 215 ° 0 min 0,000 mm 0,0 UV-I 0 W/m² 0,1 °C -0,2 °C 9,7 km/h (2 Bft)
28.01.2018 07:43 1,7 °C 89 % 1034,5 hPa 0,0 mm 8,9 km/h (2 Bft) SW 216 ° 0 min 0,000 mm 0,0 UV-I 0 W/m² 0,1 °C -1,0 °C 12,9 km/h (3 Bft)
28.01.2018 07:44 1,7 °C 89 % 1034,6 hPa 0,0 mm 3,4 km/h (1 Bft) S-SW 201 ° 0 min 0,000 mm 0,0 UV-I 0 W/m² 0,1 °C 1,7 °C 8,0 km/h (2 Bft)
28.01.2018 07:45 1,8 °C 89 % 1034,6 hPa 0,0 mm 5,7 km/h (1 Bft) SW 218 ° 0 min 0,000 mm 0,0 UV-I 0 W/m² 0,2 °C 0,2 °C 8,0 km/h (2 Bft)
28.01.2018 07:46 1,8 °C 89 % 1034,6 hPa 0,0 mm 5,0 km/h (1 Bft) S 191 ° 0 min 0,000 mm 0,0 UV-I 0 W/m² 0,2 °C 0,5 °C 8,0 km/h (2 Bft)
28.01.2018 07:47 1,8 °C 89 % 1034,6 hPa 0,0 mm 6,1 km/h (2 Bft) S 184 ° 0 min 0,000 mm 0,0 UV-I 0 W/m² 0,2 °C 0,0 °C 9,7 km/h (2 Bft)
28.01.2018 07:48 1,9 °C 88 % 1034,6 hPa 0,0 mm 6,4 km/h (2 Bft) S-SW 207 ° 0 min 0,000 mm 0,0 UV-I 5 W/m² 0,1 °C 0,0 °C 9,7 km/h (2 Bft)
28.01.2018 07:49 1,9 °C 88 % 1034,7 hPa 0,0 mm 5,4 km/h (1 Bft) S-SW 200 ° 0 min 0,000 mm 0,0 UV-I 5 W/m² 0,1 °C 0,4 °C 8,0 km/h (2 Bft)
28.01.2018 07:50 1,9 °C 88 % 1034,6 hPa 0,0 mm 3,6 km/h (1 Bft) SW 232 ° 0 min 0,000 mm 0,0 UV-I 7 W/m² 0,1 °C 1,9 °C 4,8 km/h (1 Bft)
28.01.2018 07:51 2,0 °C 88 % 1034,6 hPa 0,0 mm 3,4 km/h (1 Bft) SW 222 ° 0 min 0,000 mm 0,0 UV-I 7 W/m² 0,2 °C 2,0 °C 4,8 km/h (1 Bft)
28.01.2018 07:52 2,0 °C 88 % 1034,6 hPa 0,0 mm 1,3 km/h (1 Bft) SW 222 ° 0 min 0,000 mm 0,0 UV-I 5 W/m² 0,2 °C 2,0 °C 3,2 km/h (1 Bft)
28.01.2018 07:53 2,0 °C 87 % 1034,6 hPa 0,0 mm 2,4 km/h (1 Bft) SW 225 ° 0 min 0,000 mm 0,0 UV-I 5 W/m² 0,1 °C 2,0 °C 4,8 km/h (1 Bft)
28.01.2018 07:54 2,1 °C 87 % 1034,6 hPa 0,0 mm 4,6 km/h (1 Bft) S-SW 204 ° 0 min 0,000 mm 0,0 UV-I 5 W/m² 0,2 °C 1,0 °C 9,7 km/h (2 Bft)
28.01.2018 07:55 2,1 °C 87 % 1034,6 hPa 0,0 mm 6,7 km/h (2 Bft) S-SW 209 ° 0 min 0,000 mm 0,0 UV-I 5 W/m² 0,2 °C 0,1 °C 9,7 km/h (2 Bft)
28.01.2018 07:56 2,1 °C 87 % 1034,6 hPa 0,0 mm 4,8 km/h (1 Bft) S-SW 209 ° 0 min 0,000 mm 0,0 UV-I 5 W/m² 0,2 °C 0,9 °C 6,4 km/h (2 Bft)
28.01.2018 07:57 2,1 °C 87 % 1034,6 hPa 0,0 mm 8,0 km/h (2 Bft) S-SW 202 ° 0 min 0,000 mm 0,0 UV-I 5 W/m² 0,2 °C -0,3 °C 9,7 km/h (2 Bft)
28.01.2018 07:58 2,1 °C 87 % 1034,6 hPa 0,0 mm 8,0 km/h (2 Bft) S-SW 202 ° 0 min 0,000 mm 0,0 UV-I 5 W/m² 0,2 °C -0,3 °C 11,3 km/h (2 Bft)
28.01.2018 07:59 2,1 °C 87 % 1034,6 hPa 0,0 mm 8,0 km/h (2 Bft) S-SW 202 ° 0 min 0,000 mm 0,0 UV-I 7 W/m² 0,2 °C -0,3 °C 9,7 km/h (2 Bft)
28.01.2018 08:00 2,2 °C 86 % 1034,6 hPa 0,0 mm 8,0 km/h (2 Bft) S-SW 202 ° 0 min 0,000 mm 0,0 UV-I 7 W/m² 0,1 °C -0,2 °C 9,7 km/h (2 Bft)
28.01.2018 08:01 2,2 °C 86 % 1034,6 hPa 0,0 mm 8,0 km/h (2 Bft) S-SW 202 ° 0 min 0,000 mm 0,0 UV-I 7 W/m² 0,1 °C -0,2 °C 12,9 km/h (3 Bft)
28.01.2018 08:02 2,2 °C 86 % 1034,6 hPa 0,0 mm 8,0 km/h (2 Bft) S-SW 202 ° 0 min 0,000 mm 0,0 UV-I 9 W/m² 0,1 °C -0,2 °C 11,3 km/h (2 Bft)
28.01.2018 08:03 2,2 °C 86 % 1034,7 hPa 0,0 mm 8,0 km/h (2 Bft) S-SW 202 ° 0 min 0,000 mm 0,0 UV-I 11 W/m² 0,1 °C -0,2 °C 11,3 km/h (2 Bft)
28.01.2018 08:05 2,2 °C 86 % 1034,7 hPa 0,0 mm 8,4 km/h (2 Bft) S-SW 209 ° 0 min 0,000 mm 0,0 UV-I 11 W/m² 0,1 °C -0,3 °C 11,3 km/h (2 Bft)
28.01.2018 08:06 2,2 °C 86 % 1034,7 hPa 0,0 mm 8,6 km/h (2 Bft) S-SW 194 ° 0 min 0,000 mm 0,0 UV-I 12 W/m² 0,1 °C -0,3 °C 12,9 km/h (3 Bft)
28.01.2018 08:07 2,2 °C 86 % 1034,7 hPa 0,0 mm 10,2 km/h (2 Bft) S 190 ° 0 min 0,000 mm 0,0 UV-I 12 W/m² 0,1 °C -0,7 °C 14,5 km/h (3 Bft)
28.01.2018 08:08 2,2 °C 86 % 1034,7 hPa 0,0 mm 9,2 km/h (2 Bft) SW 219 ° 0 min 0,000 mm 0,0 UV-I 12 W/m² 0,1 °C -0,5 °C 11,3 km/h (2 Bft)
28.01.2018 08:09 2,2 °C 86 % 1034,8 hPa 0,0 mm 6,8 km/h (2 Bft) S-SW 194 ° 0 min 0,000 mm 0,0 UV-I 12 W/m² 0,1 °C 0,2 °C 9,7 km/h (2 Bft)
28.01.2018 08:10 2,3 °C 85 % 1034,8 hPa 0,0 mm 8,2 km/h (2 Bft) S 191 ° 0 min 0,000 mm 0,0 UV-I 14 W/m² 0,0 °C -0,1 °C 9,7 km/h (2 Bft)
28.01.2018 08:11 2,3 °C 86 % 1034,7 hPa 0,0 mm 7,7 km/h (2 Bft) S 186 ° 0 min 0,000 mm 0,0 UV-I 14 W/m² 0,2 °C 0,1 °C 11,3 km/h (2 Bft)
28.01.2018 08:12 2,3 °C 86 % 1034,8 hPa 0,0 mm 7,1 km/h (2 Bft) S-SW 202 ° 0 min 0,000 mm 0,0 UV-I 16 W/m² 0,2 °C 0,2 °C 9,7 km/h (2 Bft)
28.01.2018 08:13 2,3 °C 85 % 1034,8 hPa 0,0 mm 8,0 km/h (2 Bft) SW 216 ° 0 min 0,000 mm 0,0 UV-I 16 W/m² 0,0 °C -0,0 °C 11,3 km/h (2 Bft)
28.01.2018 08:14 2,3 °C 85 % 1034,8 hPa 0,0 mm 5,8 km/h (2 Bft) S-SW 205 ° 0 min 0,000 mm 0,0 UV-I 16 W/m² 0,0 °C 0,7 °C 8,0 km/h (2 Bft)
28.01.2018 08:15 2,3 °C 85 % 1034,8 hPa 0,0 mm 4,3 km/h (1 Bft) SW 217 ° 0 min 0,000 mm 0,0 UV-I 16 W/m² 0,0 °C 2,3 °C 6,4 km/h (2 Bft)
28.01.2018 08:16 2,3 °C 85 % 1034,9 hPa 0,0 mm 4,4 km/h (1 Bft) SW 218 ° 0 min 0,000 mm 0,0 UV-I 18 W/m² 0,0 °C 2,3 °C 6,4 km/h (2 Bft)
28.01.2018 08:17 2,3 °C 85 % 1034,9 hPa 0,0 mm 4,4 km/h (1 Bft) S-SW 206 ° 0 min 0,000 mm 0,0 UV-I 18 W/m² 0,0 °C 2,3 °C 8,0 km/h (2 Bft)
28.01.2018 08:18 2,4 °C 85 % 1034,9 hPa 0,0 mm 5,9 km/h (2 Bft) W-SW 242 ° 0 min 0,000 mm 0,0 UV-I 18 W/m² 0,1 °C 0,8 °C 9,7 km/h (2 Bft)
28.01.2018 08:19 2,4 °C 85 % 1034,9 hPa 0,0 mm 5,0 km/h (1 Bft) SW 234 ° 0 min 0,000 mm 0,0 UV-I 19 W/m² 0,1 °C 1,1 °C 8,0 km/h (2 Bft)
28.01.2018 08:20 2,4 °C 85 % 1034,9 hPa 0,0 mm 4,5 km/h (1 Bft) S-SW 200 ° 0 min 0,000 mm 0,0 UV-I 21 W/m² 0,1 °C 2,4 °C 6,4 km/h (2 Bft)
28.01.2018 08:21 2,4 °C 85 % 1034,9 hPa 0,0 mm 6,4 km/h (2 Bft) S-SW 212 ° 0 min 0,000 mm 0,0 UV-I 21 W/m² 0,1 °C 0,6 °C 6,4 km/h (2 Bft)
28.01.2018 08:22 2,4 °C 85 % 1034,9 hPa 0,0 mm 6,4 km/h (2 Bft) S-SW 202 ° 0 min 0,000 mm 0,0 UV-I 21 W/m² 0,1 °C 0,6 °C 8,0 km/h (2 Bft)
28.01.2018 08:23 2,4 °C 85 % 1034,9 hPa 0,0 mm 8,0 km/h (2 Bft) S-SW 202 ° 0 min 0,000 mm 0,0 UV-I 21 W/m² 0,1 °C 0,1 °C 9,7 km/h (2 Bft)
28.01.2018 08:24 2,4 °C 85 % 1034,9 hPa 0,0 mm 6,4 km/h (2 Bft) S-SW 202 ° 0 min 0,000 mm 0,0 UV-I 21 W/m² 0,1 °C 0,6 °C 11,3 km/h (2 Bft)
28.01.2018 08:25 2,4 °C 85 % 1035,0 hPa 0,0 mm 4,8 km/h (1 Bft) S-SW 202 ° 0 min 0,000 mm 0,0 UV-I 23 W/m² 0,1 °C 1,2 °C 8,0 km/h (2 Bft)
28.01.2018 08:26 2,5 °C 85 % 1035,0 hPa 0,0 mm 4,8 km/h (1 Bft) S-SW 202 ° 0 min 0,000 mm 0,0 UV-I 23 W/m² 0,2 °C 1,3 °C 8,0 km/h (2 Bft)
28.01.2018 08:27 2,5 °C 85 % 1035,0 hPa 0,0 mm 8,0 km/h (2 Bft) S 180 ° 0 min 0,000 mm 0,0 UV-I 23 W/m² 0,2 °C 0,2 °C 9,7 km/h (2 Bft)
28.01.2018 08:28 2,5 °C 85 % 1035,0 hPa 0,0 mm 9,7 km/h (2 Bft) S-SW 202 ° 0 min 0,000 mm 0,0 UV-I 23 W/m² 0,2 °C -0,3 °C 11,3 km/h (2 Bft)
28.01.2018 08:30 2,6 °C 85 % 1035,0 hPa 0,0 mm 5,4 km/h (1 Bft) SW 220 ° 0 min 0,000 mm 0,0 UV-I 23 W/m² 0,3 °C 1,2 °C 8,0 km/h (2 Bft)
28.01.2018 08:32 2,6 °C 85 % 1035,0 hPa 0,0 mm 3,9 km/h (1 Bft) S-SW 202 ° 0 min 0,000 mm 0,0 UV-I 23 W/m² 0,3 °C 2,6 °C 6,4 km/h (2 Bft)
28.01.2018 08:33 2,6 °C 85 % 1035,0 hPa 0,0 mm 3,4 km/h (1 Bft) SW 231 ° 0 min 0,000 mm 0,0 UV-I 23 W/m² 0,3 °C 2,6 °C 6,4 km/h (2 Bft)
28.01.2018 08:34 2,6 °C 85 % 1035,2 hPa 0,0 mm 2,9 km/h (1 Bft) SW 231 ° 0 min 0,000 mm 0,0 UV-I 23 W/m² 0,3 °C 2,6 °C 4,8 km/h (1 Bft)
28.01.2018 08:35 2,6 °C 84 % 1035,2 hPa 0,0 mm 3,3 km/h (1 Bft) SW 233 ° 0 min 0,000 mm 0,0 UV-I 23 W/m² 0,2 °C 2,6 °C 4,8 km/h (1 Bft)
28.01.2018 08:36 2,6 °C 84 % 1035,3 hPa 0,0 mm 3,6 km/h (1 Bft) SW 233 ° 0 min 0,000 mm 0,0 UV-I 23 W/m² 0,2 °C 2,6 °C 4,8 km/h (1 Bft)
28.01.2018 08:37 2,6 °C 84 % 1035,2 hPa 0,0 mm 3,6 km/h (1 Bft) S-SW 200 ° 0 min 0,000 mm 0,0 UV-I 23 W/m² 0,2 °C 2,6 °C 4,8 km/h (1 Bft)
28.01.2018 08:38 2,6 °C 84 % 1035,3 hPa 0,0 mm 3,7 km/h (1 Bft) SW 221 ° 0 min 0,000 mm 0,0 UV-I 25 W/m² 0,2 °C 2,6 °C 6,4 km/h (2 Bft)
28.01.2018 08:39 2,6 °C 84 % 1035,2 hPa 0,0 mm 2,6 km/h (1 Bft) SW 221 ° 0 min 0,000 mm 0,0 UV-I 25 W/m² 0,2 °C 2,6 °C 3,2 km/h (1 Bft)
28.01.2018 08:40 2,6 °C 84 % 1035,2 hPa 0,0 mm 3,6 km/h (1 Bft) S-SW 209 ° 0 min 0,000 mm 0,0 UV-I 26 W/m² 0,2 °C 2,6 °C 4,8 km/h (1 Bft)
28.01.2018 08:41 2,7 °C 84 % 1035,2 hPa 0,0 mm 6,4 km/h (2 Bft) S-SW 199 ° 0 min 0,000 mm 0,0 UV-I 26 W/m² 0,3 °C 0,9 °C 8,0 km/h (2 Bft)
28.01.2018 08:42 2,7 °C 84 % 1035,3 hPa 0,0 mm 3,6 km/h (1 Bft) S-SW 209 ° 0 min 0,000 mm 0,0 UV-I 28 W/m² 0,3 °C 2,7 °C 6,4 km/h (2 Bft)
28.01.2018 08:43 2,7 °C 84 % 1035,2 hPa 0,0 mm 3,6 km/h (1 Bft) SW 226 ° 0 min 0,000 mm 0,0 UV-I 28 W/m² 0,3 °C 2,7 °C 4,8 km/h (1 Bft)
28.01.2018 08:44 2,7 °C 85 % 1035,2 hPa 0,0 mm 5,0 km/h (1 Bft) S-SW 210 ° 0 min 0,000 mm 0,0 UV-I 32 W/m² 0,4 °C 1,5 °C 9,7 km/h (2 Bft)
28.01.2018 08:45 2,7 °C 85 % 1035,3 hPa 0,0 mm 5,4 km/h (1 Bft) S-SW 209 ° 0 min 0,000 mm 0,0 UV-I 32 W/m² 0,4 °C 1,3 °C 6,4 km/h (2 Bft)
28.01.2018 08:46 2,7 °C 85 % 1035,3 hPa 0,0 mm 6,6 km/h (2 Bft) S-SW 205 ° 0 min 0,000 mm 0,0 UV-I 33 W/m² 0,4 °C 0,9 °C 8,0 km/h (2 Bft)
28.01.2018 08:47 2,7 °C 85 % 1035,2 hPa 0,0 mm 5,9 km/h (2 Bft) S-SW 205 ° 0 min 0,000 mm 0,0 UV-I 33 W/m² 0,4 °C 1,1 °C 9,7 km/h (2 Bft)
28.01.2018 08:48 2,7 °C 84 % 1035,2 hPa 0,0 mm 6,0 km/h (2 Bft) SW 217 ° 0 min 0,000 mm 0,0 UV-I 33 W/m² 0,3 °C 1,1 °C 8,0 km/h (2 Bft)
28.01.2018 08:49 2,7 °C 84 % 1035,1 hPa 0,0 mm 4,7 km/h (1 Bft) W-SW 242 ° 0 min 0,000 mm 0,0 UV-I 35 W/m² 0,3 °C 1,6 °C 6,4 km/h (2 Bft)
28.01.2018 08:50 2,7 °C 84 % 1035,2 hPa 0,0 mm 5,3 km/h (1 Bft) S-SW 209 ° 0 min 0,000 mm 0,0 UV-I 35 W/m² 0,3 °C 1,3 °C 6,4 km/h (2 Bft)
28.01.2018 08:51 2,8 °C 84 % 1035,2 hPa 0,0 mm 4,0 km/h (1 Bft) S-SW 209 ° 0 min 0,000 mm 0,0 UV-I 35 W/m² 0,4 °C 2,8 °C 4,8 km/h (1 Bft)
28.01.2018 08:52 2,8 °C 84 % 1035,2 hPa 0,0 mm 3,2 km/h (1 Bft) S-SW 202 ° 0 min 0,000 mm 0,0 UV-I 35 W/m² 0,4 °C 2,8 °C 9,7 km/h (2 Bft)
28.01.2018 08:53 2,8 °C 84 % 1035,1 hPa 0,0 mm 4,8 km/h (1 Bft) S-SW 202 ° 0 min 0,000 mm 0,0 UV-I 37 W/m² 0,4 °C 1,7 °C 8,0 km/h (2 Bft)
28.01.2018 08:54 2,8 °C 84 % 1035,2 hPa 0,0 mm 3,2 km/h (1 Bft) SW 225 ° 0 min 0,000 mm 0,0 UV-I 37 W/m² 0,4 °C 2,8 °C 6,4 km/h (2 Bft)
28.01.2018 08:55 2,8 °C 84 % 1035,2 hPa 0,0 mm 3,2 km/h (1 Bft) SW 225 ° 0 min 0,000 mm 0,0 UV-I 35 W/m² 0,4 °C 2,8 °C 6,4 km/h (2 Bft)
28.01.2018 08:56 2,8 °C 84 % 1035,2 hPa 0,0 mm 4,8 km/h (1 Bft) S-SW 202 ° 0 min 0,000 mm 0,0 UV-I 35 W/m² 0,4 °C 1,7 °C 8,0 km/h (2 Bft)
28.01.2018 08:57 2,9 °C 84 % 1035,2 hPa 0,0 mm 8,0 km/h (2 Bft) S-SW 202 ° 0 min 0,000 mm 0,0 UV-I 35 W/m² 0,5 °C 0,7 °C 9,7 km/h (2 Bft)
28.01.2018 08:58 2,9 °C 84 % 1035,2 hPa 0,0 mm 3,2 km/h (1 Bft) S-SW 202 ° 0 min 0,000 mm 0,0 UV-I 35 W/m² 0,5 °C 2,9 °C 8,0 km/h (2 Bft)
28.01.2018 09:00 2,9 °C 84 % 1035,2 hPa 0,0 mm 7,0 km/h (2 Bft) W-SW 246 ° 0 min 0,025 mm 0,0 UV-I 35 W/m² 0,5 °C 1,0 °C 9,7 km/h (2 Bft)
28.01.2018 09:02 2,9 °C 84 % 1035,2 hPa 0,0 mm 4,8 km/h (1 Bft) SW 234 ° 0 min 0,000 mm 0,0 UV-I 40 W/m² 0,5 °C 1,8 °C 8,0 km/h (2 Bft)
28.01.2018 09:03 3,0 °C 84 % 1035,2 hPa 0,0 mm 5,9 km/h (2 Bft) W 262 ° 0 min 0,000 mm 0,0 UV-I 42 W/m² 0,6 °C 1,5 °C 11,3 km/h (2 Bft)
28.01.2018 09:04 3,1 °C 84 % 1035,1 hPa 0,0 mm 6,1 km/h (2 Bft) SW 227 ° 0 min 0,000 mm 0,0 UV-I 42 W/m² 0,7 °C 1,5 °C 11,3 km/h (2 Bft)
28.01.2018 09:05 3,1 °C 84 % 1035,1 hPa 0,0 mm 4,8 km/h (1 Bft) SW 218 ° 0 min 0,000 mm 0,0 UV-I 44 W/m² 0,7 °C 2,0 °C 9,7 km/h (2 Bft)
28.01.2018 09:06 3,1 °C 84 % 1035,1 hPa 0,0 mm 2,9 km/h (1 Bft) W-SW 248 ° 0 min 0,000 mm 0,0 UV-I 46 W/m² 0,7 °C 3,1 °C 4,8 km/h (1 Bft)
28.01.2018 09:07 3,1 °C 83 % 1035,1 hPa 0,0 mm 3,7 km/h (1 Bft) SW 223 ° 0 min 0,000 mm 0,0 UV-I 47 W/m² 0,5 °C 3,1 °C 6,4 km/h (2 Bft)
28.01.2018 09:08 3,1 °C 83 % 1035,0 hPa 0,0 mm 2,0 km/h (1 Bft) SW 234 ° 0 min 0,000 mm 0,0 UV-I 47 W/m² 0,5 °C 3,1 °C 3,2 km/h (1 Bft)
28.01.2018 09:09 3,1 °C 83 % 1035,0 hPa 0,0 mm 3,2 km/h (1 Bft) W-SW 253 ° 0 min 0,000 mm 0,0 UV-I 49 W/m² 0,5 °C 3,1 °C 4,8 km/h (1 Bft)
28.01.2018 09:10 3,2 °C 83 % 1035,0 hPa 0,0 mm 3,4 km/h (1 Bft) W-SW 257 ° 0 min 0,000 mm 0,0 UV-I 49 W/m² 0,6 °C 3,2 °C 4,8 km/h (1 Bft)
28.01.2018 09:11 3,2 °C 83 % 1035,0 hPa 0,0 mm 2,4 km/h (1 Bft) W-SW 257 ° 0 min 0,000 mm 0,0 UV-I 49 W/m² 0,6 °C 3,2 °C 4,8 km/h (1 Bft)
28.01.2018 09:12 3,2 °C 83 % 1035,1 hPa 0,0 mm 5,4 km/h (1 Bft) W-SW 244 ° 0 min 0,000 mm 0,0 UV-I 51 W/m² 0,6 °C 1,9 °C 6,4 km/h (2 Bft)
28.01.2018 09:13 3,2 °C 83 % 1035,1 hPa 0,0 mm 4,2 km/h (1 Bft) W 261 ° 0 min 0,000 mm 0,0 UV-I 53 W/m² 0,6 °C 3,2 °C 6,4 km/h (2 Bft)
28.01.2018 09:14 3,2 °C 83 % 1035,1 hPa 0,0 mm 2,9 km/h (1 Bft) W-SW 243 ° 0 min 0,000 mm 0,0 UV-I 53 W/m² 0,6 °C 3,2 °C 4,8 km/h (1 Bft)
28.01.2018 09:15 3,2 °C 83 % 1035,1 hPa 0,0 mm 1,5 km/h (1 Bft) W-SW 243 ° 0 min 0,000 mm 0,0 UV-I 54 W/m² 0,6 °C 3,2 °C 3,2 km/h (1 Bft)
28.01.2018 09:16 3,2 °C 83 % 1035,1 hPa 0,0 mm 4,8 km/h (1 Bft) SW 224 ° 0 min 0,000 mm 0,0 UV-I 54 W/m² 0,6 °C 2,1 °C 4,8 km/h (1 Bft)
28.01.2018 09:17 3,3 °C 83 % 1035,1 hPa 0,0 mm 1,6 km/h (1 Bft) SW 225 ° 0 min 0,000 mm 0,0 UV-I 56 W/m² 0,7 °C 3,3 °C 3,2 km/h (1 Bft)
28.01.2018 09:18 3,3 °C 83 % 1035,1 hPa 0,0 mm 3,2 km/h (1 Bft) SW 225 ° 0 min 0,000 mm 0,0 UV-I 56 W/m² 0,7 °C 3,3 °C 6,4 km/h (2 Bft)
28.01.2018 09:19 3,3 °C 83 % 1035,1 hPa 0,0 mm 3,2 km/h (1 Bft) S-SW 202 ° 0 min 0,000 mm 0,0 UV-I 58 W/m² 0,7 °C 3,3 °C 4,8 km/h (1 Bft)
28.01.2018 09:20 3,3 °C 82 % 1035,1 hPa 0,0 mm 1,6 km/h (1 Bft) SW 225 ° 0 min 0,000 mm 0,0 UV-I 58 W/m² 0,5 °C 3,3 °C 3,2 km/h (1 Bft)
28.01.2018 09:21 3,3 °C 82 % 1035,1 hPa 0,0 mm 1,6 km/h (1 Bft) SW 225 ° 0 min 0,000 mm 0,0 UV-I 60 W/m² 0,5 °C 3,3 °C 4,8 km/h (1 Bft)
28.01.2018 09:22 3,3 °C 82 % 1035,1 hPa 0,0 mm 1,6 km/h (1 Bft) S-SW 202 ° 0 min 0,000 mm 0,0 UV-I 60 W/m² 0,5 °C 3,3 °C 4,8 km/h (1 Bft)
28.01.2018 09:23 3,3 °C 82 % 1035,1 hPa 0,0 mm 1,6 km/h (1 Bft) S-SW 202 ° 0 min 0,000 mm 0,0 UV-I 62 W/m² 0,5 °C 3,3 °C 3,2 km/h (1 Bft)
28.01.2018 09:25 3,4 °C 82 % 1035,1 hPa 0,0 mm 4,1 km/h (1 Bft) S-SW 206 ° 0 min 0,000 mm 0,5 UV-I 65 W/m² 0,6 °C 3,4 °C 6,4 km/h (2 Bft)
28.01.2018 09:27 3,5 °C 82 % 1035,0 hPa 0,0 mm 2,5 km/h (1 Bft) S-SW 209 ° 0 min 0,000 mm 0,5 UV-I 65 W/m² 0,7 °C 3,5 °C 4,8 km/h (1 Bft)
28.01.2018 09:28 3,5 °C 82 % 1035,0 hPa 0,0 mm 1,9 km/h (1 Bft) S-SW 209 ° 0 min 0,000 mm 0,5 UV-I 65 W/m² 0,7 °C 3,5 °C 3,2 km/h (1 Bft)
28.01.2018 09:29 3,5 °C 82 % 1035,0 hPa 0,0 mm 3,0 km/h (1 Bft) S-SW 209 ° 0 min 0,000 mm 0,5 UV-I 65 W/m² 0,7 °C 3,5 °C 4,8 km/h (1 Bft)
28.01.2018 09:30 3,5 °C 82 % 1035,0 hPa 0,0 mm 1,0 km/h (0 Bft) S-SW 209 ° 0 min 0,000 mm 0,5 UV-I 67 W/m² 0,7 °C 3,5 °C 1,6 km/h (1 Bft)
28.01.2018 09:31 3,6 °C 82 % 1035,0 hPa 0,0 mm 1,3 km/h (1 Bft) S-SW 209 ° 0 min 0,000 mm 0,5 UV-I 69 W/m² 0,8 °C 3,6 °C 3,2 km/h (1 Bft)
28.01.2018 09:32 3,6 °C 82 % 1035,0 hPa 0,0 mm 0,9 km/h (0 Bft) SW 217 ° 0 min 0,000 mm 0,5 UV-I 69 W/m² 0,8 °C 3,6 °C 3,2 km/h (1 Bft)
28.01.2018 09:33 3,6 °C 82 % 1035,0 hPa 0,0 mm 3,0 km/h (1 Bft) S 171 ° 0 min 0,000 mm 0,5 UV-I 69 W/m² 0,8 °C 3,6 °C 6,4 km/h (2 Bft)
28.01.2018 09:34 3,6 °C 82 % 1035,0 hPa 0,0 mm 3,1 km/h (1 Bft) S-SW 200 ° 0 min 0,000 mm 0,5 UV-I 67 W/m² 0,8 °C 3,6 °C 4,8 km/h (1 Bft)
28.01.2018 09:35 3,6 °C 82 % 1035,1 hPa 0,0 mm 0,5 km/h (0 Bft) S-SW 200 ° 0 min 0,000 mm 0,5 UV-I 67 W/m² 0,8 °C 3,6 °C 3,2 km/h (1 Bft)
28.01.2018 09:36 3,6 °C 81 % 1035,1 hPa 0,0 mm 0,2 km/h (0 Bft) S-SW 200 ° 0 min 0,000 mm 0,5 UV-I 69 W/m² 0,7 °C 3,6 °C 1,6 km/h (1 Bft)
28.01.2018 09:37 3,6 °C 81 % 1035,1 hPa 0,0 mm 0,0 km/h (0 Bft) S-SW 200 ° 0 min 0,000 mm 0,5 UV-I 69 W/m² 0,7 °C 3,6 °C 0,0 km/h (0 Bft)
28.01.2018 09:38 3,6 °C 82 % 1035,1 hPa 0,0 mm 0,0 km/h (0 Bft) S-SW 200 ° 0 min 0,000 mm 0,5 UV-I 70 W/m² 0,8 °C 3,6 °C 0,0 km/h (0 Bft)
28.01.2018 09:39 3,7 °C 82 % 1035,1 hPa 0,0 mm 0,0 km/h (0 Bft) S-SW 200 ° 0 min 0,000 mm 0,5 UV-I 70 W/m² 0,9 °C 3,7 °C 0,0 km/h (0 Bft)
28.01.2018 09:40 3,7 °C 82 % 1035,2 hPa 0,0 mm 0,0 km/h (0 Bft) S-SW 200 ° 0 min 0,000 mm 0,5 UV-I 70 W/m² 0,9 °C 3,7 °C 0,0 km/h (0 Bft)
28.01.2018 09:41 3,7 °C 82 % 1035,2 hPa 0,0 mm 0,0 km/h (0 Bft) S-SW 200 ° 0 min 0,000 mm 0,5 UV-I 72 W/m² 0,9 °C 3,7 °C 0,0 km/h (0 Bft)
28.01.2018 09:42 3,7 °C 82 % 1035,2 hPa 0,0 mm 0,0 km/h (0 Bft) S-SW 200 ° 0 min 0,000 mm 0,5 UV-I 72 W/m² 0,9 °C 3,7 °C 0,0 km/h (0 Bft)
28.01.2018 09:43 3,7 °C 82 % 1035,1 hPa 0,0 mm 0,0 km/h (0 Bft) S-SW 200 ° 0 min 0,000 mm 0,5 UV-I 72 W/m² 0,9 °C 3,7 °C 0,0 km/h (0 Bft)
28.01.2018 09:44 3,7 °C 82 % 1035,1 hPa 0,0 mm 0,0 km/h (0 Bft) S-SW 200 ° 0 min 0,000 mm 0,5 UV-I 72 W/m² 0,9 °C 3,7 °C 0,0 km/h (0 Bft)
28.01.2018 09:45 3,7 °C 82 % 1035,1 hPa 0,0 mm 0,0 km/h (0 Bft) S-SW 200 ° 0 min 0,000 mm 0,5 UV-I 74 W/m² 0,9 °C 3,7 °C 0,0 km/h (0 Bft)
28.01.2018 09:47 3,8 °C 82 % 1035,2 hPa 0,0 mm 0,0 km/h (0 Bft) S-SW 200 ° 0 min 0,000 mm 0,6 UV-I 74 W/m² 1,0 °C 3,8 °C 0,0 km/h (0 Bft)
28.01.2018 09:48 3,7 °C 82 % 1035,2 hPa 0,0 mm 0,0 km/h (0 Bft) S-SW 200 ° 0 min 0,000 mm 0,6 UV-I 72 W/m² 0,9 °C 3,7 °C 0,0 km/h (0 Bft)
28.01.2018 09:49 3,8 °C 82 % 1035,2 hPa 0,0 mm 0,0 km/h (0 Bft) S-SW 200 ° 0 min 0,000 mm 0,6 UV-I 72 W/m² 1,0 °C 3,8 °C 0,0 km/h (0 Bft)
28.01.2018 09:50 3,8 °C 82 % 1035,1 hPa 0,0 mm 0,0 km/h (0 Bft) S-SW 200 ° 0 min 0,000 mm 0,6 UV-I 70 W/m² 1,0 °C 3,8 °C 0,0 km/h (0 Bft)
28.01.2018 09:51 3,8 °C 82 % 1035,2 hPa 0,0 mm 0,0 km/h (0 Bft) S-SW 200 ° 0 min 0,000 mm 0,6 UV-I 70 W/m² 1,0 °C 3,8 °C 0,0 km/h (0 Bft)
28.01.2018 09:52 3,8 °C 82 % 1035,1 hPa 0,0 mm 0,0 km/h (0 Bft) S-SW 200 ° 0 min 0,000 mm 0,6 UV-I 72 W/m² 1,0 °C 3,8 °C 0,0 km/h (0 Bft)
28.01.2018 09:53 3,8 °C 82 % 1035,1 hPa 0,0 mm 0,0 km/h (0 Bft) S-SW 200 ° 0 min 0,000 mm 0,6 UV-I 72 W/m² 1,0 °C 3,8 °C 0,0 km/h (0 Bft)
28.01.2018 09:54 3,8 °C 82 % 1035,2 hPa 0,0 mm 0,0 km/h (0 Bft) S-SW 200 ° 0 min 0,000 mm 0,6 UV-I 72 W/m² 1,0 °C 3,8 °C 0,0 km/h (0 Bft)
28.01.2018 09:55 3,8 °C 82 % 1035,2 hPa 0,0 mm 0,0 km/h (0 Bft) S-SW 200 ° 0 min 0,000 mm 0,6 UV-I 70 W/m² 1,0 °C 3,8 °C 0,0 km/h (0 Bft)
28.01.2018 09:56 3,8 °C 82 % 1035,2 hPa 0,0 mm 0,0 km/h (0 Bft) S-SW 200 ° 0 min 0,000 mm 0,6 UV-I 69 W/m² 1,0 °C 3,8 °C 0,0 km/h (0 Bft)
28.01.2018 09:57 3,8 °C 82 % 1035,3 hPa 0,0 mm 0,0 km/h (0 Bft) S-SW 200 ° 0 min 0,000 mm 0,6 UV-I 69 W/m² 1,0 °C 3,8 °C 0,0 km/h (0 Bft)
28.01.2018 09:58 3,8 °C 82 % 1035,2 hPa 0,0 mm 0,0 km/h (0 Bft) S-SW 200 ° 0 min 0,000 mm 0,6 UV-I 69 W/m² 1,0 °C 3,8 °C 0,0 km/h (0 Bft)
28.01.2018 09:59 3,8 °C 82 % 1035,3 hPa 0,0 mm 0,0 km/h (0 Bft) S-SW 200 ° 0 min 0,000 mm 0,6 UV-I 70 W/m² 1,0 °C 3,8 °C 0,0 km/h (0 Bft)
28.01.2018 10:00 3,8 °C 82 % 1035,3 hPa 0,0 mm 0,0 km/h (0 Bft) S-SW 200 ° 0 min 0,026 mm 0,6 UV-I 72 W/m² 1,0 °C 3,8 °C 0,0 km/h (0 Bft)
28.01.2018 10:01 3,9 °C 82 % 1035,2 hPa 0,0 mm 0,0 km/h (0 Bft) S-SW 200 ° 0 min 0,000 mm 0,6 UV-I 74 W/m² 1,1 °C 3,9 °C 0,0 km/h (0 Bft)
28.01.2018 10:02 3,9 °C 82 % 1035,3 hPa 0,0 mm 0,0 km/h (0 Bft) S-SW 200 ° 0 min 0,000 mm 0,6 UV-I 76 W/m² 1,1 °C 3,9 °C 0,0 km/h (0 Bft)
28.01.2018 10:03 3,9 °C 82 % 1035,3 hPa 0,0 mm 0,0 km/h (0 Bft) S-SW 200 ° 0 min 0,000 mm 0,6 UV-I 77 W/m² 1,1 °C 3,9 °C 0,0 km/h (0 Bft)
28.01.2018 10:04 3,9 °C 82 % 1035,3 hPa 0,0 mm 0,0 km/h (0 Bft) S-SW 200 ° 0 min 0,000 mm 0,6 UV-I 79 W/m² 1,1 °C 3,9 °C 0,0 km/h (0 Bft)
28.01.2018 10:05 3,9 °C 82 % 1035,3 hPa 0,0 mm 0,0 km/h (0 Bft) S-SW 200 ° 0 min 0,000 mm 0,6 UV-I 81 W/m² 1,1 °C 3,9 °C 0,0 km/h (0 Bft)
28.01.2018 10:06 3,9 °C 82 % 1035,3 hPa 0,0 mm 0,0 km/h (0 Bft) S-SW 200 ° 0 min 0,000 mm 0,6 UV-I 81 W/m² 1,1 °C 3,9 °C 0,0 km/h (0 Bft)
28.01.2018 10:07 3,9 °C 82 % 1035,4 hPa 0,0 mm 0,0 km/h (0 Bft) S-SW 200 ° 0 min 0,000 mm 0,6 UV-I 83 W/m² 1,1 °C 3,9 °C 0,0 km/h (0 Bft)
28.01.2018 10:08 3,9 °C 82 % 1035,4 hPa 0,0 mm 0,0 km/h (0 Bft) S-SW 200 ° 0 min 0,000 mm 0,6 UV-I 83 W/m² 1,1 °C 3,9 °C 0,0 km/h (0 Bft)
28.01.2018 10:09 3,9 °C 82 % 1035,4 hPa 0,0 mm 0,0 km/h (0 Bft) S-SW 200 ° 0 min 0,000 mm 0,6 UV-I 83 W/m² 1,1 °C 3,9 °C 0,0 km/h (0 Bft)
28.01.2018 10:10 4,0 °C 82 % 1035,4 hPa 0,0 mm 0,0 km/h (0 Bft) S-SW 200 ° 0 min 0,000 mm 0,6 UV-I 84 W/m² 1,2 °C 4,0 °C 0,0 km/h (0 Bft)
28.01.2018 10:11 3,9 °C 82 % 1035,4 hPa 0,0 mm 0,0 km/h (0 Bft) S-SW 200 ° 0 min 0,000 mm 0,6 UV-I 86 W/m² 1,1 °C 3,9 °C 0,0 km/h (0 Bft)
28.01.2018 10:12 4,0 °C 82 % 1035,5 hPa 0,0 mm 0,0 km/h (0 Bft) S-SW 200 ° 0 min 0,000 mm 0,6 UV-I 88 W/m² 1,2 °C 4,0 °C 0,0 km/h (0 Bft)
28.01.2018 10:13 4,0 °C 82 % 1035,5 hPa 0,0 mm 0,0 km/h (0 Bft) S-SW 200 ° 0 min 0,000 mm 0,6 UV-I 90 W/m² 1,2 °C 4,0 °C 0,0 km/h (0 Bft)
28.01.2018 10:14 4,0 °C 82 % 1035,5 hPa 0,0 mm 0,0 km/h (0 Bft) S-SW 200 ° 0 min 0,000 mm 0,7 UV-I 91 W/m² 1,2 °C 4,0 °C 0,0 km/h (0 Bft)
28.01.2018 10:15 4,0 °C 82 % 1035,5 hPa 0,0 mm 0,0 km/h (0 Bft) S-SW 200 ° 0 min 0,000 mm 0,7 UV-I 95 W/m² 1,2 °C 4,0 °C 0,0 km/h (0 Bft)
28.01.2018 10:16 4,0 °C 82 % 1035,5 hPa 0,0 mm 0,0 km/h (0 Bft) S-SW 200 ° 0 min 0,000 mm 0,7 UV-I 95 W/m² 1,2 °C 4,0 °C 0,0 km/h (0 Bft)
28.01.2018 10:17 3,9 °C 81 % 1035,4 hPa 0,0 mm 0,0 km/h (0 Bft) N 0 ° 0 min 0,000 mm 0,7 UV-I 105 W/m² 0,9 °C 3,9 °C 0,0 km/h (0 Bft)
28.01.2018 10:18 3,9 °C 82 % 1035,4 hPa 0,0 mm 0,0 km/h (0 Bft) N 0 ° 0 min 0,000 mm 0,8 UV-I 109 W/m² 1,1 °C 3,9 °C 0,0 km/h (0 Bft)
28.01.2018 10:19 3,8 °C 83 % 1035,4 hPa 0,0 mm 0,0 km/h (0 Bft) N 0 ° 0 min 0,000 mm 0,8 UV-I 114 W/m² 1,2 °C 3,8 °C 0,0 km/h (0 Bft)
28.01.2018 10:20 3,8 °C 83 % 1035,4 hPa 0,0 mm 0,0 km/h (0 Bft) N 0 ° 0 min 0,000 mm 0,8 UV-I 118 W/m² 1,2 °C 3,8 °C 0,0 km/h (0 Bft)
28.01.2018 10:21 3,7 °C 83 % 1035,4 hPa 0,0 mm 0,0 km/h (0 Bft) N 0 ° 0 min 0,000 mm 0,8 UV-I 120 W/m² 1,1 °C 3,7 °C 0,0 km/h (0 Bft)
28.01.2018 10:22 3,8 °C 83 % 1035,4 hPa 0,0 mm 0,0 km/h (0 Bft) N 0 ° 0 min 0,000 mm 0,8 UV-I 123 W/m² 1,2 °C 3,8 °C 0,0 km/h (0 Bft)
28.01.2018 10:23 3,8 °C 83 % 1035,4 hPa 0,0 mm 0,0 km/h (0 Bft) N 0 ° 0 min 0,000 mm 0,8 UV-I 125 W/m² 1,2 °C 3,8 °C 0,0 km/h (0 Bft)
28.01.2018 10:24 3,7 °C 83 % 1035,4 hPa 0,0 mm 0,0 km/h (0 Bft) N 0 ° 0 min 0,000 mm 0,8 UV-I 125 W/m² 1,1 °C 3,7 °C 0,0 km/h (0 Bft)
28.01.2018 10:26 3,7 °C 83 % 1035,4 hPa 0,0 mm 0,3 km/h (0 Bft) S-SW 200 ° 0 min 0,000 mm 0,8 UV-I 123 W/m² 1,1 °C 3,7 °C 1,6 km/h (1 Bft)
28.01.2018 10:27 3,7 °C 83 % 1035,4 hPa 0,0 mm 0,0 km/h (0 Bft) S-SW 200 ° 0 min 0,000 mm 0,8 UV-I 121 W/m² 1,1 °C 3,7 °C 0,0 km/h (0 Bft)
28.01.2018 10:28 3,9 °C 83 % 1035,4 hPa 0,0 mm 0,3 km/h (0 Bft) S-SW 200 ° 0 min 0,000 mm 0,8 UV-I 121 W/m² 1,3 °C 3,9 °C 1,6 km/h (1 Bft)
28.01.2018 10:29 3,9 °C 83 % 1035,5 hPa 0,0 mm 0,3 km/h (0 Bft) S-SW 200 ° 0 min 0,000 mm 0,9 UV-I 121 W/m² 1,3 °C 3,9 °C 1,6 km/h (1 Bft)
28.01.2018 10:30 3,9 °C 83 % 1035,4 hPa 0,0 mm 0,3 km/h (0 Bft) S-SW 200 ° 0 min 0,000 mm 0,9 UV-I 121 W/m² 1,3 °C 3,9 °C 1,6 km/h (1 Bft)
28.01.2018 10:31 3,9 °C 83 % 1035,4 hPa 0,0 mm 1,7 km/h (1 Bft) W-SW 258 ° 0 min 0,000 mm 0,9 UV-I 123 W/m² 1,3 °C 3,9 °C 6,4 km/h (2 Bft)
28.01.2018 10:32 3,9 °C 82 % 1035,4 hPa 0,0 mm 8,5 km/h (2 Bft) W-NW 283 ° 0 min 0,000 mm 0,9 UV-I 125 W/m² 1,1 °C 1,7 °C 12,9 km/h (3 Bft)
28.01.2018 10:33 4,2 °C 81 % 1035,4 hPa 0,0 mm 5,4 km/h (1 Bft) W 261 ° 0 min 0,000 mm 0,9 UV-I 127 W/m² 1,2 °C 3,0 °C 6,4 km/h (2 Bft)
28.01.2018 10:34 4,5 °C 80 % 1035,4 hPa 0,0 mm 7,2 km/h (2 Bft) W-SW 244 ° 0 min 0,000 mm 0,9 UV-I 130 W/m² 1,4 °C 2,8 °C 11,3 km/h (2 Bft)
28.01.2018 10:35 4,9 °C 78 % 1035,4 hPa 0,0 mm 11,0 km/h (2 Bft) W-NW 284 ° 0 min 0,000 mm 1,0 UV-I 137 W/m² 1,4 °C 2,3 °C 16,1 km/h (3 Bft)
28.01.2018 10:36 5,2 °C 77 % 1035,3 hPa 0,0 mm 10,6 km/h (2 Bft) W 259 ° 0 min 0,000 mm 1,0 UV-I 141 W/m² 1,5 °C 2,8 °C 12,9 km/h (3 Bft)
28.01.2018 10:37 5,4 °C 76 % 1035,3 hPa 0,0 mm 8,0 km/h (2 Bft) W-NW 284 ° 0 min 0,000 mm 1,0 UV-I 144 W/m² 1,5 °C 3,6 °C 12,9 km/h (3 Bft)
28.01.2018 10:38 5,5 °C 75 % 1035,4 hPa 0,0 mm 6,6 km/h (2 Bft) W-SW 256 ° 0 min 0,000 mm 1,0 UV-I 148 W/m² 1,4 °C 4,1 °C 9,7 km/h (2 Bft)
28.01.2018 10:39 5,6 °C 74 % 1035,4 hPa 0,0 mm 7,8 km/h (2 Bft) W 262 ° 0 min 0,000 mm 1,0 UV-I 148 W/m² 1,3 °C 3,9 °C 12,9 km/h (3 Bft)
28.01.2018 10:40 5,7 °C 74 % 1035,4 hPa 0,0 mm 8,2 km/h (2 Bft) W 269 ° 0 min 0,000 mm 1,0 UV-I 144 W/m² 1,4 °C 3,9 °C 14,5 km/h (3 Bft)
28.01.2018 10:41 5,7 °C 74 % 1035,4 hPa 0,0 mm 7,0 km/h (2 Bft) W 272 ° 0 min 0,000 mm 1,0 UV-I 141 W/m² 1,4 °C 4,2 °C 9,7 km/h (2 Bft)
28.01.2018 10:42 5,8 °C 74 % 1035,4 hPa 0,0 mm 8,4 km/h (2 Bft) W 263 ° 0 min 0,000 mm 1,0 UV-I 137 W/m² 1,5 °C 4,0 °C 11,3 km/h (2 Bft)
28.01.2018 10:43 5,7 °C 74 % 1035,4 hPa 0,0 mm 8,6 km/h (2 Bft) W-SW 256 ° 0 min 0,000 mm 1,0 UV-I 134 W/m² 1,4 °C 3,8 °C 11,3 km/h (2 Bft)
28.01.2018 10:44 5,8 °C 74 % 1035,5 hPa 0,0 mm 8,9 km/h (2 Bft) W-SW 257 ° 0 min 0,000 mm 1,1 UV-I 134 W/m² 1,5 °C 3,9 °C 11,3 km/h (2 Bft)
28.01.2018 10:45 5,8 °C 74 % 1035,5 hPa 0,0 mm 7,2 km/h (2 Bft) W 271 ° 0 min 0,000 mm 1,1 UV-I 137 W/m² 1,5 °C 4,3 °C 9,7 km/h (2 Bft)
28.01.2018 10:46 5,8 °C 74 % 1035,5 hPa 0,0 mm 9,7 km/h (2 Bft) W 270 ° 0 min 0,000 mm 1,1 UV-I 137 W/m² 1,5 °C 3,7 °C 9,7 km/h (2 Bft)
28.01.2018 10:47 5,8 °C 74 % 1035,6 hPa 0,0 mm 9,7 km/h (2 Bft) W 270 ° 0 min 0,000 mm 1,2 UV-I 165 W/m² 1,5 °C 3,7 °C 12,9 km/h (3 Bft)
28.01.2018 10:48 5,9 °C 73 % 1035,5 hPa 0,0 mm 8,0 km/h (2 Bft) W 270 ° 0 min 0,000 mm 1,2 UV-I 172 W/m² 1,4 °C 4,2 °C 11,3 km/h (2 Bft)
28.01.2018 10:49 6,0 °C 73 % 1035,5 hPa 0,0 mm 11,3 km/h (2 Bft) W-SW 247 ° 0 min 0,000 mm 1,2 UV-I 172 W/m² 1,5 °C 3,6 °C 14,5 km/h (3 Bft)
28.01.2018 10:50 6,1 °C 73 % 1035,6 hPa 0,0 mm 9,7 km/h (2 Bft) W 270 ° 0 min 0,000 mm 1,2 UV-I 171 W/m² 1,6 °C 4,0 °C 12,9 km/h (3 Bft)
28.01.2018 10:51 6,1 °C 73 % 1035,6 hPa 0,0 mm 11,3 km/h (2 Bft) W 270 ° 0 min 0,000 mm 1,2 UV-I 169 W/m² 1,6 °C 3,7 °C 14,5 km/h (3 Bft)
28.01.2018 10:52 6,2 °C 73 % 1035,5 hPa 0,0 mm 11,3 km/h (2 Bft) W 270 ° 0 min 0,000 mm 1,2 UV-I 172 W/m² 1,7 °C 3,8 °C 16,1 km/h (3 Bft)
28.01.2018 10:53 6,2 °C 72 % 1035,5 hPa 0,0 mm 9,7 km/h (2 Bft) W 270 ° 0 min 0,000 mm 1,2 UV-I 176 W/m² 1,5 °C 4,2 °C 12,9 km/h (3 Bft)
28.01.2018 10:54 6,3 °C 72 % 1035,5 hPa 0,0 mm 8,0 km/h (2 Bft) W 270 ° 0 min 0,000 mm 1,2 UV-I 179 W/m² 1,6 °C 4,7 °C 11,3 km/h (2 Bft)
28.01.2018 10:56 6,6 °C 71 % 1035,5 hPa 0,0 mm 6,4 km/h (2 Bft) W 264 ° 0 min 0,000 mm 1,2 UV-I 179 W/m² 1,7 °C 5,4 °C 9,7 km/h (2 Bft)
28.01.2018 10:57 6,6 °C 71 % 1035,6 hPa 0,0 mm 8,7 km/h (2 Bft) W 269 ° 0 min 0,000 mm 1,2 UV-I 181 W/m² 1,7 °C 4,8 °C 17,7 km/h (3 Bft)
28.01.2018 10:58 6,7 °C 71 % 1035,5 hPa 0,0 mm 10,1 km/h (2 Bft) W-SW 243 ° 0 min 0,000 mm 1,2 UV-I 186 W/m² 1,8 °C 4,7 °C 14,5 km/h (3 Bft)
28.01.2018 10:59 6,8 °C 70 % 1035,5 hPa 0,0 mm 5,1 km/h (1 Bft) W-SW 241 ° 0 min 0,000 mm 1,2 UV-I 190 W/m² 1,7 °C 6,1 °C 8,0 km/h (2 Bft)
28.01.2018 11:00 6,8 °C 70 % 1035,5 hPa 0,0 mm 6,5 km/h (2 Bft) W-SW 244 ° 0 min 0,051 mm 1,2 UV-I 188 W/m² 1,7 °C 5,6 °C 12,9 km/h (3 Bft)
28.01.2018 11:01 6,9 °C 69 % 1035,5 hPa 0,0 mm 5,6 km/h (1 Bft) W-SW 256 ° 0 min 0,000 mm 1,2 UV-I 183 W/m² 1,6 °C 6,0 °C 9,7 km/h (2 Bft)
28.01.2018 11:02 6,9 °C 69 % 1035,5 hPa 0,0 mm 10,6 km/h (2 Bft) W-NW 298 ° 0 min 0,000 mm 1,2 UV-I 174 W/m² 1,6 °C 4,8 °C 17,7 km/h (3 Bft)
28.01.2018 11:03 6,9 °C 70 % 1035,5 hPa 0,0 mm 9,0 km/h (2 Bft) W-SW 251 ° 0 min 0,000 mm 1,2 UV-I 162 W/m² 1,8 °C 5,1 °C 11,3 km/h (2 Bft)
28.01.2018 11:04 6,9 °C 69 % 1035,5 hPa 0,0 mm 10,9 km/h (2 Bft) W 260 ° 0 min 0,000 mm 1,2 UV-I 142 W/m² 1,6 °C 4,8 °C 16,1 km/h (3 Bft)
28.01.2018 11:05 6,9 °C 69 % 1035,5 hPa 0,0 mm 5,8 km/h (2 Bft) W 266 ° 0 min 0,000 mm 1,2 UV-I 139 W/m² 1,6 °C 6,0 °C 9,7 km/h (2 Bft)
28.01.2018 11:06 6,9 °C 70 % 1035,6 hPa 0,0 mm 7,5 km/h (2 Bft) W-SW 253 ° 0 min 0,000 mm 1,2 UV-I 137 W/m² 1,8 °C 5,5 °C 11,3 km/h (2 Bft)
28.01.2018 11:07 6,9 °C 69 % 1035,7 hPa 0,0 mm 4,7 km/h (1 Bft) W-SW 257 ° 0 min 0,000 mm 1,2 UV-I 141 W/m² 1,6 °C 6,3 °C 9,7 km/h (2 Bft)
28.01.2018 11:08 6,9 °C 69 % 1035,6 hPa 0,0 mm 10,5 km/h (2 Bft) W 262 ° 0 min 0,000 mm 1,2 UV-I 148 W/m² 1,6 °C 4,8 °C 16,1 km/h (3 Bft)
28.01.2018 11:09 6,9 °C 69 % 1035,6 hPa 0,0 mm 4,5 km/h (1 Bft) W 267 ° 0 min 0,000 mm 1,3 UV-I 158 W/m² 1,6 °C 6,9 °C 9,7 km/h (2 Bft)
28.01.2018 11:10 7,1 °C 68 % 1035,7 hPa 0,0 mm 8,9 km/h (2 Bft) W 271 ° 0 min 0,000 mm 1,3 UV-I 193 W/m² 1,6 °C 5,4 °C 16,1 km/h (3 Bft)
28.01.2018 11:11 7,1 °C 68 % 1035,6 hPa 0,0 mm 8,0 km/h (2 Bft) W 265 ° 0 min 0,000 mm 1,4 UV-I 211 W/m² 1,6 °C 5,6 °C 14,5 km/h (3 Bft)
28.01.2018 11:12 7,1 °C 68 % 1035,6 hPa 0,0 mm 8,5 km/h (2 Bft) W 271 ° 0 min 0,000 mm 1,4 UV-I 221 W/m² 1,6 °C 5,5 °C 14,5 km/h (3 Bft)
28.01.2018 11:13 7,2 °C 68 % 1035,7 hPa 0,0 mm 9,9 km/h (2 Bft) NW 309 ° 0 min 0,000 mm 1,4 UV-I 223 W/m² 1,7 °C 5,3 °C 12,9 km/h (3 Bft)
28.01.2018 11:14 7,2 °C 68 % 1035,7 hPa 0,0 mm 7,0 km/h (2 Bft) W 269 ° 0 min 0,000 mm 1,4 UV-I 218 W/m² 1,7 °C 6,0 °C 11,3 km/h (2 Bft)
28.01.2018 11:15 7,3 °C 68 % 1035,7 hPa 0,0 mm 5,6 km/h (1 Bft) W 269 ° 0 min 0,000 mm 1,4 UV-I 211 W/m² 1,8 °C 6,5 °C 9,7 km/h (2 Bft)
28.01.2018 11:16 7,3 °C 68 % 1035,7 hPa 0,0 mm 5,0 km/h (1 Bft) W 269 ° 0 min 0,000 mm 1,4 UV-I 209 W/m² 1,8 °C 6,7 °C 6,4 km/h (2 Bft)
28.01.2018 11:17 7,3 °C 67 % 1035,7 hPa 0,0 mm 6,5 km/h (2 Bft) W-NW 287 ° 0 min 0,000 mm 1,4 UV-I 206 W/m² 1,6 °C 6,2 °C 9,7 km/h (2 Bft)
28.01.2018 11:18 7,3 °C 67 % 1035,7 hPa 0,0 mm 5,2 km/h (1 Bft) W 269 ° 0 min 0,000 mm 1,3 UV-I 202 W/m² 1,6 °C 6,6 °C 6,4 km/h (2 Bft)
28.01.2018 11:19 7,3 °C 68 % 1035,7 hPa 0,0 mm 7,2 km/h (2 Bft) W 273 ° 0 min 0,000 mm 1,3 UV-I 202 W/m² 1,8 °C 6,0 °C 11,3 km/h (2 Bft)
28.01.2018 11:20 7,2 °C 68 % 1035,8 hPa 0,0 mm 7,4 km/h (2 Bft) W-SW 258 ° 0 min 0,000 mm 1,3 UV-I 204 W/m² 1,7 °C 5,9 °C 11,3 km/h (2 Bft)
28.01.2018 11:21 7,2 °C 68 % 1035,7 hPa 0,0 mm 7,6 km/h (2 Bft) W 281 ° 0 min 0,000 mm 1,3 UV-I 211 W/m² 1,7 °C 5,8 °C 11,3 km/h (2 Bft)
28.01.2018 11:22 7,2 °C 68 % 1035,8 hPa 0,0 mm 5,6 km/h (1 Bft) W-SW 255 ° 0 min 0,000 mm 1,4 UV-I 214 W/m² 1,7 °C 6,4 °C 8,0 km/h (2 Bft)
28.01.2018 11:23 7,3 °C 68 % 1035,8 hPa 0,0 mm 4,1 km/h (1 Bft) W 279 ° 0 min 0,000 mm 1,4 UV-I 218 W/m² 1,8 °C 7,3 °C 6,4 km/h (2 Bft)
28.01.2018 11:24 7,3 °C 68 % 1035,8 hPa 0,0 mm 4,7 km/h (1 Bft) W-SW 252 ° 0 min 0,000 mm 1,4 UV-I 223 W/m² 1,8 °C 6,8 °C 6,4 km/h (2 Bft)
28.01.2018 11:25 7,4 °C 67 % 1035,7 hPa 0,0 mm 13,4 km/h (3 Bft) W-NW 292 ° 0 min 0,000 mm 1,4 UV-I 227 W/m² 1,7 °C 4,9 °C 19,3 km/h (3 Bft)
28.01.2018 11:26 7,6 °C 66 % 1035,8 hPa 0,0 mm 7,9 km/h (2 Bft) W 277 ° 0 min 0,000 mm 1,4 UV-I 227 W/m² 1,7 °C 6,2 °C 11,3 km/h (2 Bft)
28.01.2018 11:27 7,7 °C 66 % 1035,7 hPa 0,0 mm 8,9 km/h (2 Bft) W 271 ° 0 min 0,000 mm 1,4 UV-I 225 W/m² 1,8 °C 6,1 °C 12,9 km/h (3 Bft)
28.01.2018 11:28 7,7 °C 66 % 1035,7 hPa 0,0 mm 7,6 km/h (2 Bft) W 273 ° 0 min 0,000 mm 1,4 UV-I 229 W/m² 1,8 °C 6,4 °C 11,3 km/h (2 Bft)
28.01.2018 11:29 7,7 °C 66 % 1035,8 hPa 0,0 mm 9,8 km/h (2 Bft) W 271 ° 0 min 0,000 mm 1,4 UV-I 234 W/m² 1,8 °C 5,9 °C 14,5 km/h (3 Bft)
28.01.2018 11:30 7,7 °C 66 % 1035,8 hPa 0,0 mm 6,3 km/h (2 Bft) W-NW 295 ° 0 min 0,000 mm 1,4 UV-I 237 W/m² 1,8 °C 6,7 °C 11,3 km/h (2 Bft)
28.01.2018 11:31 7,8 °C 66 % 1035,7 hPa 0,0 mm 5,3 km/h (1 Bft) W 267 ° 0 min 0,000 mm 1,4 UV-I 239 W/m² 1,9 °C 7,2 °C 9,7 km/h (2 Bft)
28.01.2018 11:32 7,8 °C 66 % 1035,7 hPa 0,0 mm 6,4 km/h (2 Bft) W 267 ° 0 min 0,000 mm 1,4 UV-I 236 W/m² 1,9 °C 6,8 °C 9,7 km/h (2 Bft)
28.01.2018 11:33 7,8 °C 66 % 1035,7 hPa 0,0 mm 9,1 km/h (2 Bft) W-SW 254 ° 0 min 0,000 mm 1,4 UV-I 223 W/m² 1,9 °C 6,2 °C 12,9 km/h (3 Bft)
28.01.2018 11:34 7,8 °C 66 % 1035,7 hPa 0,0 mm 5,9 km/h (2 Bft) SW 220 ° 0 min 0,000 mm 1,4 UV-I 218 W/m² 1,9 °C 7,0 °C 11,3 km/h (2 Bft)
28.01.2018 11:35 7,9 °C 66 % 1035,7 hPa 0,0 mm 7,7 km/h (2 Bft) W 278 ° 0 min 0,000 mm 1,4 UV-I 216 W/m² 1,9 °C 6,6 °C 12,9 km/h (3 Bft)
28.01.2018 11:36 7,9 °C 66 % 1035,6 hPa 0,0 mm 6,5 km/h (2 Bft) W 272 ° 0 min 0,000 mm 1,4 UV-I 214 W/m² 1,9 °C 6,9 °C 11,3 km/h (2 Bft)
28.01.2018 11:37 7,9 °C 66 % 1035,6 hPa 0,0 mm 9,0 km/h (2 Bft) W-SW 244 ° 0 min 0,000 mm 1,4 UV-I 213 W/m² 1,9 °C 6,3 °C 11,3 km/h (2 Bft)
28.01.2018 11:38 7,9 °C 65 % 1035,7 hPa 0,0 mm 9,0 km/h (2 Bft) W 271 ° 0 min 0,000 mm 1,4 UV-I 213 W/m² 1,7 °C 6,3 °C 16,1 km/h (3 Bft)
28.01.2018 11:39 7,9 °C 65 % 1035,5 hPa 0,0 mm 9,4 km/h (2 Bft) W 261 ° 0 min 0,000 mm 1,5 UV-I 218 W/m² 1,7 °C 6,2 °C 12,9 km/h (3 Bft)
28.01.2018 11:40 8,0 °C 66 % 1035,6 hPa 0,0 mm 11,6 km/h (2 Bft) W-SW 239 ° 0 min 0,000 mm 1,5 UV-I 220 W/m² 2,0 °C 6,0 °C 16,1 km/h (3 Bft)
28.01.2018 11:41 8,1 °C 65 % 1035,6 hPa 0,0 mm 5,2 km/h (1 Bft) W 272 ° 0 min 0,000 mm 1,5 UV-I 221 W/m² 1,9 °C 7,5 °C 9,7 km/h (2 Bft)
28.01.2018 11:42 8,2 °C 64 % 1035,5 hPa 0,0 mm 7,1 km/h (2 Bft) W-SW 254 ° 0 min 0,000 mm 1,5 UV-I 223 W/m² 1,8 °C 7,1 °C 11,3 km/h (2 Bft)
28.01.2018 11:43 8,2 °C 66 % 1035,6 hPa 0,0 mm 7,3 km/h (2 Bft) W 261 ° 0 min 0,000 mm 1,5 UV-I 225 W/m² 2,2 °C 7,1 °C 9,7 km/h (2 Bft)
28.01.2018 11:44 8,2 °C 64 % 1035,5 hPa 0,0 mm 10,1 km/h (2 Bft) W 267 ° 0 min 0,000 mm 1,5 UV-I 229 W/m² 1,8 °C 6,5 °C 17,7 km/h (3 Bft)
28.01.2018 11:45 8,1 °C 65 % 1035,5 hPa 0,0 mm 8,9 km/h (2 Bft) W-SW 250 ° 0 min 0,000 mm 1,5 UV-I 227 W/m² 1,9 °C 6,6 °C 14,5 km/h (3 Bft)
28.01.2018 11:46 8,1 °C 65 % 1035,5 hPa 0,0 mm 9,2 km/h (2 Bft) W-NW 282 ° 0 min 0,000 mm 1,5 UV-I 227 W/m² 1,9 °C 6,5 °C 19,3 km/h (3 Bft)
28.01.2018 11:47 8,2 °C 65 % 1035,5 hPa 0,0 mm 9,1 km/h (2 Bft) W-SW 246 ° 0 min 0,000 mm 1,5 UV-I 227 W/m² 2,0 °C 6,7 °C 14,5 km/h (3 Bft)
28.01.2018 11:48 8,3 °C 63 % 1035,6 hPa 0,0 mm 9,9 km/h (2 Bft) W 267 ° 0 min 0,000 mm 1,5 UV-I 227 W/m² 1,7 °C 6,6 °C 12,9 km/h (3 Bft)
28.01.2018 11:49 8,4 °C 64 % 1035,6 hPa 0,0 mm 8,3 km/h (2 Bft) W 263 ° 0 min 0,000 mm 1,5 UV-I 225 W/m² 2,0 °C 7,1 °C 11,3 km/h (2 Bft)
28.01.2018 11:50 8,3 °C 65 % 1035,5 hPa 0,0 mm 7,1 km/h (2 Bft) W 267 ° 0 min 0,000 mm 1,5 UV-I 223 W/m² 2,1 °C 7,2 °C 9,7 km/h (2 Bft)
28.01.2018 11:51 8,3 °C 65 % 1035,5 hPa 0,0 mm 6,9 km/h (2 Bft) W 268 ° 0 min 0,000 mm 1,5 UV-I 221 W/m² 2,1 °C 7,3 °C 11,3 km/h (2 Bft)
28.01.2018 11:52 8,3 °C 65 % 1035,5 hPa 0,0 mm 11,3 km/h (2 Bft) W 273 ° 0 min 0,000 mm 1,5 UV-I 221 W/m² 2,1 °C 6,4 °C 14,5 km/h (3 Bft)
28.01.2018 11:53 8,2 °C 65 % 1035,5 hPa 0,0 mm 7,3 km/h (2 Bft) W 259 ° 0 min 0,000 mm 1,5 UV-I 220 W/m² 2,0 °C 7,1 °C 12,9 km/h (3 Bft)
28.01.2018 11:54 8,2 °C 66 % 1035,5 hPa 0,0 mm 8,8 km/h (2 Bft) W-SW 255 ° 0 min 0,000 mm 1,5 UV-I 223 W/m² 2,2 °C 6,7 °C 12,9 km/h (3 Bft)
28.01.2018 11:55 8,2 °C 65 % 1035,5 hPa 0,0 mm 9,9 km/h (2 Bft) W-NW 300 ° 0 min 0,000 mm 1,5 UV-I 229 W/m² 2,0 °C 6,5 °C 16,1 km/h (3 Bft)
28.01.2018 11:56 8,2 °C 65 % 1035,4 hPa 0,0 mm 12,2 km/h (2 Bft) W-NW 293 ° 0 min 0,000 mm 1,5 UV-I 232 W/m² 2,0 °C 6,1 °C 16,1 km/h (3 Bft)
28.01.2018 11:57 8,3 °C 63 % 1035,5 hPa 0,0 mm 11,0 km/h (2 Bft) W 266 ° 0 min 0,000 mm 1,5 UV-I 229 W/m² 1,7 °C 6,4 °C 12,9 km/h (3 Bft)
28.01.2018 11:58 8,3 °C 64 % 1035,4 hPa 0,0 mm 9,2 km/h (2 Bft) W-SW 252 ° 0 min 0,000 mm 1,5 UV-I 223 W/m² 1,9 °C 6,8 °C 14,5 km/h (3 Bft)
28.01.2018 11:59 8,4 °C 64 % 1035,4 hPa 0,0 mm 6,9 km/h (2 Bft) W 259 ° 0 min 0,000 mm 1,5 UV-I 216 W/m² 2,0 °C 7,4 °C 11,3 km/h (2 Bft)
28.01.2018 12:00 8,4 °C 64 % 1035,4 hPa 0,0 mm 9,7 km/h (2 Bft) W-SW 250 ° 0 min 0,000 mm 1,5 UV-I 213 W/m² 2,0 °C 6,8 °C 14,5 km/h (3 Bft)
28.01.2018 12:01 8,4 °C 64 % 1035,5 hPa 0,0 mm 4,8 km/h (1 Bft) W 260 ° 0 min 0,127 mm 1,5 UV-I 213 W/m² 2,0 °C 8,0 °C 4,8 km/h (1 Bft)
28.01.2018 12:02 8,5 °C 63 % 1035,5 hPa 0,0 mm 6,4 km/h (2 Bft) W-SW 247 ° 0 min 0,000 mm 1,5 UV-I 213 W/m² 1,9 °C 7,6 °C 11,3 km/h (2 Bft)
28.01.2018 12:03 8,5 °C 63 % 1035,4 hPa 0,0 mm 11,3 km/h (2 Bft) W 270 ° 0 min 0,000 mm 1,5 UV-I 213 W/m² 1,9 °C 6,6 °C 16,1 km/h (3 Bft)
28.01.2018 12:04 8,6 °C 63 % 1035,5 hPa 0,0 mm 12,9 km/h (3 Bft) W 270 ° 0 min 0,000 mm 1,5 UV-I 211 W/m² 2,0 °C 6,5 °C 19,3 km/h (3 Bft)
28.01.2018 12:05 8,6 °C 63 % 1035,5 hPa 0,0 mm 6,4 km/h (2 Bft) W 270 ° 0 min 0,000 mm 1,5 UV-I 209 W/m² 2,0 °C 7,8 °C 11,3 km/h (2 Bft)
28.01.2018 12:06 8,6 °C 63 % 1035,5 hPa 0,0 mm 9,7 km/h (2 Bft) W 270 ° 0 min 0,000 mm 1,5 UV-I 206 W/m² 2,0 °C 7,0 °C 12,9 km/h (3 Bft)
28.01.2018 12:07 8,5 °C 64 % 1035,6 hPa 0,0 mm 11,3 km/h (2 Bft) W-SW 247 ° 0 min 0,000 mm 1,5 UV-I 209 W/m² 2,1 °C 6,6 °C 17,7 km/h (3 Bft)
28.01.2018 12:08 8,6 °C 63 % 1035,5 hPa 0,0 mm 6,4 km/h (2 Bft) W 270 ° 0 min 0,000 mm 1,6 UV-I 232 W/m² 2,0 °C 7,8 °C 9,7 km/h (2 Bft)
28.01.2018 12:09 8,6 °C 62 % 1035,5 hPa 0,0 mm 9,7 km/h (2 Bft) W 270 ° 0 min 0,000 mm 1,6 UV-I 241 W/m² 1,7 °C 7,0 °C 12,9 km/h (3 Bft)
28.01.2018 12:10 8,6 °C 63 % 1035,4 hPa 0,0 mm 8,0 km/h (2 Bft) W 270 ° 0 min 0,000 mm 1,6 UV-I 241 W/m² 2,0 °C 7,4 °C 12,9 km/h (3 Bft)
28.01.2018 12:11 8,7 °C 63 % 1035,4 hPa 0,0 mm 4,8 km/h (1 Bft) SW 225 ° 0 min 0,000 mm 1,5 UV-I 237 W/m² 2,1 °C 8,3 °C 6,4 km/h (2 Bft)
28.01.2018 12:12 8,7 °C 62 % 1035,3 hPa 0,0 mm 8,0 km/h (2 Bft) SW 225 ° 0 min 0,000 mm 1,5 UV-I 230 W/m² 1,8 °C 7,5 °C 16,1 km/h (3 Bft)
28.01.2018 12:13 8,8 °C 62 % 1035,4 hPa 0,0 mm 11,3 km/h (2 Bft) W-SW 247 ° 0 min 0,000 mm 1,5 UV-I 220 W/m² 1,9 °C 7,0 °C 17,7 km/h (3 Bft)
28.01.2018 12:14 8,8 °C 62 % 1035,3 hPa 0,0 mm 8,0 km/h (2 Bft) SW 225 ° 0 min 0,000 mm 1,4 UV-I 207 W/m² 1,9 °C 7,6 °C 12,9 km/h (3 Bft)
28.01.2018 12:15 8,8 °C 62 % 1035,3 hPa 0,0 mm 4,8 km/h (1 Bft) W-SW 247 ° 0 min 0,000 mm 1,4 UV-I 188 W/m² 1,9 °C 8,5 °C 8,0 km/h (2 Bft)
28.01.2018 12:16 8,8 °C 62 % 1035,3 hPa 0,0 mm 4,8 km/h (1 Bft) SW 225 ° 0 min 0,000 mm 1,4 UV-I 188 W/m² 1,9 °C 8,5 °C 11,3 km/h (2 Bft)
28.01.2018 12:17 8,8 °C 62 % 1035,3 hPa 0,0 mm 9,7 km/h (2 Bft) W-SW 247 ° 0 min 0,000 mm 1,4 UV-I 195 W/m² 1,9 °C 7,3 °C 14,5 km/h (3 Bft)
28.01.2018 12:18 8,8 °C 62 % 1035,3 hPa 0,0 mm 11,3 km/h (2 Bft) W 270 ° 0 min 0,000 mm 1,5 UV-I 204 W/m² 1,9 °C 7,0 °C 16,1 km/h (3 Bft)
28.01.2018 12:20 8,8 °C 62 % 1035,3 hPa 0,0 mm 6,6 km/h (2 Bft) W 269 ° 0 min 0,000 mm 1,5 UV-I 197 W/m² 1,9 °C 7,9 °C 11,3 km/h (2 Bft)
28.01.2018 12:22 8,8 °C 62 % 1035,3 hPa 0,0 mm 14,5 km/h (3 Bft) W 261 ° 0 min 0,000 mm 1,5 UV-I 197 W/m² 1,9 °C 6,5 °C 17,7 km/h (3 Bft)
28.01.2018 12:23 8,8 °C 62 % 1035,3 hPa 0,0 mm 9,7 km/h (2 Bft) W 270 ° 0 min 0,000 mm 1,4 UV-I 165 W/m² 1,9 °C 7,3 °C 14,5 km/h (3 Bft)
28.01.2018 12:24 8,8 °C 61 % 1035,3 hPa 0,0 mm 8,0 km/h (2 Bft) W-SW 247 ° 0 min 0,000 mm 1,4 UV-I 162 W/m² 1,7 °C 7,6 °C 16,1 km/h (3 Bft)
28.01.2018 12:25 8,7 °C 62 % 1035,3 hPa 0,0 mm 11,3 km/h (2 Bft) W 270 ° 0 min 0,000 mm 1,4 UV-I 162 W/m² 1,8 °C 6,9 °C 17,7 km/h (3 Bft)
28.01.2018 12:26 8,7 °C 62 % 1035,4 hPa 0,0 mm 11,3 km/h (2 Bft) W-SW 247 ° 0 min 0,000 mm 1,4 UV-I 171 W/m² 1,8 °C 6,9 °C 14,5 km/h (3 Bft)
28.01.2018 12:27 8,7 °C 61 % 1035,3 hPa 0,0 mm 6,4 km/h (2 Bft) W-SW 247 ° 0 min 0,000 mm 1,5 UV-I 178 W/m² 1,6 °C 7,9 °C 12,9 km/h (3 Bft)
28.01.2018 12:28 8,7 °C 62 % 1035,2 hPa 0,0 mm 8,0 km/h (2 Bft) W 270 ° 0 min 0,000 mm 1,5 UV-I 186 W/m² 1,8 °C 7,5 °C 11,3 km/h (2 Bft)
28.01.2018 12:29 8,6 °C 63 % 1035,3 hPa 0,0 mm 8,0 km/h (2 Bft) W-SW 247 ° 0 min 0,000 mm 1,5 UV-I 193 W/m² 2,0 °C 7,4 °C 14,5 km/h (3 Bft)
28.01.2018 12:30 8,6 °C 63 % 1035,3 hPa 0,0 mm 4,8 km/h (1 Bft) W-SW 247 ° 0 min 0,000 mm 1,5 UV-I 193 W/m² 2,0 °C 8,2 °C 11,3 km/h (2 Bft)
28.01.2018 12:32 8,7 °C 62 % 1035,3 hPa 0,0 mm 9,6 km/h (2 Bft) SW 228 ° 0 min 0,000 mm 1,5 UV-I 188 W/m² 1,8 °C 7,2 °C 14,5 km/h (3 Bft)
28.01.2018 12:33 8,7 °C 62 % 1035,3 hPa 0,0 mm 8,2 km/h (2 Bft) W 264 ° 0 min 0,000 mm 1,5 UV-I 190 W/m² 1,8 °C 7,4 °C 12,9 km/h (3 Bft)
28.01.2018 12:34 8,7 °C 63 % 1035,3 hPa 0,0 mm 5,5 km/h (1 Bft) W-SW 253 ° 0 min 0,000 mm 1,5 UV-I 193 W/m² 2,1 °C 8,1 °C 11,3 km/h (2 Bft)
28.01.2018 12:35 8,7 °C 62 % 1035,3 hPa 0,0 mm 7,4 km/h (2 Bft) W-SW 254 ° 0 min 0,000 mm 1,6 UV-I 192 W/m² 1,8 °C 7,6 °C 12,9 km/h (3 Bft)
28.01.2018 12:37 8,7 °C 63 % 1035,3 hPa 0,0 mm 10,4 km/h (2 Bft) W-SW 255 ° 0 min 0,000 mm 1,5 UV-I 165 W/m² 2,1 °C 7,0 °C 19,3 km/h (3 Bft)
28.01.2018 12:38 8,6 °C 63 % 1035,3 hPa 0,0 mm 10,2 km/h (2 Bft) W-SW 246 ° 0 min 0,000 mm 1,5 UV-I 160 W/m² 2,0 °C 6,9 °C 20,9 km/h (4 Bft)
28.01.2018 12:39 8,6 °C 63 % 1035,3 hPa 0,0 mm 5,4 km/h (1 Bft) W-SW 253 ° 0 min 0,000 mm 1,5 UV-I 155 W/m² 2,0 °C 8,0 °C 9,7 km/h (2 Bft)
28.01.2018 12:40 8,6 °C 62 % 1035,3 hPa 0,0 mm 8,0 km/h (2 Bft) SW 228 ° 0 min 0,000 mm 1,5 UV-I 155 W/m² 1,7 °C 7,4 °C 12,9 km/h (3 Bft)
28.01.2018 12:41 8,6 °C 63 % 1035,2 hPa 0,0 mm 5,0 km/h (1 Bft) W-SW 239 ° 0 min 0,000 mm 1,5 UV-I 162 W/m² 2,0 °C 8,2 °C 8,0 km/h (2 Bft)
28.01.2018 12:42 8,6 °C 63 % 1035,2 hPa 0,0 mm 6,1 km/h (2 Bft) W-SW 254 ° 0 min 0,000 mm 1,5 UV-I 162 W/m² 2,0 °C 7,8 °C 9,7 km/h (2 Bft)
28.01.2018 12:43 8,7 °C 63 % 1035,2 hPa 0,0 mm 6,1 km/h (2 Bft) W 264 ° 0 min 0,000 mm 1,5 UV-I 156 W/m² 2,1 °C 7,9 °C 9,7 km/h (2 Bft)
28.01.2018 12:44 8,7 °C 63 % 1035,2 hPa 0,0 mm 8,4 km/h (2 Bft) W 261 ° 0 min 0,000 mm 1,5 UV-I 162 W/m² 2,1 °C 7,4 °C 12,9 km/h (3 Bft)
28.01.2018 12:45 8,6 °C 63 % 1035,2 hPa 0,0 mm 7,5 km/h (2 Bft) W 267 ° 0 min 0,000 mm 1,5 UV-I 158 W/m² 2,0 °C 7,5 °C 12,9 km/h (3 Bft)
28.01.2018 12:46 8,6 °C 62 % 1035,2 hPa 0,0 mm 10,4 km/h (2 Bft) W 261 ° 0 min 0,000 mm 1,5 UV-I 158 W/m² 1,7 °C 6,9 °C 12,9 km/h (3 Bft)
28.01.2018 12:47 8,6 °C 63 % 1035,2 hPa 0,0 mm 6,9 km/h (2 Bft) W 275 ° 0 min 0,000 mm 1,5 UV-I 162 W/m² 2,0 °C 7,6 °C 12,9 km/h (3 Bft)
28.01.2018 12:48 8,6 °C 64 % 1035,3 hPa 0,0 mm 5,8 km/h (2 Bft) W-SW 254 ° 0 min 0,000 mm 1,5 UV-I 165 W/m² 2,2 °C 7,9 °C 11,3 km/h (2 Bft)
28.01.2018 12:49 8,6 °C 63 % 1035,3 hPa 0,0 mm 9,2 km/h (2 Bft) W 263 ° 0 min 0,000 mm 1,5 UV-I 178 W/m² 2,0 °C 7,1 °C 12,9 km/h (3 Bft)
28.01.2018 12:50 8,6 °C 63 % 1035,2 hPa 0,0 mm 7,1 km/h (2 Bft) W-SW 258 ° 0 min 0,000 mm 1,6 UV-I 192 W/m² 2,0 °C 7,6 °C 11,3 km/h (2 Bft)
28.01.2018 12:51 8,6 °C 63 % 1035,2 hPa 0,0 mm 6,2 km/h (2 Bft) NW 316 ° 0 min 0,000 mm 1,6 UV-I 206 W/m² 2,0 °C 7,8 °C 8,0 km/h (2 Bft)
28.01.2018 12:52 8,7 °C 62 % 1035,1 hPa 0,0 mm 6,2 km/h (2 Bft) W-SW 249 ° 0 min 0,000 mm 1,6 UV-I 206 W/m² 1,8 °C 7,9 °C 11,3 km/h (2 Bft)
28.01.2018 12:53 8,7 °C 63 % 1035,2 hPa 0,0 mm 9,7 km/h (2 Bft) W-SW 254 ° 0 min 0,000 mm 1,5 UV-I 193 W/m² 2,1 °C 7,1 °C 12,9 km/h (3 Bft)
28.01.2018 12:54 8,7 °C 63 % 1035,2 hPa 0,0 mm 8,3 km/h (2 Bft) W 266 ° 0 min 0,000 mm 1,5 UV-I 179 W/m² 2,1 °C 7,4 °C 11,3 km/h (2 Bft)
28.01.2018 12:55 8,6 °C 64 % 1035,1 hPa 0,0 mm 8,6 km/h (2 Bft) W 281 ° 0 min 0,000 mm 1,5 UV-I 165 W/m² 2,2 °C 7,2 °C 11,3 km/h (2 Bft)
28.01.2018 12:56 8,6 °C 64 % 1035,1 hPa 0,0 mm 6,2 km/h (2 Bft) W 263 ° 0 min 0,000 mm 1,5 UV-I 165 W/m² 2,2 °C 7,8 °C 9,7 km/h (2 Bft)
28.01.2018 12:57 8,6 °C 63 % 1035,1 hPa 0,0 mm 4,1 km/h (1 Bft) W-SW 238 ° 0 min 0,000 mm 1,5 UV-I 169 W/m² 2,0 °C 8,6 °C 9,7 km/h (2 Bft)
28.01.2018 12:58 8,7 °C 63 % 1035,0 hPa 0,0 mm 11,3 km/h (2 Bft) W-SW 257 ° 0 min 0,000 mm 1,6 UV-I 176 W/m² 2,1 °C 6,9 °C 17,7 km/h (3 Bft)
28.01.2018 12:59 8,7 °C 62 % 1035,1 hPa 0,0 mm 11,0 km/h (2 Bft) W 264 ° 0 min 0,000 mm 1,6 UV-I 188 W/m² 1,8 °C 6,9 °C 16,1 km/h (3 Bft)
28.01.2018 13:00 8,8 °C 62 % 1035,1 hPa 0,0 mm 9,9 km/h (2 Bft) W 271 ° 0 min 0,127 mm 1,6 UV-I 200 W/m² 1,9 °C 7,2 °C 12,9 km/h (3 Bft)
28.01.2018 13:01 8,8 °C 62 % 1035,1 hPa 0,0 mm 11,3 km/h (2 Bft) W-SW 248 ° 0 min 0,000 mm 1,6 UV-I 204 W/m² 1,9 °C 7,0 °C 11,3 km/h (2 Bft)
28.01.2018 13:02 8,8 °C 61 % 1035,1 hPa 0,0 mm 14,5 km/h (3 Bft) W 270 ° 0 min 0,000 mm 1,6 UV-I 213 W/m² 1,7 °C 6,5 °C 27,4 km/h (4 Bft)
28.01.2018 13:03 8,8 °C 62 % 1035,2 hPa 0,0 mm 9,7 km/h (2 Bft) W 270 ° 0 min 0,000 mm 1,6 UV-I 223 W/m² 1,9 °C 7,3 °C 14,5 km/h (3 Bft)
28.01.2018 13:04 8,8 °C 62 % 1035,2 hPa 0,0 mm 14,5 km/h (3 Bft) W 270 ° 0 min 0,000 mm 1,6 UV-I 236 W/m² 1,9 °C 6,5 °C 19,3 km/h (3 Bft)
28.01.2018 13:05 8,8 °C 61 % 1035,1 hPa 0,0 mm 8,0 km/h (2 Bft) SW 225 ° 0 min 0,000 mm 1,6 UV-I 237 W/m² 1,7 °C 7,6 °C 14,5 km/h (3 Bft)
28.01.2018 13:06 8,8 °C 62 % 1035,1 hPa 0,0 mm 14,5 km/h (3 Bft) W 270 ° 0 min 0,000 mm 1,6 UV-I 236 W/m² 1,9 °C 6,5 °C 19,3 km/h (3 Bft)
28.01.2018 13:07 8,8 °C 62 % 1035,1 hPa 0,0 mm 11,3 km/h (2 Bft) W 270 ° 0 min 0,000 mm 1,6 UV-I 236 W/m² 1,9 °C 7,0 °C 19,3 km/h (3 Bft)
28.01.2018 13:08 8,8 °C 62 % 1035,1 hPa 0,0 mm 9,7 km/h (2 Bft) W 270 ° 0 min 0,000 mm 1,6 UV-I 236 W/m² 1,9 °C 7,3 °C 14,5 km/h (3 Bft)
28.01.2018 13:10 8,8 °C 62 % 1035,2 hPa 0,0 mm 11,3 km/h (2 Bft) W-NW 301 ° 0 min 0,000 mm 1,6 UV-I 237 W/m² 1,9 °C 7,0 °C 12,9 km/h (3 Bft)
28.01.2018 13:12 8,8 °C 62 % 1035,2 hPa 0,0 mm 9,8 km/h (2 Bft) W-NW 285 ° 0 min 0,000 mm 1,6 UV-I 241 W/m² 1,9 °C 7,2 °C 22,5 km/h (4 Bft)
28.01.2018 13:13 8,8 °C 61 % 1035,2 hPa 0,0 mm 14,8 km/h (3 Bft) W 275 ° 0 min 0,000 mm 1,6 UV-I 246 W/m² 1,7 °C 6,5 °C 22,5 km/h (4 Bft)
28.01.2018 13:14 8,9 °C 62 % 1035,2 hPa 0,0 mm 8,9 km/h (2 Bft) W-SW 257 ° 0 min 0,000 mm 1,6 UV-I 248 W/m² 2,0 °C 7,5 °C 17,7 km/h (3 Bft)
28.01.2018 13:15 8,9 °C 61 % 1035,2 hPa 0,0 mm 9,0 km/h (2 Bft) W-NW 284 ° 0 min 0,000 mm 1,6 UV-I 241 W/m² 1,8 °C 7,5 °C 11,3 km/h (2 Bft)
28.01.2018 13:17 8,9 °C 61 % 1035,2 hPa 0,0 mm 12,9 km/h (3 Bft) W 263 ° 0 min 0,000 mm 1,6 UV-I 241 W/m² 1,8 °C 6,8 °C 12,9 km/h (3 Bft)
28.01.2018 13:18 8,8 °C 62 % 1035,2 hPa 0,0 mm 12,9 km/h (3 Bft) W 270 ° 0 min 0,000 mm 1,6 UV-I 229 W/m² 1,9 °C 6,7 °C 16,1 km/h (3 Bft)
28.01.2018 13:19 8,8 °C 62 % 1035,3 hPa 0,0 mm 9,7 km/h (2 Bft) W 270 ° 0 min 0,000 mm 1,6 UV-I 243 W/m² 1,9 °C 7,3 °C 12,9 km/h (3 Bft)
28.01.2018 13:20 8,9 °C 62 % 1035,2 hPa 0,0 mm 16,1 km/h (3 Bft) W 270 ° 0 min 0,000 mm 1,6 UV-I 246 W/m² 2,0 °C 6,4 °C 20,9 km/h (4 Bft)
28.01.2018 13:21 8,9 °C 62 % 1035,3 hPa 0,0 mm 12,9 km/h (3 Bft) W-SW 247 ° 0 min 0,000 mm 1,6 UV-I 244 W/m² 2,0 °C 6,8 °C 19,3 km/h (3 Bft)
28.01.2018 13:22 8,9 °C 61 % 1035,2 hPa 0,0 mm 12,9 km/h (3 Bft) W 270 ° 0 min 0,000 mm 1,6 UV-I 243 W/m² 1,8 °C 6,8 °C 19,3 km/h (3 Bft)
28.01.2018 13:23 8,9 °C 61 % 1035,2 hPa 0,0 mm 12,9 km/h (3 Bft) W 270 ° 0 min 0,000 mm 1,6 UV-I 251 W/m² 1,8 °C 6,8 °C 20,9 km/h (4 Bft)
28.01.2018 13:24 8,9 °C 61 % 1035,2 hPa 0,0 mm 12,9 km/h (3 Bft) W 270 ° 0 min 0,000 mm 1,5 UV-I 251 W/m² 1,8 °C 6,8 °C 20,9 km/h (4 Bft)
28.01.2018 13:25 8,9 °C 62 % 1035,2 hPa 0,0 mm 12,9 km/h (3 Bft) W 270 ° 0 min 0,000 mm 1,5 UV-I 248 W/m² 2,0 °C 6,8 °C 22,5 km/h (4 Bft)
28.01.2018 13:27 8,8 °C 61 % 1035,2 hPa 0,0 mm 16,2 km/h (3 Bft) W 263 ° 0 min 0,000 mm 1,4 UV-I 229 W/m² 1,7 °C 6,3 °C 17,7 km/h (3 Bft)
28.01.2018 13:28 8,9 °C 62 % 1035,2 hPa 0,0 mm 12,3 km/h (3 Bft) W-NW 290 ° 0 min 0,000 mm 1,4 UV-I 221 W/m² 2,0 °C 6,9 °C 17,7 km/h (3 Bft)
28.01.2018 13:29 8,9 °C 62 % 1035,2 hPa 0,0 mm 9,1 km/h (2 Bft) SW 227 ° 0 min 0,000 mm 1,4 UV-I 223 W/m² 2,0 °C 7,5 °C 16,1 km/h (3 Bft)
28.01.2018 13:30 8,9 °C 62 % 1035,2 hPa 0,0 mm 7,3 km/h (2 Bft) SW 233 ° 0 min 0,000 mm 1,5 UV-I 229 W/m² 2,0 °C 7,9 °C 12,9 km/h (3 Bft)
28.01.2018 13:31 8,9 °C 61 % 1035,2 hPa 0,0 mm 11,2 km/h (2 Bft) SW 215 ° 0 min 0,000 mm 1,4 UV-I 223 W/m² 1,8 °C 7,1 °C 19,3 km/h (3 Bft)
28.01.2018 13:32 8,9 °C 61 % 1035,2 hPa 0,0 mm 11,4 km/h (2 Bft) W 261 ° 0 min 0,000 mm 1,4 UV-I 216 W/m² 1,8 °C 7,1 °C 17,7 km/h (3 Bft)
28.01.2018 13:33 8,9 °C 62 % 1035,1 hPa 0,0 mm 9,9 km/h (2 Bft) S-SW 213 ° 0 min 0,000 mm 1,4 UV-I 211 W/m² 2,0 °C 7,3 °C 16,1 km/h (3 Bft)
28.01.2018 13:34 9,0 °C 61 % 1035,2 hPa 0,0 mm 12,0 km/h (2 Bft) W 265 ° 0 min 0,000 mm 1,4 UV-I 207 W/m² 1,9 °C 7,1 °C 17,7 km/h (3 Bft)
28.01.2018 13:35 9,0 °C 62 % 1035,2 hPa 0,0 mm 13,1 km/h (3 Bft) W-SW 242 ° 0 min 0,000 mm 1,4 UV-I 207 W/m² 2,1 °C 6,9 °C 17,7 km/h (3 Bft)
28.01.2018 13:36 8,9 °C 61 % 1035,1 hPa 0,0 mm 14,2 km/h (3 Bft) SW 228 ° 0 min 0,000 mm 1,4 UV-I 214 W/m² 1,8 °C 6,7 °C 17,7 km/h (3 Bft)
28.01.2018 13:37 8,9 °C 62 % 1035,1 hPa 0,0 mm 11,2 km/h (2 Bft) SW 226 ° 0 min 0,000 mm 1,4 UV-I 211 W/m² 2,0 °C 7,1 °C 19,3 km/h (3 Bft)
28.01.2018 13:38 8,9 °C 62 % 1035,2 hPa 0,0 mm 11,9 km/h (2 Bft) W-SW 245 ° 0 min 0,000 mm 1,3 UV-I 204 W/m² 2,0 °C 7,0 °C 17,7 km/h (3 Bft)
28.01.2018 13:39 8,9 °C 62 % 1035,2 hPa 0,0 mm 12,2 km/h (2 Bft) SW 223 ° 0 min 0,000 mm 1,3 UV-I 193 W/m² 2,0 °C 7,0 °C 17,7 km/h (3 Bft)
28.01.2018 13:40 8,9 °C 62 % 1035,2 hPa 0,0 mm 11,2 km/h (2 Bft) W-NW 293 ° 0 min 0,000 mm 1,3 UV-I 185 W/m² 2,0 °C 7,1 °C 19,3 km/h (3 Bft)
28.01.2018 13:41 8,9 °C 62 % 1035,1 hPa 0,0 mm 12,2 km/h (2 Bft) W 263 ° 0 min 0,000 mm 1,3 UV-I 179 W/m² 2,0 °C 7,0 °C 20,9 km/h (4 Bft)
28.01.2018 13:42 8,8 °C 62 % 1035,2 hPa 0,0 mm 6,2 km/h (2 Bft) W 259 ° 0 min 0,000 mm 1,2 UV-I 171 W/m² 1,9 °C 8,0 °C 9,7 km/h (2 Bft)
28.01.2018 13:43 8,8 °C 62 % 1035,2 hPa 0,0 mm 11,5 km/h (2 Bft) W 267 ° 0 min 0,000 mm 1,2 UV-I 169 W/m² 1,9 °C 6,9 °C 16,1 km/h (3 Bft)
28.01.2018 13:44 8,9 °C 62 % 1035,1 hPa 0,0 mm 8,5 km/h (2 Bft) W-SW 253 ° 0 min 0,000 mm 1,2 UV-I 167 W/m² 2,0 °C 7,6 °C 12,9 km/h (3 Bft)
28.01.2018 13:45 8,9 °C 62 % 1035,1 hPa 0,0 mm 8,9 km/h (2 Bft) W-NW 289 ° 0 min 0,000 mm 1,2 UV-I 165 W/m² 2,0 °C 7,5 °C 14,5 km/h (3 Bft)
28.01.2018 13:46 8,8 °C 62 % 1035,2 hPa 0,0 mm 12,3 km/h (3 Bft) SW 235 ° 0 min 0,000 mm 1,2 UV-I 160 W/m² 1,9 °C 6,8 °C 17,7 km/h (3 Bft)
28.01.2018 13:47 8,8 °C 62 % 1035,1 hPa 0,0 mm 5,4 km/h (1 Bft) W-SW 242 ° 0 min 0,000 mm 1,2 UV-I 155 W/m² 1,9 °C 8,3 °C 9,7 km/h (2 Bft)
28.01.2018 13:48 8,8 °C 62 % 1035,1 hPa 0,0 mm 7,4 km/h (2 Bft) W 275 ° 0 min 0,000 mm 1,2 UV-I 148 W/m² 1,9 °C 7,7 °C 11,3 km/h (2 Bft)
28.01.2018 13:49 8,8 °C 62 % 1035,1 hPa 0,0 mm 10,9 km/h (2 Bft) W 265 ° 0 min 0,000 mm 1,2 UV-I 146 W/m² 1,9 °C 7,0 °C 16,1 km/h (3 Bft)
28.01.2018 13:50 8,8 °C 62 % 1035,1 hPa 0,0 mm 12,2 km/h (2 Bft) W 261 ° 0 min 0,000 mm 1,2 UV-I 144 W/m² 1,9 °C 6,8 °C 16,1 km/h (3 Bft)
28.01.2018 13:51 8,7 °C 63 % 1035,0 hPa 0,0 mm 13,9 km/h (3 Bft) W 277 ° 0 min 0,000 mm 1,2 UV-I 144 W/m² 2,1 °C 6,5 °C 16,1 km/h (3 Bft)
28.01.2018 13:52 8,7 °C 64 % 1035,1 hPa 0,0 mm 11,3 km/h (2 Bft) SW 221 ° 0 min 0,000 mm 1,2 UV-I 144 W/m² 2,3 °C 6,9 °C 14,5 km/h (3 Bft)
28.01.2018 13:53 8,6 °C 63 % 1035,1 hPa 0,0 mm 7,4 km/h (2 Bft) S 183 ° 0 min 0,000 mm 1,2 UV-I 148 W/m² 2,0 °C 7,5 °C 14,5 km/h (3 Bft)
28.01.2018 13:54 8,7 °C 62 % 1035,2 hPa 0,0 mm 9,5 km/h (2 Bft) W-SW 252 ° 0 min 0,000 mm 1,2 UV-I 149 W/m² 1,8 °C 7,2 °C 12,9 km/h (3 Bft)
28.01.2018 13:55 8,7 °C 63 % 1035,1 hPa 0,0 mm 8,6 km/h (2 Bft) W-SW 250 ° 0 min 0,000 mm 1,2 UV-I 149 W/m² 2,1 °C 7,4 °C 11,3 km/h (2 Bft)
28.01.2018 13:56 8,7 °C 62 % 1035,1 hPa 0,0 mm 11,3 km/h (2 Bft) W-SW 252 ° 0 min 0,000 mm 1,2 UV-I 149 W/m² 1,8 °C 6,9 °C 16,1 km/h (3 Bft)
28.01.2018 13:57 8,8 °C 61 % 1035,2 hPa 0,0 mm 12,9 km/h (3 Bft) W-SW 257 ° 0 min 0,000 mm 1,1 UV-I 153 W/m² 1,7 °C 6,7 °C 20,9 km/h (4 Bft)
28.01.2018 13:58 8,7 °C 61 % 1035,1 hPa 0,0 mm 17,2 km/h (3 Bft) W 261 ° 0 min 0,000 mm 1,2 UV-I 162 W/m² 1,6 °C 6,0 °C 25,7 km/h (4 Bft)
28.01.2018 13:59 8,7 °C 61 % 1035,2 hPa 0,0 mm 9,0 km/h (2 Bft) W-SW 252 ° 0 min 0,000 mm 1,2 UV-I 174 W/m² 1,6 °C 7,3 °C 19,3 km/h (3 Bft)
28.01.2018 14:00 8,6 °C 61 % 1035,1 hPa 0,0 mm 10,6 km/h (2 Bft) W 269 ° 0 min 0,000 mm 1,2 UV-I 186 W/m² 1,5 °C 6,9 °C 19,3 km/h (3 Bft)
28.01.2018 14:01 8,6 °C 62 % 1035,1 hPa 0,0 mm 9,9 km/h (2 Bft) SW 230 ° 0 min 0,127 mm 1,1 UV-I 174 W/m² 1,7 °C 7,0 °C 14,5 km/h (3 Bft)
28.01.2018 14:02 8,6 °C 62 % 1035,1 hPa 0,0 mm 8,7 km/h (2 Bft) W 259 ° 0 min 0,000 mm 1,1 UV-I 162 W/m² 1,7 °C 7,2 °C 11,3 km/h (2 Bft)
28.01.2018 14:03 8,7 °C 61 % 1035,1 hPa 0,0 mm 12,0 km/h (2 Bft) W-SW 256 ° 0 min 0,000 mm 1,1 UV-I 153 W/m² 1,6 °C 6,7 °C 14,5 km/h (3 Bft)
28.01.2018 14:04 8,7 °C 62 % 1035,2 hPa 0,0 mm 8,1 km/h (2 Bft) W-NW 303 ° 0 min 0,000 mm 1,0 UV-I 146 W/m² 1,8 °C 7,5 °C 11,3 km/h (2 Bft)
28.01.2018 14:05 8,7 °C 62 % 1035,1 hPa 0,0 mm 7,7 km/h (2 Bft) W 259 ° 0 min 0,000 mm 1,0 UV-I 149 W/m² 1,8 °C 7,5 °C 11,3 km/h (2 Bft)
28.01.2018 14:06 8,6 °C 63 % 1035,1 hPa 0,0 mm 10,1 km/h (2 Bft) SW 224 ° 0 min 0,000 mm 1,0 UV-I 155 W/m² 2,0 °C 6,9 °C 14,5 km/h (3 Bft)
28.01.2018 14:07 8,6 °C 63 % 1035,1 hPa 0,0 mm 11,4 km/h (2 Bft) W 274 ° 0 min 0,000 mm 1,0 UV-I 156 W/m² 2,0 °C 6,7 °C 17,7 km/h (3 Bft)
28.01.2018 14:08 8,6 °C 62 % 1035,1 hPa 0,0 mm 13,9 km/h (3 Bft) W-SW 257 ° 0 min 0,000 mm 1,0 UV-I 158 W/m² 1,7 °C 6,3 °C 17,7 km/h (3 Bft)
28.01.2018 14:09 8,6 °C 62 % 1035,1 hPa 0,0 mm 13,1 km/h (3 Bft) W 281 ° 0 min 0,000 mm 1,0 UV-I 156 W/m² 1,7 °C 6,5 °C 16,1 km/h (3 Bft)
28.01.2018 14:10 8,6 °C 62 % 1035,1 hPa 0,0 mm 11,6 km/h (2 Bft) W-SW 250 ° 0 min 0,000 mm 1,0 UV-I 148 W/m² 1,7 °C 6,7 °C 17,7 km/h (3 Bft)
28.01.2018 14:11 8,6 °C 61 % 1035,2 hPa 0,0 mm 11,6 km/h (2 Bft) W-NW 290 ° 0 min 0,000 mm 0,9 UV-I 134 W/m² 1,5 °C 6,7 °C 17,7 km/h (3 Bft)
28.01.2018 14:12 8,6 °C 61 % 1035,2 hPa 0,0 mm 16,6 km/h (3 Bft) W 262 ° 0 min 0,000 mm 0,9 UV-I 130 W/m² 1,5 °C 6,0 °C 22,5 km/h (4 Bft)
28.01.2018 14:13 8,6 °C 62 % 1035,2 hPa 0,0 mm 12,5 km/h (3 Bft) W-SW 253 ° 0 min 0,000 mm 0,9 UV-I 130 W/m² 1,7 °C 6,5 °C 16,1 km/h (3 Bft)
28.01.2018 14:14 8,6 °C 62 % 1035,2 hPa 0,0 mm 10,9 km/h (2 Bft) W 259 ° 0 min 0,000 mm 0,8 UV-I 128 W/m² 1,7 °C 6,8 °C 16,1 km/h (3 Bft)
28.01.2018 14:15 8,5 °C 62 % 1035,2 hPa 0,0 mm 11,4 km/h (2 Bft) W 265 ° 0 min 0,000 mm 0,8 UV-I 125 W/m² 1,6 °C 6,6 °C 17,7 km/h (3 Bft)
28.01.2018 14:16 8,4 °C 62 % 1035,2 hPa 0,0 mm 13,3 km/h (3 Bft) W-NW 293 ° 0 min 0,000 mm 0,8 UV-I 120 W/m² 1,6 °C 6,2 °C 19,3 km/h (3 Bft)
28.01.2018 14:17 8,4 °C 62 % 1035,2 hPa 0,0 mm 13,6 km/h (3 Bft) W-SW 256 ° 0 min 0,000 mm 0,8 UV-I 121 W/m² 1,6 °C 6,1 °C 16,1 km/h (3 Bft)
28.01.2018 14:18 8,5 °C 62 % 1035,3 hPa 0,0 mm 11,2 km/h (2 Bft) W 261 ° 0 min 0,000 mm 0,8 UV-I 123 W/m² 1,6 °C 6,6 °C 14,5 km/h (3 Bft)
28.01.2018 14:19 8,6 °C 63 % 1035,2 hPa 0,0 mm 12,1 km/h (2 Bft) W-SW 253 ° 0 min 0,000 mm 0,8 UV-I 128 W/m² 2,0 °C 6,6 °C 19,3 km/h (3 Bft)
28.01.2018 14:20 8,4 °C 62 % 1035,3 hPa 0,0 mm 13,5 km/h (3 Bft) W 269 ° 0 min 0,000 mm 0,8 UV-I 135 W/m² 1,6 °C 6,1 °C 20,9 km/h (4 Bft)
28.01.2018 14:21 8,5 °C 61 % 1035,3 hPa 0,0 mm 10,7 km/h (2 Bft) W 281 ° 0 min 0,000 mm 0,9 UV-I 141 W/m² 1,4 °C 6,7 °C 16,1 km/h (3 Bft)
28.01.2018 14:22 8,6 °C 62 % 1035,2 hPa 0,0 mm 12,7 km/h (3 Bft) W-SW 242 ° 0 min 0,000 mm 0,9 UV-I 142 W/m² 1,7 °C 6,5 °C 20,9 km/h (4 Bft)
28.01.2018 14:23 8,6 °C 62 % 1035,2 hPa 0,0 mm 10,2 km/h (2 Bft) W-SW 243 ° 0 min 0,000 mm 0,9 UV-I 139 W/m² 1,7 °C 6,9 °C 14,5 km/h (3 Bft)
28.01.2018 14:24 8,6 °C 61 % 1035,2 hPa 0,0 mm 10,6 km/h (2 Bft) SW 231 ° 0 min 0,000 mm 0,8 UV-I 135 W/m² 1,5 °C 6,9 °C 17,7 km/h (3 Bft)
28.01.2018 14:25 8,6 °C 61 % 1035,2 hPa 0,0 mm 13,2 km/h (3 Bft) W-SW 242 ° 0 min 0,000 mm 0,8 UV-I 130 W/m² 1,5 °C 6,4 °C 17,7 km/h (3 Bft)
28.01.2018 14:26 8,6 °C 61 % 1035,2 hPa 0,0 mm 13,7 km/h (3 Bft) W 261 ° 0 min 0,000 mm 0,8 UV-I 127 W/m² 1,5 °C 6,4 °C 17,7 km/h (3 Bft)
28.01.2018 14:27 8,7 °C 62 % 1035,2 hPa 0,0 mm 10,3 km/h (2 Bft) W-SW 252 ° 0 min 0,000 mm 0,8 UV-I 125 W/m² 1,8 °C 7,0 °C 16,1 km/h (3 Bft)
28.01.2018 14:28 8,6 °C 61 % 1035,2 hPa 0,0 mm 10,0 km/h (2 Bft) SW 234 ° 0 min 0,000 mm 0,8 UV-I 125 W/m² 1,5 °C 7,0 °C 17,7 km/h (3 Bft)
28.01.2018 14:29 8,6 °C 61 % 1035,2 hPa 0,0 mm 5,6 km/h (1 Bft) SW 232 ° 0 min 0,000 mm 0,8 UV-I 121 W/m² 1,5 °C 8,0 °C 11,3 km/h (2 Bft)
28.01.2018 14:30 8,6 °C 61 % 1035,2 hPa 0,0 mm 7,8 km/h (2 Bft) SW 229 ° 0 min 0,000 mm 0,8 UV-I 121 W/m² 1,5 °C 7,4 °C 14,5 km/h (3 Bft)
28.01.2018 14:31 8,6 °C 61 % 1035,2 hPa 0,0 mm 13,0 km/h (3 Bft) S-SW 210 ° 0 min 0,000 mm 0,8 UV-I 123 W/m² 1,5 °C 6,5 °C 22,5 km/h (4 Bft)
28.01.2018 14:32 8,7 °C 61 % 1035,2 hPa 0,0 mm 11,8 km/h (2 Bft) W-SW 242 ° 0 min 0,000 mm 0,8 UV-I 125 W/m² 1,6 °C 6,8 °C 19,3 km/h (3 Bft)
28.01.2018 14:33 8,6 °C 61 % 1035,1 hPa 0,0 mm 11,3 km/h (2 Bft) W 276 ° 0 min 0,000 mm 0,8 UV-I 127 W/m² 1,5 °C 6,7 °C 16,1 km/h (3 Bft)
28.01.2018 14:34 8,7 °C 62 % 1035,2 hPa 0,0 mm 12,3 km/h (3 Bft) W 267 ° 0 min 0,000 mm 0,8 UV-I 128 W/m² 1,8 °C 6,7 °C 16,1 km/h (3 Bft)
28.01.2018 14:35 8,6 °C 61 % 1035,1 hPa 0,0 mm 8,9 km/h (2 Bft) W-SW 257 ° 0 min 0,000 mm 0,8 UV-I 121 W/m² 1,5 °C 7,2 °C 17,7 km/h (3 Bft)
28.01.2018 14:36 8,7 °C 61 % 1035,1 hPa 0,0 mm 11,9 km/h (2 Bft) SW 217 ° 0 min 0,000 mm 0,9 UV-I 123 W/m² 1,6 °C 6,8 °C 19,3 km/h (3 Bft)
28.01.2018 14:37 8,7 °C 61 % 1035,1 hPa 0,0 mm 7,6 km/h (2 Bft) W-SW 244 ° 0 min 0,000 mm 0,9 UV-I 127 W/m² 1,6 °C 7,6 °C 12,9 km/h (3 Bft)
28.01.2018 14:38 8,6 °C 62 % 1035,1 hPa 0,0 mm 11,7 km/h (2 Bft) S-SW 209 ° 0 min 0,000 mm 0,9 UV-I 128 W/m² 1,7 °C 6,7 °C 16,1 km/h (3 Bft)
28.01.2018 14:39 8,5 °C 61 % 1035,0 hPa 0,0 mm 11,5 km/h (2 Bft) SW 223 ° 0 min 0,000 mm 0,9 UV-I 128 W/m² 1,4 °C 6,6 °C 17,7 km/h (3 Bft)
28.01.2018 14:40 8,6 °C 61 % 1035,1 hPa 0,0 mm 4,8 km/h (1 Bft) SW 229 ° 0 min 0,000 mm 0,9 UV-I 132 W/m² 1,5 °C 8,2 °C 9,7 km/h (2 Bft)
28.01.2018 14:41 8,6 °C 61 % 1035,1 hPa 0,0 mm 12,1 km/h (2 Bft) W 270 ° 0 min 0,000 mm 0,9 UV-I 134 W/m² 1,5 °C 6,6 °C 12,9 km/h (3 Bft)
28.01.2018 14:42 8,6 °C 62 % 1035,0 hPa 0,0 mm 8,0 km/h (2 Bft) W-SW 247 ° 0 min 0,000 mm 0,9 UV-I 130 W/m² 1,7 °C 7,4 °C 11,3 km/h (2 Bft)
28.01.2018 14:43 8,6 °C 61 % 1035,0 hPa 0,0 mm 8,0 km/h (2 Bft) W 270 ° 0 min 0,000 mm 0,9 UV-I 128 W/m² 1,5 °C 7,4 °C 14,5 km/h (3 Bft)
28.01.2018 14:44 8,6 °C 61 % 1035,0 hPa 0,0 mm 3,2 km/h (1 Bft) SW 225 ° 0 min 0,000 mm 0,9 UV-I 130 W/m² 1,5 °C 8,6 °C 6,4 km/h (2 Bft)
28.01.2018 14:45 8,6 °C 61 % 1035,0 hPa 0,0 mm 3,2 km/h (1 Bft) SW 225 ° 0 min 0,000 mm 0,9 UV-I 139 W/m² 1,5 °C 8,6 °C 4,8 km/h (1 Bft)
28.01.2018 14:46 8,6 °C 61 % 1035,0 hPa 0,0 mm 6,4 km/h (2 Bft) W 270 ° 0 min 0,000 mm 0,9 UV-I 153 W/m² 1,5 °C 7,8 °C 14,5 km/h (3 Bft)
28.01.2018 14:47 8,6 °C 62 % 1035,0 hPa 0,0 mm 8,0 km/h (2 Bft) W-SW 247 ° 0 min 0,000 mm 0,9 UV-I 158 W/m² 1,7 °C 7,4 °C 14,5 km/h (3 Bft)
28.01.2018 14:48 8,6 °C 61 % 1035,0 hPa 0,0 mm 4,8 km/h (1 Bft) W-SW 247 ° 0 min 0,000 mm 0,9 UV-I 162 W/m² 1,5 °C 8,2 °C 8,0 km/h (2 Bft)
28.01.2018 14:50 8,7 °C 61 % 1035,0 hPa 0,0 mm 9,1 km/h (2 Bft) W 273 ° 0 min 0,000 mm 0,9 UV-I 155 W/m² 1,6 °C 7,2 °C 14,5 km/h (3 Bft)
28.01.2018 14:51 8,7 °C 61 % 1035,0 hPa 0,0 mm 8,4 km/h (2 Bft) W-SW 256 ° 0 min 0,000 mm 0,9 UV-I 149 W/m² 1,6 °C 7,4 °C 14,5 km/h (3 Bft)
28.01.2018 14:52 8,7 °C 61 % 1035,1 hPa 0,0 mm 12,7 km/h (3 Bft) W 272 ° 0 min 0,000 mm 0,9 UV-I 144 W/m² 1,6 °C 6,6 °C 16,1 km/h (3 Bft)
28.01.2018 14:53 8,6 °C 62 % 1035,1 hPa 0,0 mm 12,1 km/h (2 Bft) W-SW 238 ° 0 min 0,000 mm 0,9 UV-I 148 W/m² 1,7 °C 6,6 °C 19,3 km/h (3 Bft)
28.01.2018 14:54 8,7 °C 61 % 1035,1 hPa 0,0 mm 12,3 km/h (3 Bft) W-SW 257 ° 0 min 0,000 mm 0,9 UV-I 146 W/m² 1,6 °C 6,7 °C 16,1 km/h (3 Bft)
28.01.2018 14:55 8,6 °C 62 % 1035,0 hPa 0,0 mm 11,1 km/h (2 Bft) W-SW 250 ° 0 min 0,000 mm 0,9 UV-I 144 W/m² 1,7 °C 6,8 °C 17,7 km/h (3 Bft)
28.01.2018 14:56 8,6 °C 61 % 1034,9 hPa 0,0 mm 10,0 km/h (2 Bft) W 268 ° 0 min 0,000 mm 0,8 UV-I 144 W/m² 1,5 °C 7,0 °C 14,5 km/h (3 Bft)
28.01.2018 14:57 8,6 °C 62 % 1035,0 hPa 0,0 mm 8,1 km/h (2 Bft) W-SW 254 ° 0 min 0,000 mm 0,8 UV-I 151 W/m² 1,7 °C 7,3 °C 11,3 km/h (2 Bft)
28.01.2018 14:58 8,6 °C 62 % 1035,1 hPa 0,0 mm 6,2 km/h (2 Bft) W 269 ° 0 min 0,000 mm 0,8 UV-I 142 W/m² 1,7 °C 7,8 °C 11,3 km/h (2 Bft)
28.01.2018 14:59 8,6 °C 62 % 1035,1 hPa 0,0 mm 9,3 km/h (2 Bft) W-SW 237 ° 0 min 0,000 mm 0,8 UV-I 146 W/m² 1,7 °C 7,1 °C 14,5 km/h (3 Bft)
28.01.2018 15:00 8,7 °C 61 % 1035,0 hPa 0,0 mm 8,0 km/h (2 Bft) W 269 ° 0 min 0,101 mm 0,8 UV-I 160 W/m² 1,6 °C 7,5 °C 12,9 km/h (3 Bft)
28.01.2018 15:01 8,7 °C 61 % 1035,0 hPa 0,0 mm 8,9 km/h (2 Bft) W 281 ° 0 min 0,000 mm 0,8 UV-I 128 W/m² 1,6 °C 7,3 °C 16,1 km/h (3 Bft)
28.01.2018 15:02 8,7 °C 60 % 1035,0 hPa 0,0 mm 12,1 km/h (2 Bft) SW 219 ° 0 min 0,000 mm 0,8 UV-I 132 W/m² 1,4 °C 6,7 °C 16,1 km/h (3 Bft)
28.01.2018 15:03 8,7 °C 61 % 1035,0 hPa 0,0 mm 7,3 km/h (2 Bft) W 269 ° 0 min 0,000 mm 0,8 UV-I 134 W/m² 1,6 °C 7,6 °C 11,3 km/h (2 Bft)
28.01.2018 15:04 8,7 °C 61 % 1035,0 hPa 0,0 mm 10,2 km/h (2 Bft) W 265 ° 0 min 0,000 mm 0,8 UV-I 148 W/m² 1,6 °C 7,0 °C 12,9 km/h (3 Bft)
28.01.2018 15:05 8,7 °C 61 % 1035,0 hPa 0,0 mm 9,1 km/h (2 Bft) W-NW 283 ° 0 min 0,000 mm 0,8 UV-I 142 W/m² 1,6 °C 7,2 °C 11,3 km/h (2 Bft)
28.01.2018 15:06 8,7 °C 61 % 1035,0 hPa 0,0 mm 9,1 km/h (2 Bft) W 269 ° 0 min 0,000 mm 0,8 UV-I 135 W/m² 1,6 °C 7,2 °C 12,9 km/h (3 Bft)
28.01.2018 15:07 8,7 °C 59 % 1035,0 hPa 0,0 mm 10,5 km/h (2 Bft) W-SW 252 ° 0 min 0,000 mm 0,8 UV-I 135 W/m² 1,1 °C 7,0 °C 17,7 km/h (3 Bft)
28.01.2018 15:08 8,7 °C 59 % 1035,0 hPa 0,0 mm 10,9 km/h (2 Bft) W-SW 244 ° 0 min 0,000 mm 0,8 UV-I 172 W/m² 1,1 °C 6,9 °C 17,7 km/h (3 Bft)
28.01.2018 15:09 8,8 °C 59 % 1035,0 hPa 0,0 mm 9,4 km/h (2 Bft) W-SW 258 ° 0 min 0,000 mm 0,8 UV-I 146 W/m² 1,2 °C 7,3 °C 16,1 km/h (3 Bft)
28.01.2018 15:10 8,7 °C 60 % 1035,0 hPa 0,0 mm 13,3 km/h (3 Bft) W 271 ° 0 min 0,000 mm 0,8 UV-I 246 W/m² 1,4 °C 6,5 °C 22,5 km/h (4 Bft)
28.01.2018 15:11 8,7 °C 60 % 1035,0 hPa 0,0 mm 8,8 km/h (2 Bft) SW 227 ° 0 min 0,000 mm 0,9 UV-I 202 W/m² 1,4 °C 7,3 °C 17,7 km/h (3 Bft)
28.01.2018 15:12 8,7 °C 60 % 1035,0 hPa 0,0 mm 8,3 km/h (2 Bft) W-NW 287 ° 0 min 0,000 mm 0,9 UV-I 200 W/m² 1,4 °C 7,4 °C 12,9 km/h (3 Bft)
28.01.2018 15:13 8,8 °C 61 % 1035,1 hPa 0,0 mm 6,1 km/h (2 Bft) W-SW 248 ° 0 min 0,000 mm 0,8 UV-I 195 W/m² 1,7 °C 8,1 °C 12,9 km/h (3 Bft)
28.01.2018 15:14 8,7 °C 60 % 1035,1 hPa 0,0 mm 7,3 km/h (2 Bft) SW 217 ° 0 min 0,000 mm 0,8 UV-I 195 W/m² 1,4 °C 7,6 °C 14,5 km/h (3 Bft)
28.01.2018 15:15 8,8 °C 60 % 1035,1 hPa 0,0 mm 8,8 km/h (2 Bft) W 262 ° 0 min 0,000 mm 0,8 UV-I 167 W/m² 1,5 °C 7,4 °C 11,3 km/h (2 Bft)
28.01.2018 15:16 8,8 °C 59 % 1035,1 hPa 0,0 mm 11,1 km/h (2 Bft) S-SW 213 ° 0 min 0,000 mm 0,8 UV-I 179 W/m² 1,2 °C 7,0 °C 17,7 km/h (3 Bft)
28.01.2018 15:17 8,8 °C 59 % 1035,1 hPa 0,0 mm 10,4 km/h (2 Bft) W-SW 254 ° 1 min 0,000 mm 0,9 UV-I 294 W/m² 1,2 °C 7,1 °C 14,5 km/h (3 Bft)
28.01.2018 15:18 8,8 °C 59 % 1035,0 hPa 0,0 mm 14,1 km/h (3 Bft) W-NW 300 ° 0 min 0,000 mm 0,8 UV-I 221 W/m² 1,2 °C 6,6 °C 19,3 km/h (3 Bft)
28.01.2018 15:19 8,8 °C 59 % 1035,1 hPa 0,0 mm 15,4 km/h (3 Bft) W 267 ° 0 min 0,000 mm 0,8 UV-I 193 W/m² 1,2 °C 6,4 °C 22,5 km/h (4 Bft)
28.01.2018 15:20 8,8 °C 60 % 1035,1 hPa 0,0 mm 15,7 km/h (3 Bft) W-SW 250 ° 0 min 0,000 mm 0,8 UV-I 202 W/m² 1,5 °C 6,3 °C 17,7 km/h (3 Bft)
28.01.2018 15:21 8,7 °C 60 % 1035,0 hPa 0,0 mm 15,0 km/h (3 Bft) W-SW 254 ° 0 min 0,000 mm 0,8 UV-I 137 W/m² 1,4 °C 6,3 °C 22,5 km/h (4 Bft)
28.01.2018 15:22 8,6 °C 59 % 1035,0 hPa 0,0 mm 12,1 km/h (2 Bft) W 268 ° 0 min 0,000 mm 0,8 UV-I 118 W/m² 1,0 °C 6,6 °C 20,9 km/h (4 Bft)
28.01.2018 15:23 8,6 °C 59 % 1035,0 hPa 0,0 mm 8,4 km/h (2 Bft) W 279 ° 0 min 0,000 mm 0,8 UV-I 192 W/m² 1,0 °C 7,3 °C 14,5 km/h (3 Bft)
28.01.2018 15:24 8,6 °C 59 % 1035,0 hPa 0,0 mm 10,9 km/h (2 Bft) W-SW 257 ° 0 min 0,000 mm 0,7 UV-I 118 W/m² 1,0 °C 6,8 °C 14,5 km/h (3 Bft)
28.01.2018 15:25 8,6 °C 59 % 1035,0 hPa 0,0 mm 9,1 km/h (2 Bft) W 264 ° 0 min 0,000 mm 0,8 UV-I 160 W/m² 1,0 °C 7,1 °C 16,1 km/h (3 Bft)
28.01.2018 15:26 8,6 °C 59 % 1035,0 hPa 0,0 mm 10,5 km/h (2 Bft) SW 234 ° 0 min 0,000 mm 0,8 UV-I 160 W/m² 1,0 °C 6,9 °C 14,5 km/h (3 Bft)
28.01.2018 15:27 8,7 °C 59 % 1035,0 hPa 0,0 mm 11,3 km/h (2 Bft) W 270 ° 0 min 0,000 mm 0,7 UV-I 204 W/m² 1,1 °C 6,9 °C 16,1 km/h (3 Bft)
28.01.2018 15:28 8,6 °C 58 % 1035,0 hPa 0,0 mm 11,3 km/h (2 Bft) W-SW 247 ° 0 min 0,000 mm 0,7 UV-I 186 W/m² 0,8 °C 6,7 °C 14,5 km/h (3 Bft)
28.01.2018 15:29 8,5 °C 59 % 1035,0 hPa 0,0 mm 8,0 km/h (2 Bft) W-SW 247 ° 0 min 0,000 mm 0,8 UV-I 123 W/m² 1,0 °C 7,2 °C 16,1 km/h (3 Bft)
28.01.2018 15:30 8,4 °C 59 % 1035,0 hPa 0,0 mm 11,3 km/h (2 Bft) W 270 ° 0 min 0,000 mm 0,7 UV-I 118 W/m² 0,9 °C 6,5 °C 19,3 km/h (3 Bft)
28.01.2018 15:31 8,4 °C 59 % 1035,0 hPa 0,0 mm 6,4 km/h (2 Bft) W 270 ° 0 min 0,000 mm 0,7 UV-I 146 W/m² 0,9 °C 7,5 °C 9,7 km/h (2 Bft)
28.01.2018 15:32 8,5 °C 59 % 1035,0 hPa 0,0 mm 3,2 km/h (1 Bft) SW 225 ° 0 min 0,000 mm 0,7 UV-I 100 W/m² 1,0 °C 8,5 °C 6,4 km/h (2 Bft)
28.01.2018 15:33 8,4 °C 60 % 1035,0 hPa 0,0 mm 3,2 km/h (1 Bft) W-SW 247 ° 0 min 0,000 mm 0,7 UV-I 128 W/m² 1,1 °C 8,4 °C 4,8 km/h (1 Bft)
28.01.2018 15:35 8,4 °C 60 % 1035,2 hPa 0,0 mm 7,4 km/h (2 Bft) W-SW 252 ° 0 min 0,000 mm 0,7 UV-I 84 W/m² 1,1 °C 7,3 °C 11,3 km/h (2 Bft)
28.01.2018 15:37 8,3 °C 60 % 1035,2 hPa 0,0 mm 11,3 km/h (2 Bft) W 276 ° 0 min 0,000 mm 0,6 UV-I 90 W/m² 1,0 °C 6,4 °C 20,9 km/h (4 Bft)
28.01.2018 15:38 8,3 °C 60 % 1035,2 hPa 0,0 mm 12,0 km/h (2 Bft) W 273 ° 0 min 0,000 mm 0,6 UV-I 91 W/m² 1,0 °C 6,3 °C 17,7 km/h (3 Bft)
28.01.2018 15:39 8,2 °C 60 % 1035,2 hPa 0,0 mm 9,6 km/h (2 Bft) W 277 ° 0 min 0,000 mm 0,6 UV-I 97 W/m² 0,9 °C 6,6 °C 16,1 km/h (3 Bft)
28.01.2018 15:40 8,2 °C 60 % 1035,2 hPa 0,0 mm 9,1 km/h (2 Bft) W 266 ° 0 min 0,000 mm 0,6 UV-I 98 W/m² 0,9 °C 6,7 °C 12,9 km/h (3 Bft)
28.01.2018 15:41 8,1 °C 61 % 1035,2 hPa 0,0 mm 12,1 km/h (2 Bft) W 267 ° 0 min 0,000 mm 0,6 UV-I 97 W/m² 1,0 °C 6,0 °C 17,7 km/h (3 Bft)
28.01.2018 15:42 8,1 °C 60 % 1035,1 hPa 0,0 mm 7,9 km/h (2 Bft) W 273 ° 0 min 0,000 mm 0,6 UV-I 100 W/m² 0,8 °C 6,8 °C 12,9 km/h (3 Bft)
28.01.2018 15:43 8,1 °C 61 % 1035,2 hPa 0,0 mm 9,7 km/h (2 Bft) W-SW 244 ° 0 min 0,000 mm 0,6 UV-I 104 W/m² 1,0 °C 6,4 °C 12,9 km/h (3 Bft)
28.01.2018 15:44 8,2 °C 61 % 1035,2 hPa 0,0 mm 8,1 km/h (2 Bft) W-SW 257 ° 0 min 0,000 mm 0,5 UV-I 104 W/m² 1,1 °C 6,9 °C 12,9 km/h (3 Bft)
28.01.2018 15:45 8,2 °C 60 % 1035,2 hPa 0,0 mm 10,9 km/h (2 Bft) W 261 ° 0 min 0,000 mm 0,5 UV-I 93 W/m² 0,9 °C 6,3 °C 12,9 km/h (3 Bft)
28.01.2018 15:46 8,2 °C 61 % 1035,0 hPa 0,0 mm 7,1 km/h (2 Bft) W-NW 285 ° 0 min 0,000 mm 0,5 UV-I 93 W/m² 1,1 °C 7,1 °C 12,9 km/h (3 Bft)
28.01.2018 15:47 8,2 °C 62 % 1035,0 hPa 0,0 mm 4,1 km/h (1 Bft) W 278 ° 0 min 0,000 mm 0,5 UV-I 97 W/m² 1,4 °C 8,2 °C 6,4 km/h (2 Bft)
28.01.2018 15:48 8,1 °C 61 % 1035,2 hPa 0,0 mm 10,6 km/h (2 Bft) W 271 ° 0 min 0,000 mm 0,5 UV-I 97 W/m² 1,0 °C 6,3 °C 16,1 km/h (3 Bft)
28.01.2018 15:49 8,1 °C 60 % 1035,2 hPa 0,0 mm 12,7 km/h (3 Bft) W 276 ° 0 min 0,000 mm 0,5 UV-I 97 W/m² 0,8 °C 5,9 °C 17,7 km/h (3 Bft)
28.01.2018 15:50 8,1 °C 61 % 1035,2 hPa 0,0 mm 11,9 km/h (2 Bft) W 277 ° 0 min 0,000 mm 0,0 UV-I 98 W/m² 1,0 °C 6,0 °C 17,7 km/h (3 Bft)
28.01.2018 15:51 8,2 °C 61 % 1035,2 hPa 0,0 mm 7,7 km/h (2 Bft) W-NW 294 ° 0 min 0,000 mm 0,0 UV-I 93 W/m² 1,1 °C 7,0 °C 12,9 km/h (3 Bft)
28.01.2018 15:52 8,1 °C 62 % 1035,1 hPa 0,0 mm 4,8 km/h (1 Bft) W-SW 242 ° 0 min 0,000 mm 0,0 UV-I 90 W/m² 1,3 °C 7,7 °C 9,7 km/h (2 Bft)
28.01.2018 15:53 8,2 °C 62 % 1035,1 hPa 0,0 mm 6,5 km/h (2 Bft) W 263 ° 0 min 0,000 mm 0,0 UV-I 84 W/m² 1,4 °C 7,3 °C 11,3 km/h (2 Bft)
28.01.2018 15:54 8,1 °C 62 % 1035,1 hPa 0,0 mm 5,7 km/h (1 Bft) W-SW 256 ° 0 min 0,000 mm 0,0 UV-I 83 W/m² 1,3 °C 7,4 °C 11,3 km/h (2 Bft)
28.01.2018 15:55 8,1 °C 61 % 1035,1 hPa 0,0 mm 7,9 km/h (2 Bft) W-SW 245 ° 0 min 0,000 mm 0,0 UV-I 83 W/m² 1,0 °C 6,8 °C 9,7 km/h (2 Bft)
28.01.2018 15:56 8,1 °C 62 % 1035,1 hPa 0,0 mm 6,1 km/h (2 Bft) W-SW 256 ° 0 min 0,000 mm 0,0 UV-I 81 W/m² 1,3 °C 7,3 °C 9,7 km/h (2 Bft)
28.01.2018 15:57 8,1 °C 62 % 1035,1 hPa 0,0 mm 7,7 km/h (2 Bft) W-NW 288 ° 0 min 0,000 mm 0,0 UV-I 74 W/m² 1,3 °C 6,8 °C 14,5 km/h (3 Bft)
28.01.2018 15:58 8,1 °C 61 % 1035,1 hPa 0,0 mm 10,8 km/h (2 Bft) W 275 ° 0 min 0,000 mm 0,0 UV-I 74 W/m² 1,0 °C 6,2 °C 14,5 km/h (3 Bft)
28.01.2018 15:59 8,2 °C 61 % 1035,1 hPa 0,0 mm 7,7 km/h (2 Bft) W-NW 288 ° 0 min 0,000 mm 0,0 UV-I 76 W/m² 1,1 °C 7,0 °C 11,3 km/h (2 Bft)
28.01.2018 16:00 8,2 °C 61 % 1035,1 hPa 0,0 mm 8,3 km/h (2 Bft) W 275 ° 0 min 0,000 mm 0,0 UV-I 74 W/m² 1,1 °C 6,8 °C 12,9 km/h (3 Bft)
28.01.2018 16:01 8,2 °C 62 % 1035,1 hPa 0,0 mm 7,6 km/h (2 Bft) W-SW 256 ° 0 min 0,102 mm 0,0 UV-I 69 W/m² 1,4 °C 7,0 °C 11,3 km/h (2 Bft)
28.01.2018 16:02 8,1 °C 62 % 1035,2 hPa 0,0 mm 5,6 km/h (1 Bft) W-SW 252 ° 0 min 0,000 mm 0,0 UV-I 67 W/m² 1,3 °C 7,4 °C 6,4 km/h (2 Bft)
28.01.2018 16:03 8,1 °C 63 % 1035,2 hPa 0,0 mm 7,8 km/h (2 Bft) W-NW 296 ° 0 min 0,000 mm 0,0 UV-I 69 W/m² 1,5 °C 6,8 °C 12,9 km/h (3 Bft)
28.01.2018 16:04 8,0 °C 63 % 1035,2 hPa 0,0 mm 4,7 km/h (1 Bft) W-SW 247 ° 0 min 0,000 mm 0,0 UV-I 67 W/m² 1,4 °C 7,6 °C 6,4 km/h (2 Bft)
28.01.2018 16:05 7,9 °C 63 % 1035,1 hPa 0,0 mm 9,5 km/h (2 Bft) W-SW 257 ° 0 min 0,000 mm 0,0 UV-I 63 W/m² 1,3 °C 6,2 °C 14,5 km/h (3 Bft)
28.01.2018 16:06 7,9 °C 63 % 1035,2 hPa 0,0 mm 5,8 km/h (2 Bft) W-SW 257 ° 0 min 0,000 mm 0,0 UV-I 60 W/m² 1,3 °C 7,1 °C 9,7 km/h (2 Bft)
28.01.2018 16:07 7,9 °C 63 % 1035,2 hPa 0,0 mm 4,8 km/h (1 Bft) W-SW 252 ° 0 min 0,000 mm 0,0 UV-I 56 W/m² 1,3 °C 7,4 °C 9,7 km/h (2 Bft)
28.01.2018 16:08 7,9 °C 63 % 1035,1 hPa 0,0 mm 10,3 km/h (2 Bft) W 265 ° 0 min 0,000 mm 0,0 UV-I 60 W/m² 1,3 °C 6,1 °C 14,5 km/h (3 Bft)
28.01.2018 16:09 7,9 °C 63 % 1035,1 hPa 0,0 mm 10,3 km/h (2 Bft) W-SW 255 ° 0 min 0,000 mm 0,0 UV-I 62 W/m² 1,3 °C 6,1 °C 14,5 km/h (3 Bft)
28.01.2018 16:10 7,9 °C 63 % 1035,1 hPa 0,0 mm 6,2 km/h (2 Bft) W-SW 255 ° 0 min 0,000 mm 0,0 UV-I 65 W/m² 1,3 °C 7,0 °C 8,0 km/h (2 Bft)
28.01.2018 16:11 8,0 °C 63 % 1035,1 hPa 0,0 mm 5,1 km/h (1 Bft) SW 226 ° 0 min 0,000 mm 0,0 UV-I 63 W/m² 1,4 °C 7,5 °C 8,0 km/h (2 Bft)
28.01.2018 16:12 8,0 °C 62 % 1035,1 hPa 0,0 mm 4,5 km/h (1 Bft) W 263 ° 0 min 0,000 mm 0,0 UV-I 58 W/m² 1,2 °C 8,0 °C 8,0 km/h (2 Bft)
28.01.2018 16:13 8,1 °C 63 % 1035,1 hPa 0,0 mm 6,0 km/h (2 Bft) W 260 ° 0 min 0,000 mm 0,0 UV-I 56 W/m² 1,5 °C 7,3 °C 9,7 km/h (2 Bft)
28.01.2018 16:14 8,1 °C 63 % 1035,2 hPa 0,0 mm 4,6 km/h (1 Bft) W-SW 250 ° 0 min 0,000 mm 0,0 UV-I 58 W/m² 1,5 °C 7,7 °C 9,7 km/h (2 Bft)
28.01.2018 16:15 8,1 °C 62 % 1035,2 hPa 0,0 mm 9,5 km/h (2 Bft) SW 229 ° 0 min 0,000 mm 0,0 UV-I 58 W/m² 1,3 °C 6,5 °C 14,5 km/h (3 Bft)
28.01.2018 16:16 8,1 °C 62 % 1035,2 hPa 0,0 mm 8,4 km/h (2 Bft) SW 224 ° 0 min 0,000 mm 0,0 UV-I 58 W/m² 1,3 °C 6,7 °C 14,5 km/h (3 Bft)
28.01.2018 16:17 8,1 °C 62 % 1035,2 hPa 0,0 mm 10,9 km/h (2 Bft) SW 230 ° 0 min 0,000 mm 0,0 UV-I 58 W/m² 1,3 °C 6,2 °C 14,5 km/h (3 Bft)
28.01.2018 16:18 8,2 °C 61 % 1035,2 hPa 0,0 mm 6,4 km/h (2 Bft) W-NW 302 ° 0 min 0,000 mm 0,0 UV-I 58 W/m² 1,1 °C 7,3 °C 12,9 km/h (3 Bft)
28.01.2018 16:19 8,1 °C 62 % 1035,2 hPa 0,0 mm 9,7 km/h (2 Bft) W 262 ° 0 min 0,000 mm 0,0 UV-I 56 W/m² 1,3 °C 6,4 °C 12,9 km/h (3 Bft)
28.01.2018 16:20 8,1 °C 63 % 1035,2 hPa 0,0 mm 5,7 km/h (1 Bft) SW 225 ° 0 min 0,000 mm 0,0 UV-I 47 W/m² 1,5 °C 7,4 °C 9,7 km/h (2 Bft)
28.01.2018 16:21 8,1 °C 62 % 1035,2 hPa 0,0 mm 8,5 km/h (2 Bft) W-SW 249 ° 0 min 0,000 mm 0,0 UV-I 46 W/m² 1,3 °C 6,7 °C 14,5 km/h (3 Bft)
28.01.2018 16:22 8,1 °C 63 % 1035,2 hPa 0,0 mm 9,6 km/h (2 Bft) W 269 ° 0 min 0,000 mm 0,0 UV-I 44 W/m² 1,5 °C 6,4 °C 14,5 km/h (3 Bft)
28.01.2018 16:23 8,0 °C 63 % 1035,2 hPa 0,0 mm 8,6 km/h (2 Bft) W 260 ° 0 min 0,000 mm 0,0 UV-I 44 W/m² 1,4 °C 6,5 °C 16,1 km/h (3 Bft)
28.01.2018 16:24 8,0 °C 62 % 1035,2 hPa 0,0 mm 11,2 km/h (2 Bft) W-SW 254 ° 0 min 0,000 mm 0,0 UV-I 44 W/m² 1,2 °C 6,0 °C 14,5 km/h (3 Bft)
28.01.2018 16:25 7,9 °C 63 % 1035,1 hPa 0,0 mm 8,4 km/h (2 Bft) W 259 ° 0 min 0,000 mm 0,0 UV-I 40 W/m² 1,3 °C 6,5 °C 12,9 km/h (3 Bft)
28.01.2018 16:26 7,9 °C 63 % 1035,2 hPa 0,0 mm 9,0 km/h (2 Bft) W 260 ° 0 min 0,000 mm 0,0 UV-I 39 W/m² 1,3 °C 6,3 °C 12,9 km/h (3 Bft)
28.01.2018 16:27 7,9 °C 62 % 1035,0 hPa 0,0 mm 8,4 km/h (2 Bft) W 276 ° 0 min 0,000 mm 0,0 UV-I 39 W/m² 1,1 °C 6,5 °C 12,9 km/h (3 Bft)
28.01.2018 16:28 7,9 °C 62 % 1035,1 hPa 0,0 mm 9,8 km/h (2 Bft) W 274 ° 0 min 0,000 mm 0,0 UV-I 40 W/m² 1,1 °C 6,2 °C 16,1 km/h (3 Bft)
28.01.2018 16:29 7,9 °C 63 % 1035,0 hPa 0,0 mm 7,9 km/h (2 Bft) W 269 ° 0 min 0,000 mm 0,0 UV-I 39 W/m² 1,3 °C 6,6 °C 16,1 km/h (3 Bft)
28.01.2018 16:30 7,8 °C 63 % 1035,0 hPa 0,0 mm 10,3 km/h (2 Bft) W 281 ° 0 min 0,000 mm 0,0 UV-I 39 W/m² 1,2 °C 5,9 °C 16,1 km/h (3 Bft)
28.01.2018 16:31 7,9 °C 63 % 1035,0 hPa 0,0 mm 8,0 km/h (2 Bft) W 277 ° 0 min 0,000 mm 0,0 UV-I 39 W/m² 1,3 °C 6,5 °C 9,7 km/h (2 Bft)
28.01.2018 16:32 7,8 °C 63 % 1035,0 hPa 0,0 mm 11,3 km/h (2 Bft) W 270 ° 0 min 0,000 mm 0,0 UV-I 35 W/m² 1,2 °C 5,8 °C 16,1 km/h (3 Bft)
28.01.2018 16:33 7,8 °C 63 % 1035,0 hPa 0,0 mm 11,3 km/h (2 Bft) W 270 ° 0 min 0,000 mm 0,0 UV-I 32 W/m² 1,2 °C 5,8 °C 16,1 km/h (3 Bft)
28.01.2018 16:34 7,8 °C 64 % 1035,0 hPa 0,0 mm 9,7 km/h (2 Bft) W 270 ° 0 min 0,000 mm 0,0 UV-I 30 W/m² 1,4 °C 6,1 °C 12,9 km/h (3 Bft)
28.01.2018 16:35 7,8 °C 63 % 1035,0 hPa 0,0 mm 9,7 km/h (2 Bft) W 270 ° 0 min 0,000 mm 0,0 UV-I 28 W/m² 1,2 °C 6,1 °C 14,5 km/h (3 Bft)
28.01.2018 16:36 7,8 °C 64 % 1035,0 hPa 0,0 mm 9,7 km/h (2 Bft) W 270 ° 0 min 0,000 mm 0,0 UV-I 26 W/m² 1,4 °C 6,1 °C 14,5 km/h (3 Bft)
28.01.2018 16:37 7,7 °C 64 % 1035,0 hPa 0,0 mm 11,3 km/h (2 Bft) W 270 ° 0 min 0,000 mm 0,0 UV-I 26 W/m² 1,3 °C 5,6 °C 14,5 km/h (3 Bft)
28.01.2018 16:38 7,7 °C 64 % 1035,0 hPa 0,0 mm 8,0 km/h (2 Bft) W 270 ° 0 min 0,000 mm 0,0 UV-I 25 W/m² 1,3 °C 6,3 °C 12,9 km/h (3 Bft)
28.01.2018 16:40 7,6 °C 64 % 1035,0 hPa 0,0 mm 6,5 km/h (2 Bft) W 273 ° 0 min 0,000 mm 0,0 UV-I 21 W/m² 1,2 °C 6,6 °C 11,3 km/h (2 Bft)
28.01.2018 16:42 7,5 °C 65 % 1035,1 hPa 0,0 mm 6,1 km/h (2 Bft) W 263 ° 0 min 0,000 mm 0,0 UV-I 19 W/m² 1,4 °C 6,6 °C 11,3 km/h (2 Bft)
28.01.2018 16:43 7,4 °C 65 % 1035,0 hPa 0,0 mm 5,2 km/h (1 Bft) W 271 ° 0 min 0,000 mm 0,0 UV-I 16 W/m² 1,3 °C 6,7 °C 8,0 km/h (2 Bft)
28.01.2018 16:44 7,4 °C 65 % 1035,0 hPa 0,0 mm 3,2 km/h (1 Bft) W 262 ° 0 min 0,000 mm 0,0 UV-I 14 W/m² 1,3 °C 7,4 °C 4,8 km/h (1 Bft)
28.01.2018 16:45 7,5 °C 64 % 1035,0 hPa 0,0 mm 6,4 km/h (2 Bft) W-SW 247 ° 0 min 0,000 mm 0,0 UV-I 14 W/m² 1,1 °C 6,5 °C 11,3 km/h (2 Bft)
28.01.2018 16:48 7,5 °C 65 % 1034,9 hPa 0,0 mm 3,1 km/h (1 Bft) W 259 ° 0 min 0,000 mm 0,0 UV-I 12 W/m² 1,4 °C 7,5 °C 4,8 km/h (1 Bft)
28.01.2018 16:49 7,5 °C 65 % 1035,0 hPa 0,0 mm 4,6 km/h (1 Bft) W-SW 238 ° 0 min 0,000 mm 0,0 UV-I 11 W/m² 1,4 °C 7,1 °C 6,4 km/h (2 Bft)
28.01.2018 16:50 7,6 °C 65 % 1034,9 hPa 0,0 mm 3,4 km/h (1 Bft) W-SW 238 ° 0 min 0,000 mm 0,0 UV-I 11 W/m² 1,5 °C 7,6 °C 4,8 km/h (1 Bft)
28.01.2018 16:52 7,6 °C 65 % 1035,0 hPa 0,0 mm 2,9 km/h (1 Bft) W-SW 248 ° 0 min 0,000 mm 0,0 UV-I 11 W/m² 1,5 °C 7,6 °C 6,4 km/h (2 Bft)
28.01.2018 16:53 7,6 °C 65 % 1035,0 hPa 0,0 mm 2,3 km/h (1 Bft) SW 225 ° 0 min 0,000 mm 0,0 UV-I 11 W/m² 1,5 °C 7,6 °C 6,4 km/h (2 Bft)
28.01.2018 16:54 7,6 °C 64 % 1034,8 hPa 0,0 mm 3,8 km/h (1 Bft) SW 225 ° 0 min 0,000 mm 0,0 UV-I 9 W/m² 1,2 °C 7,6 °C 4,8 km/h (1 Bft)
28.01.2018 16:55 7,7 °C 64 % 1034,9 hPa 0,0 mm 5,0 km/h (1 Bft) SW 219 ° 0 min 0,000 mm 0,0 UV-I 9 W/m² 1,3 °C 7,1 °C 6,4 km/h (2 Bft)
28.01.2018 16:56 7,7 °C 64 % 1034,8 hPa 0,0 mm 4,3 km/h (1 Bft) SW 235 ° 0 min 0,000 mm 0,0 UV-I 9 W/m² 1,3 °C 7,7 °C 6,4 km/h (2 Bft)
28.01.2018 16:57 7,7 °C 64 % 1034,9 hPa 0,0 mm 4,6 km/h (1 Bft) SW 226 ° 0 min 0,000 mm 0,0 UV-I 9 W/m² 1,3 °C 7,3 °C 9,7 km/h (2 Bft)
28.01.2018 16:58 7,7 °C 64 % 1034,9 hPa 0,0 mm 2,7 km/h (1 Bft) SW 236 ° 0 min 0,000 mm 0,0 UV-I 9 W/m² 1,3 °C 7,7 °C 4,8 km/h (1 Bft)
28.01.2018 16:59 7,7 °C 64 % 1034,8 hPa 0,0 mm 4,1 km/h (1 Bft) SW 231 ° 0 min 0,000 mm 0,0 UV-I 9 W/m² 1,3 °C 7,7 °C 8,0 km/h (2 Bft)
28.01.2018 17:00 7,7 °C 64 % 1034,8 hPa 0,0 mm 5,0 km/h (1 Bft) SW 223 ° 0 min 0,000 mm 0,0 UV-I 7 W/m² 1,3 °C 7,1 °C 6,4 km/h (2 Bft)
28.01.2018 17:01 7,7 °C 64 % 1034,9 hPa 0,0 mm 5,1 km/h (1 Bft) SW 226 ° 0 min 0,051 mm 0,0 UV-I 7 W/m² 1,3 °C 7,1 °C 8,0 km/h (2 Bft)
28.01.2018 17:02 7,7 °C 64 % 1034,9 hPa 0,0 mm 4,0 km/h (1 Bft) W 259 ° 0 min 0,000 mm 0,0 UV-I 7 W/m² 1,3 °C 7,7 °C 9,7 km/h (2 Bft)
28.01.2018 17:03 7,8 °C 64 % 1034,9 hPa 0,0 mm 2,9 km/h (1 Bft) SW 234 ° 0 min 0,000 mm 0,0 UV-I 7 W/m² 1,4 °C 7,8 °C 4,8 km/h (1 Bft)
28.01.2018 17:04 7,8 °C 64 % 1034,9 hPa 0,0 mm 3,2 km/h (1 Bft) W-SW 252 ° 0 min 0,000 mm 0,0 UV-I 7 W/m² 1,4 °C 7,8 °C 9,7 km/h (2 Bft)
28.01.2018 17:05 7,8 °C 64 % 1034,9 hPa 0,0 mm 3,8 km/h (1 Bft) SW 236 ° 0 min 0,000 mm 0,0 UV-I 7 W/m² 1,4 °C 7,8 °C 6,4 km/h (2 Bft)
28.01.2018 17:06 7,7 °C 64 % 1034,9 hPa 0,0 mm 3,2 km/h (1 Bft) SW 236 ° 0 min 0,000 mm 0,0 UV-I 7 W/m² 1,3 °C 7,7 °C 4,8 km/h (1 Bft)
28.01.2018 17:07 7,7 °C 64 % 1034,9 hPa 0,0 mm 2,1 km/h (1 Bft) SW 236 ° 0 min 0,000 mm 0,0 UV-I 5 W/m² 1,3 °C 7,7 °C 4,8 km/h (1 Bft)
28.01.2018 17:08 7,7 °C 64 % 1034,9 hPa 0,0 mm 3,0 km/h (1 Bft) W 278 ° 0 min 0,000 mm 0,0 UV-I 5 W/m² 1,3 °C 7,7 °C 4,8 km/h (1 Bft)
28.01.2018 17:09 7,7 °C 64 % 1035,0 hPa 0,0 mm 4,0 km/h (1 Bft) W-SW 254 ° 0 min 0,000 mm 0,0 UV-I 5 W/m² 1,3 °C 7,7 °C 6,4 km/h (2 Bft)
28.01.2018 17:10 7,6 °C 65 % 1034,9 hPa 0,0 mm 3,5 km/h (1 Bft) W-SW 254 ° 0 min 0,000 mm 0,0 UV-I 5 W/m² 1,5 °C 7,6 °C 4,8 km/h (1 Bft)
28.01.2018 17:11 7,5 °C 65 % 1035,0 hPa 0,0 mm 3,1 km/h (1 Bft) W-SW 254 ° 0 min 0,000 mm 0,0 UV-I 5 W/m² 1,4 °C 7,5 °C 4,8 km/h (1 Bft)
28.01.2018 17:12 7,4 °C 66 % 1035,0 hPa 0,0 mm 1,9 km/h (1 Bft) W-SW 254 ° 0 min 0,000 mm 0,0 UV-I 5 W/m² 1,5 °C 7,4 °C 3,2 km/h (1 Bft)
28.01.2018 17:13 7,4 °C 66 % 1035,1 hPa 0,0 mm 2,1 km/h (1 Bft) W-SW 254 ° 0 min 0,000 mm 0,0 UV-I 0 W/m² 1,5 °C 7,4 °C 3,2 km/h (1 Bft)
28.01.2018 17:14 7,3 °C 66 % 1035,0 hPa 0,0 mm 2,7 km/h (1 Bft) W-SW 254 ° 0 min 0,000 mm 0,0 UV-I 0 W/m² 1,4 °C 7,3 °C 4,8 km/h (1 Bft)
28.01.2018 17:15 7,3 °C 66 % 1035,0 hPa 0,0 mm 2,4 km/h (1 Bft) W-SW 254 ° 0 min 0,000 mm 0,0 UV-I 0 W/m² 1,4 °C 7,3 °C 3,2 km/h (1 Bft)
28.01.2018 17:16 7,3 °C 66 % 1035,0 hPa 0,0 mm 2,7 km/h (1 Bft) W-SW 254 ° 0 min 0,000 mm 0,0 UV-I 0 W/m² 1,4 °C 7,3 °C 3,2 km/h (1 Bft)
28.01.2018 17:17 7,3 °C 66 % 1035,0 hPa 0,0 mm 2,6 km/h (1 Bft) W-SW 246 ° 0 min 0,000 mm 0,0 UV-I 0 W/m² 1,4 °C 7,3 °C 4,8 km/h (1 Bft)
28.01.2018 17:18 7,3 °C 65 % 1035,0 hPa 0,0 mm 2,3 km/h (1 Bft) W-SW 246 ° 0 min 0,000 mm 0,0 UV-I 0 W/m² 1,2 °C 7,3 °C 4,8 km/h (1 Bft)
28.01.2018 17:19 7,3 °C 65 % 1035,0 hPa 0,0 mm 1,1 km/h (1 Bft) W-SW 246 ° 0 min 0,000 mm 0,0 UV-I 0 W/m² 1,2 °C 7,3 °C 3,2 km/h (1 Bft)
28.01.2018 17:20 7,3 °C 65 % 1035,1 hPa 0,0 mm 1,9 km/h (1 Bft) W-SW 246 ° 0 min 0,000 mm 0,0 UV-I 0 W/m² 1,2 °C 7,3 °C 4,8 km/h (1 Bft)
28.01.2018 17:21 7,3 °C 66 % 1035,1 hPa 0,0 mm 3,8 km/h (1 Bft) S-SW 212 ° 0 min 0,000 mm 0,0 UV-I 0 W/m² 1,4 °C 7,3 °C 8,0 km/h (2 Bft)
28.01.2018 17:22 7,3 °C 66 % 1035,1 hPa 0,0 mm 3,7 km/h (1 Bft) S-SW 212 ° 0 min 0,000 mm 0,0 UV-I 0 W/m² 1,4 °C 7,3 °C 6,4 km/h (2 Bft)
28.01.2018 17:23 7,3 °C 65 % 1035,0 hPa 0,0 mm 3,4 km/h (1 Bft) W-SW 251 ° 0 min 0,000 mm 0,0 UV-I 0 W/m² 1,2 °C 7,3 °C 6,4 km/h (2 Bft)
28.01.2018 17:24 7,3 °C 66 % 1035,1 hPa 0,0 mm 3,5 km/h (1 Bft) SW 224 ° 0 min 0,000 mm 0,0 UV-I 0 W/m² 1,4 °C 7,3 °C 6,4 km/h (2 Bft)
28.01.2018 17:25 7,3 °C 66 % 1035,1 hPa 0,0 mm 3,7 km/h (1 Bft) W-SW 250 ° 0 min 0,000 mm 0,0 UV-I 0 W/m² 1,4 °C 7,3 °C 4,8 km/h (1 Bft)
28.01.2018 17:26 7,3 °C 65 % 1035,0 hPa 0,0 mm 4,6 km/h (1 Bft) W-SW 237 ° 0 min 0,000 mm 0,0 UV-I 0 W/m² 1,2 °C 6,8 °C 6,4 km/h (2 Bft)
28.01.2018 17:27 7,4 °C 65 % 1035,0 hPa 0,0 mm 2,8 km/h (1 Bft) W-SW 249 ° 0 min 0,000 mm 0,0 UV-I 0 W/m² 1,3 °C 7,4 °C 6,4 km/h (2 Bft)
28.01.2018 17:28 7,4 °C 65 % 1035,0 hPa 0,0 mm 2,7 km/h (1 Bft) W-SW 240 ° 0 min 0,000 mm 0,0 UV-I 0 W/m² 1,3 °C 7,4 °C 4,8 km/h (1 Bft)
28.01.2018 17:29 7,4 °C 65 % 1035,0 hPa 0,0 mm 2,5 km/h (1 Bft) W-SW 240 ° 0 min 0,000 mm 0,0 UV-I 0 W/m² 1,3 °C 7,4 °C 3,2 km/h (1 Bft)
28.01.2018 17:30 7,5 °C 65 % 1035,1 hPa 0,0 mm 3,8 km/h (1 Bft) W 260 ° 0 min 0,000 mm 0,0 UV-I 0 W/m² 1,4 °C 7,5 °C 4,8 km/h (1 Bft)
28.01.2018 17:31 7,5 °C 65 % 1035,1 hPa 0,0 mm 3,4 km/h (1 Bft) W 272 ° 0 min 0,000 mm 0,0 UV-I 0 W/m² 1,4 °C 7,5 °C 6,4 km/h (2 Bft)
28.01.2018 17:32 7,4 °C 65 % 1035,1 hPa 0,0 mm 3,0 km/h (1 Bft) W-SW 238 ° 0 min 0,000 mm 0,0 UV-I 0 W/m² 1,3 °C 7,4 °C 4,8 km/h (1 Bft)
28.01.2018 17:33 7,4 °C 65 % 1035,1 hPa 0,0 mm 1,6 km/h (1 Bft) W-SW 238 ° 0 min 0,000 mm 0,0 UV-I 0 W/m² 1,3 °C 7,4 °C 3,2 km/h (1 Bft)
28.01.2018 17:34 7,4 °C 65 % 1035,0 hPa 0,0 mm 5,2 km/h (1 Bft) W-SW 249 ° 0 min 0,000 mm 0,0 UV-I 0 W/m² 1,3 °C 6,7 °C 8,0 km/h (2 Bft)
28.01.2018 17:35 7,4 °C 65 % 1035,2 hPa 0,0 mm 4,7 km/h (1 Bft) W-SW 257 ° 0 min 0,000 mm 0,0 UV-I 0 W/m² 1,3 °C 6,9 °C 9,7 km/h (2 Bft)
28.01.2018 17:36 7,4 °C 65 % 1035,0 hPa 0,0 mm 1,2 km/h (1 Bft) W 261 ° 0 min 0,000 mm 0,0 UV-I 0 W/m² 1,3 °C 7,4 °C 4,8 km/h (1 Bft)
28.01.2018 17:37 7,4 °C 65 % 1035,2 hPa 0,0 mm 4,8 km/h (1 Bft) W 269 ° 0 min 0,000 mm 0,0 UV-I 0 W/m² 1,3 °C 6,9 °C 6,4 km/h (2 Bft)
28.01.2018 17:38 7,3 °C 65 % 1035,2 hPa 0,0 mm 2,8 km/h (1 Bft) W 269 ° 0 min 0,000 mm 0,0 UV-I 0 W/m² 1,2 °C 7,3 °C 3,2 km/h (1 Bft)
28.01.2018 17:39 7,3 °C 65 % 1035,1 hPa 0,0 mm 0,1 km/h (0 Bft) W 269 ° 0 min 0,000 mm 0,0 UV-I 0 W/m² 1,2 °C 7,3 °C 1,6 km/h (1 Bft)
28.01.2018 17:40 7,3 °C 66 % 1035,2 hPa 0,0 mm 3,2 km/h (1 Bft) W 263 ° 0 min 0,000 mm 0,0 UV-I 0 W/m² 1,4 °C 7,3 °C 6,4 km/h (2 Bft)
28.01.2018 17:41 7,3 °C 66 % 1035,2 hPa 0,0 mm 2,6 km/h (1 Bft) W 260 ° 0 min 0,000 mm 0,0 UV-I 0 W/m² 1,4 °C 7,3 °C 6,4 km/h (2 Bft)
28.01.2018 17:42 7,2 °C 66 % 1035,2 hPa 0,0 mm 0,5 km/h (0 Bft) W 260 ° 0 min 0,000 mm 0,0 UV-I 0 W/m² 1,3 °C 7,2 °C 3,2 km/h (1 Bft)
28.01.2018 17:43 7,2 °C 66 % 1035,2 hPa 0,0 mm 1,5 km/h (1 Bft) W 260 ° 0 min 0,000 mm 0,0 UV-I 0 W/m² 1,3 °C 7,2 °C 3,2 km/h (1 Bft)
28.01.2018 17:44 7,2 °C 66 % 1035,2 hPa 0,0 mm 1,0 km/h (0 Bft) W 260 ° 0 min 0,000 mm 0,0 UV-I 0 W/m² 1,3 °C 7,2 °C 3,2 km/h (1 Bft)
28.01.2018 17:45 7,3 °C 66 % 1035,2 hPa 0,0 mm 2,6 km/h (1 Bft) W-SW 248 ° 0 min 0,000 mm 0,0 UV-I 0 W/m² 1,4 °C 7,3 °C 8,0 km/h (2 Bft)
28.01.2018 17:46 7,3 °C 66 % 1035,2 hPa 0,0 mm 3,4 km/h (1 Bft) W 273 ° 0 min 0,000 mm 0,0 UV-I 0 W/m² 1,4 °C 7,3 °C 6,4 km/h (2 Bft)
28.01.2018 17:47 7,2 °C 66 % 1035,3 hPa 0,0 mm 7,9 km/h (2 Bft) W-NW 284 ° 0 min 0,000 mm 0,0 UV-I 0 W/m² 1,3 °C 5,7 °C 12,9 km/h (3 Bft)
28.01.2018 17:48 7,2 °C 66 % 1035,3 hPa 0,0 mm 4,4 km/h (1 Bft) W 263 ° 0 min 0,000 mm 0,0 UV-I 0 W/m² 1,3 °C 7,2 °C 9,7 km/h (2 Bft)
28.01.2018 17:49 7,1 °C 66 % 1035,2 hPa 0,0 mm 7,0 km/h (2 Bft) W 281 ° 0 min 0,000 mm 0,0 UV-I 0 W/m² 1,2 °C 5,9 °C 12,9 km/h (3 Bft)
28.01.2018 17:50 7,1 °C 67 % 1035,3 hPa 0,0 mm 5,6 km/h (1 Bft) W 264 ° 0 min 0,000 mm 0,0 UV-I 0 W/m² 1,4 °C 6,3 °C 9,7 km/h (2 Bft)
28.01.2018 17:51 7,1 °C 66 % 1035,3 hPa 0,0 mm 4,9 km/h (1 Bft) W 263 ° 0 min 0,000 mm 0,0 UV-I 0 W/m² 1,2 °C 6,5 °C 8,0 km/h (2 Bft)
28.01.2018 17:52 7,0 °C 67 % 1035,3 hPa 0,0 mm 6,1 km/h (2 Bft) W 269 ° 0 min 0,000 mm 0,0 UV-I 0 W/m² 1,3 °C 6,0 °C 9,7 km/h (2 Bft)
28.01.2018 17:53 6,9 °C 67 % 1035,3 hPa 0,0 mm 3,8 km/h (1 Bft) W-NW 298 ° 0 min 0,000 mm 0,0 UV-I 0 W/m² 1,2 °C 6,9 °C 6,4 km/h (2 Bft)
28.01.2018 17:54 6,9 °C 67 % 1035,4 hPa 0,0 mm 2,4 km/h (1 Bft) W-NW 293 ° 0 min 0,000 mm 0,0 UV-I 0 W/m² 1,2 °C 6,9 °C 6,4 km/h (2 Bft)
28.01.2018 17:55 6,9 °C 67 % 1035,3 hPa 0,0 mm 3,8 km/h (1 Bft) W 259 ° 0 min 0,000 mm 0,0 UV-I 0 W/m² 1,2 °C 6,9 °C 6,4 km/h (2 Bft)
28.01.2018 17:56 6,9 °C 67 % 1035,4 hPa 0,0 mm 5,6 km/h (1 Bft) W 281 ° 0 min 0,000 mm 0,0 UV-I 0 W/m² 1,2 °C 6,0 °C 6,4 km/h (2 Bft)
28.01.2018 17:57 6,8 °C 68 % 1035,4 hPa 0,0 mm 6,4 km/h (2 Bft) W 270 ° 0 min 0,000 mm 0,0 UV-I 0 W/m² 1,3 °C 5,7 °C 11,3 km/h (2 Bft)
28.01.2018 17:58 6,8 °C 68 % 1035,4 hPa 0,0 mm 3,2 km/h (1 Bft) W 270 ° 0 min 0,000 mm 0,0 UV-I 0 W/m² 1,3 °C 6,8 °C 4,8 km/h (1 Bft)
28.01.2018 17:59 6,8 °C 68 % 1035,5 hPa 0,0 mm 3,2 km/h (1 Bft) W 270 ° 0 min 0,000 mm 0,0 UV-I 0 W/m² 1,3 °C 6,8 °C 11,3 km/h (2 Bft)
28.01.2018 18:00 6,7 °C 68 % 1035,5 hPa 0,0 mm 4,8 km/h (1 Bft) W 270 ° 0 min 0,025 mm 0,0 UV-I 0 W/m² 1,2 °C 6,1 °C 9,7 km/h (2 Bft)
28.01.2018 18:01 6,7 °C 68 % 1035,4 hPa 0,0 mm 4,8 km/h (1 Bft) W 270 ° 0 min 0,000 mm 0,0 UV-I 0 W/m² 1,2 °C 6,1 °C 6,4 km/h (2 Bft)
28.01.2018 18:02 6,7 °C 68 % 1035,4 hPa 0,0 mm 6,4 km/h (2 Bft) W 270 ° 0 min 0,000 mm 0,0 UV-I 0 W/m² 1,2 °C 5,6 °C 11,3 km/h (2 Bft)
28.01.2018 18:03 6,7 °C 68 % 1035,4 hPa 0,0 mm 6,4 km/h (2 Bft) W 270 ° 0 min 0,000 mm 0,0 UV-I 0 W/m² 1,2 °C 5,6 °C 9,7 km/h (2 Bft)
28.01.2018 18:05 6,8 °C 68 % 1035,4 hPa 0,0 mm 9,4 km/h (2 Bft) SW 230 ° 0 min 0,000 mm 0,0 UV-I 0 W/m² 1,3 °C 4,9 °C 12,9 km/h (3 Bft)
28.01.2018 18:07 6,8 °C 68 % 1035,5 hPa 0,0 mm 6,1 km/h (2 Bft) W 267 ° 0 min 0,000 mm 0,0 UV-I 0 W/m² 1,3 °C 5,8 °C 9,7 km/h (2 Bft)
28.01.2018 18:08 6,8 °C 68 % 1035,5 hPa 0,0 mm 5,2 km/h (1 Bft) W 265 ° 0 min 0,000 mm 0,0 UV-I 0 W/m² 1,3 °C 6,1 °C 6,4 km/h (2 Bft)
28.01.2018 18:09 6,9 °C 67 % 1035,5 hPa 0,0 mm 3,9 km/h (1 Bft) W 263 ° 0 min 0,000 mm 0,0 UV-I 0 W/m² 1,2 °C 6,9 °C 6,4 km/h (2 Bft)
28.01.2018 18:10 6,9 °C 67 % 1035,5 hPa 0,0 mm 4,2 km/h (1 Bft) W-SW 249 ° 0 min 0,000 mm 0,0 UV-I 0 W/m² 1,2 °C 6,9 °C 8,0 km/h (2 Bft)
28.01.2018 18:12 6,9 °C 67 % 1035,5 hPa 0,0 mm 5,2 km/h (1 Bft) W-SW 248 ° 0 min 0,000 mm 0,0 UV-I 0 W/m² 1,2 °C 6,2 °C 9,7 km/h (2 Bft)
28.01.2018 18:13 7,0 °C 67 % 1035,5 hPa 0,0 mm 1,6 km/h (1 Bft) W-SW 248 ° 0 min 0,000 mm 0,0 UV-I 0 W/m² 1,3 °C 7,0 °C 4,8 km/h (1 Bft)
28.01.2018 18:14 7,1 °C 67 % 1035,5 hPa 0,0 mm 2,6 km/h (1 Bft) W-SW 247 ° 0 min 0,000 mm 0,0 UV-I 0 W/m² 1,4 °C 7,1 °C 3,2 km/h (1 Bft)
28.01.2018 18:15 7,1 °C 66 % 1035,5 hPa 0,0 mm 6,4 km/h (2 Bft) W-SW 247 ° 0 min 0,000 mm 0,0 UV-I 0 W/m² 1,2 °C 6,0 °C 12,9 km/h (3 Bft)
28.01.2018 18:18 7,1 °C 66 % 1035,6 hPa 0,0 mm 3,8 km/h (1 Bft) W-NW 282 ° 0 min 0,000 mm 0,0 UV-I 0 W/m² 1,2 °C 7,1 °C 6,4 km/h (2 Bft)
28.01.2018 18:19 7,1 °C 66 % 1035,6 hPa 0,0 mm 3,6 km/h (1 Bft) W 259 ° 0 min 0,000 mm 0,0 UV-I 0 W/m² 1,2 °C 7,1 °C 4,8 km/h (1 Bft)
28.01.2018 18:20 7,1 °C 66 % 1035,6 hPa 0,0 mm 5,7 km/h (1 Bft) W-SW 249 ° 0 min 0,000 mm 0,0 UV-I 0 W/m² 1,2 °C 6,2 °C 11,3 km/h (2 Bft)
28.01.2018 18:22 7,1 °C 67 % 1035,6 hPa 0,0 mm 8,5 km/h (2 Bft) W 269 ° 0 min 0,000 mm 0,0 UV-I 0 W/m² 1,4 °C 5,5 °C 14,5 km/h (3 Bft)
28.01.2018 18:23 7,0 °C 67 % 1035,6 hPa 0,0 mm 6,4 km/h (2 Bft) W 262 ° 0 min 0,000 mm 0,0 UV-I 0 W/m² 1,3 °C 5,9 °C 9,7 km/h (2 Bft)
28.01.2018 18:24 7,1 °C 67 % 1035,6 hPa 0,0 mm 8,7 km/h (2 Bft) W 263 ° 0 min 0,000 mm 0,0 UV-I 0 W/m² 1,4 °C 5,4 °C 12,9 km/h (3 Bft)
28.01.2018 18:26 6,9 °C 67 % 1035,7 hPa 0,0 mm 7,6 km/h (2 Bft) W-SW 255 ° 0 min 0,000 mm 0,0 UV-I 0 W/m² 1,2 °C 5,5 °C 12,9 km/h (3 Bft)
28.01.2018 18:27 6,9 °C 67 % 1035,7 hPa 0,0 mm 6,9 km/h (2 Bft) W 264 ° 0 min 0,000 mm 0,0 UV-I 0 W/m² 1,2 °C 5,6 °C 11,3 km/h (2 Bft)
28.01.2018 18:29 6,9 °C 67 % 1035,6 hPa 0,0 mm 6,0 km/h (2 Bft) W 259 ° 0 min 0,000 mm 0,0 UV-I 0 W/m² 1,2 °C 5,9 °C 11,3 km/h (2 Bft)
28.01.2018 18:30 6,9 °C 67 % 1035,6 hPa 0,0 mm 4,4 km/h (1 Bft) W-NW 286 ° 0 min 0,000 mm 0,0 UV-I 0 W/m² 1,2 °C 6,9 °C 9,7 km/h (2 Bft)
28.01.2018 18:32 6,9 °C 67 % 1035,7 hPa 0,0 mm 8,5 km/h (2 Bft) W 265 ° 0 min 0,000 mm 0,0 UV-I 0 W/m² 1,2 °C 5,2 °C 14,5 km/h (3 Bft)
28.01.2018 18:33 6,9 °C 67 % 1035,7 hPa 0,0 mm 6,1 km/h (2 Bft) W 265 ° 0 min 0,000 mm 0,0 UV-I 0 W/m² 1,2 °C 5,9 °C 9,7 km/h (2 Bft)
28.01.2018 18:35 6,8 °C 67 % 1035,7 hPa 0,0 mm 7,3 km/h (2 Bft) W-SW 257 ° 0 min 0,000 mm 0,0 UV-I 0 W/m² 1,1 °C 5,4 °C 12,9 km/h (3 Bft)
28.01.2018 18:36 6,8 °C 68 % 1035,7 hPa 0,0 mm 7,8 km/h (2 Bft) W-SW 258 ° 0 min 0,000 mm 0,0 UV-I 0 W/m² 1,3 °C 5,3 °C 11,3 km/h (2 Bft)
28.01.2018 18:37 6,8 °C 68 % 1035,7 hPa 0,0 mm 7,9 km/h (2 Bft) W-SW 253 ° 0 min 0,000 mm 0,0 UV-I 0 W/m² 1,3 °C 5,3 °C 11,3 km/h (2 Bft)
28.01.2018 18:39 6,8 °C 68 % 1035,7 hPa 0,0 mm 7,7 km/h (2 Bft) W 268 ° 0 min 0,000 mm 0,0 UV-I 0 W/m² 1,3 °C 5,3 °C 12,9 km/h (3 Bft)
28.01.2018 18:40 6,8 °C 67 % 1035,7 hPa 0,0 mm 6,2 km/h (2 Bft) W 269 ° 0 min 0,000 mm 0,0 UV-I 0 W/m² 1,1 °C 5,7 °C 11,3 km/h (2 Bft)
28.01.2018 18:42 6,9 °C 67 % 1035,8 hPa 0,0 mm 4,5 km/h (1 Bft) W-SW 254 ° 0 min 0,000 mm 0,0 UV-I 0 W/m² 1,2 °C 6,9 °C 6,4 km/h (2 Bft)
28.01.2018 18:43 6,8 °C 67 % 1035,8 hPa 0,0 mm 5,5 km/h (1 Bft) W 267 ° 0 min 0,000 mm 0,0 UV-I 0 W/m² 1,1 °C 6,0 °C 6,4 km/h (2 Bft)
28.01.2018 18:45 6,9 °C 67 % 1035,8 hPa 0,0 mm 4,0 km/h (1 Bft) SW 236 ° 0 min 0,000 mm 0,0 UV-I 0 W/m² 1,2 °C 6,9 °C 12,9 km/h (3 Bft)
28.01.2018 18:46 6,9 °C 66 % 1035,8 hPa 0,0 mm 6,4 km/h (2 Bft) SW 225 ° 0 min 0,000 mm 0,0 UV-I 0 W/m² 1,0 °C 5,8 °C 12,9 km/h (3 Bft)
28.01.2018 18:47 6,9 °C 66 % 1035,8 hPa 0,0 mm 4,8 km/h (1 Bft) W-SW 247 ° 0 min 0,000 mm 0,0 UV-I 0 W/m² 1,0 °C 6,3 °C 6,4 km/h (2 Bft)
28.01.2018 18:48 6,9 °C 66 % 1035,8 hPa 0,0 mm 6,4 km/h (2 Bft) SW 225 ° 0 min 0,000 mm 0,0 UV-I 0 W/m² 1,0 °C 5,8 °C 12,9 km/h (3 Bft)
28.01.2018 18:49 6,9 °C 66 % 1035,8 hPa 0,0 mm 3,2 km/h (1 Bft) SW 225 ° 0 min 0,000 mm 0,0 UV-I 0 W/m² 1,0 °C 6,9 °C 3,2 km/h (1 Bft)
28.01.2018 18:50 7,0 °C 66 % 1035,8 hPa 0,0 mm 8,0 km/h (2 Bft) W 270 ° 0 min 0,000 mm 0,0 UV-I 0 W/m² 1,1 °C 5,5 °C 11,3 km/h (2 Bft)
28.01.2018 18:51 7,0 °C 66 % 1035,8 hPa 0,0 mm 8,0 km/h (2 Bft) W-SW 247 ° 0 min 0,000 mm 0,0 UV-I 0 W/m² 1,1 °C 5,5 °C 17,7 km/h (3 Bft)
28.01.2018 18:52 7,1 °C 65 % 1035,8 hPa 0,0 mm 11,3 km/h (2 Bft) W 270 ° 0 min 0,000 mm 0,0 UV-I 0 W/m² 1,0 °C 4,9 °C 16,1 km/h (3 Bft)
28.01.2018 18:53 7,1 °C 65 % 1035,8 hPa 0,0 mm 6,4 km/h (2 Bft) W-SW 247 ° 0 min 0,000 mm 0,0 UV-I 0 W/m² 1,0 °C 6,0 °C 9,7 km/h (2 Bft)
28.01.2018 18:55 7,1 °C 65 % 1035,7 hPa 0,0 mm 7,1 km/h (2 Bft) W-NW 298 ° 0 min 0,000 mm 0,0 UV-I 0 W/m² 1,0 °C 5,8 °C 11,3 km/h (2 Bft)
28.01.2018 18:57 7,0 °C 66 % 1035,7 hPa 0,0 mm 4,7 km/h (1 Bft) SW 227 ° 0 min 0,000 mm 0,0 UV-I 0 W/m² 1,1 °C 6,5 °C 8,0 km/h (2 Bft)
28.01.2018 18:58 7,1 °C 66 % 1035,7 hPa 0,0 mm 3,5 km/h (1 Bft) W 271 ° 0 min 0,000 mm 0,0 UV-I 0 W/m² 1,2 °C 7,1 °C 6,4 km/h (2 Bft)
28.01.2018 18:59 7,1 °C 65 % 1035,7 hPa 0,0 mm 7,2 km/h (2 Bft) W-SW 243 ° 0 min 0,000 mm 0,0 UV-I 0 W/m² 1,0 °C 5,8 °C 11,3 km/h (2 Bft)
28.01.2018 19:01 7,1 °C 65 % 1035,7 hPa 0,0 mm 3,0 km/h (1 Bft) W-SW 242 ° 0 min 0,025 mm 0,0 UV-I 0 W/m² 1,0 °C 7,1 °C 6,4 km/h (2 Bft)
28.01.2018 19:02 7,1 °C 65 % 1035,7 hPa 0,0 mm 3,2 km/h (1 Bft) SW 225 ° 0 min 0,000 mm 0,0 UV-I 0 W/m² 1,0 °C 7,1 °C 4,8 km/h (1 Bft)
28.01.2018 19:03 7,1 °C 65 % 1035,7 hPa 0,0 mm 1,6 km/h (1 Bft) SW 225 ° 0 min 0,000 mm 0,0 UV-I 0 W/m² 1,0 °C 7,1 °C 3,2 km/h (1 Bft)
28.01.2018 19:04 7,1 °C 65 % 1035,7 hPa 0,0 mm 0,0 km/h (0 Bft) SW 225 ° 0 min 0,000 mm 0,0 UV-I 0 W/m² 1,0 °C 7,1 °C 1,6 km/h (1 Bft)
28.01.2018 19:05 7,1 °C 65 % 1035,7 hPa 0,0 mm 3,2 km/h (1 Bft) SW 225 ° 0 min 0,000 mm 0,0 UV-I 0 W/m² 1,0 °C 7,1 °C 9,7 km/h (2 Bft)
28.01.2018 19:06 7,1 °C 65 % 1035,7 hPa 0,0 mm 3,2 km/h (1 Bft) W 270 ° 0 min 0,000 mm 0,0 UV-I 0 W/m² 1,0 °C 7,1 °C 6,4 km/h (2 Bft)
28.01.2018 19:07 7,1 °C 65 % 1035,7 hPa 0,0 mm 3,2 km/h (1 Bft) W 270 ° 0 min 0,000 mm 0,0 UV-I 0 W/m² 1,0 °C 7,1 °C 6,4 km/h (2 Bft)
28.01.2018 19:08 7,1 °C 66 % 1035,7 hPa 0,0 mm 4,8 km/h (1 Bft) W 270 ° 0 min 0,000 mm 0,0 UV-I 0 W/m² 1,2 °C 6,5 °C 9,7 km/h (2 Bft)
28.01.2018 19:09 7,0 °C 66 % 1035,7 hPa 0,0 mm 4,8 km/h (1 Bft) W 270 ° 0 min 0,000 mm 0,0 UV-I 0 W/m² 1,1 °C 6,4 °C 6,4 km/h (2 Bft)
28.01.2018 19:11 6,9 °C 66 % 1035,7 hPa 0,0 mm 3,8 km/h (1 Bft) W 267 ° 0 min 0,000 mm 0,0 UV-I 0 W/m² 1,0 °C 6,9 °C 4,8 km/h (1 Bft)
28.01.2018 19:12 6,9 °C 66 % 1035,7 hPa 0,0 mm 3,3 km/h (1 Bft) W 267 ° 0 min 0,000 mm 0,0 UV-I 0 W/m² 1,0 °C 6,9 °C 4,8 km/h (1 Bft)
28.01.2018 19:13 6,9 °C 66 % 1035,8 hPa 0,0 mm 3,7 km/h (1 Bft) W 269 ° 0 min 0,000 mm 0,0 UV-I 0 W/m² 1,0 °C 6,9 °C 6,4 km/h (2 Bft)
28.01.2018 19:14 6,9 °C 67 % 1035,8 hPa 0,0 mm 3,2 km/h (1 Bft) W-NW 282 ° 0 min 0,000 mm 0,0 UV-I 0 W/m² 1,2 °C 6,9 °C 4,8 km/h (1 Bft)
28.01.2018 19:15 6,8 °C 67 % 1035,8 hPa 0,0 mm 5,5 km/h (1 Bft) W 265 ° 0 min 0,000 mm 0,0 UV-I 0 W/m² 1,1 °C 6,0 °C 8,0 km/h (2 Bft)
28.01.2018 19:17 6,7 °C 67 % 1035,8 hPa 0,0 mm 5,4 km/h (1 Bft) W 267 ° 0 min 0,000 mm 0,0 UV-I 0 W/m² 1,0 °C 5,9 °C 9,7 km/h (2 Bft)
28.01.2018 19:18 6,7 °C 67 % 1035,8 hPa 0,0 mm 5,2 km/h (1 Bft) W-SW 254 ° 0 min 0,000 mm 0,0 UV-I 0 W/m² 1,0 °C 5,9 °C 8,0 km/h (2 Bft)
28.01.2018 19:19 6,7 °C 67 % 1035,8 hPa 0,0 mm 5,5 km/h (1 Bft) W-SW 258 ° 0 min 0,000 mm 0,0 UV-I 0 W/m² 1,0 °C 5,8 °C 9,7 km/h (2 Bft)
28.01.2018 19:20 6,7 °C 67 % 1035,8 hPa 0,0 mm 6,4 km/h (2 Bft) W 270 ° 0 min 0,000 mm 0,0 UV-I 0 W/m² 1,0 °C 5,6 °C 9,7 km/h (2 Bft)
28.01.2018 19:23 6,7 °C 67 % 1035,8 hPa 0,0 mm 9,9 km/h (2 Bft) W 259 ° 0 min 0,000 mm 0,0 UV-I 0 W/m² 1,0 °C 4,7 °C 14,5 km/h (3 Bft)
28.01.2018 19:24 6,6 °C 67 % 1035,7 hPa 0,0 mm 9,7 km/h (2 Bft) W-SW 258 ° 0 min 0,000 mm 0,0 UV-I 0 W/m² 0,9 °C 4,6 °C 12,9 km/h (3 Bft)
28.01.2018 19:25 6,6 °C 67 % 1035,7 hPa 0,0 mm 7,3 km/h (2 Bft) W 269 ° 0 min 0,000 mm 0,0 UV-I 0 W/m² 0,9 °C 5,2 °C 14,5 km/h (3 Bft)
28.01.2018 19:27 6,6 °C 67 % 1035,7 hPa 0,0 mm 6,4 km/h (2 Bft) W 261 ° 0 min 0,000 mm 0,0 UV-I 0 W/m² 0,9 °C 5,4 °C 6,4 km/h (2 Bft)
28.01.2018 19:28 6,7 °C 67 % 1035,7 hPa 0,0 mm 6,4 km/h (2 Bft) W-SW 247 ° 0 min 0,000 mm 0,0 UV-I 0 W/m² 1,0 °C 5,6 °C 11,3 km/h (2 Bft)
28.01.2018 19:29 6,7 °C 66 % 1035,7 hPa 0,0 mm 9,7 km/h (2 Bft) SW 225 ° 0 min 0,000 mm 0,0 UV-I 0 W/m² 0,8 °C 4,8 °C 17,7 km/h (3 Bft)
28.01.2018 19:30 6,7 °C 66 % 1035,6 hPa 0,0 mm 9,7 km/h (2 Bft) W 270 ° 0 min 0,000 mm 0,0 UV-I 0 W/m² 0,8 °C 4,8 °C 19,3 km/h (3 Bft)
28.01.2018 19:31 6,7 °C 66 % 1035,7 hPa 0,0 mm 8,0 km/h (2 Bft) W-SW 247 ° 0 min 0,000 mm 0,0 UV-I 0 W/m² 0,8 °C 5,1 °C 11,3 km/h (2 Bft)
28.01.2018 19:32 6,8 °C 66 % 1035,6 hPa 0,0 mm 9,7 km/h (2 Bft) W 270 ° 0 min 0,000 mm 0,0 UV-I 0 W/m² 0,9 °C 4,9 °C 14,5 km/h (3 Bft)
28.01.2018 19:33 6,8 °C 65 % 1035,6 hPa 0,0 mm 8,0 km/h (2 Bft) W 270 ° 0 min 0,000 mm 0,0 UV-I 0 W/m² 0,7 °C 5,2 °C 14,5 km/h (3 Bft)
28.01.2018 19:34 6,8 °C 66 % 1035,7 hPa 0,0 mm 9,7 km/h (2 Bft) W-SW 247 ° 0 min 0,000 mm 0,0 UV-I 0 W/m² 0,9 °C 4,9 °C 20,9 km/h (4 Bft)
28.01.2018 19:35 6,8 °C 66 % 1035,6 hPa 0,0 mm 6,4 km/h (2 Bft) W 270 ° 0 min 0,000 mm 0,0 UV-I 0 W/m² 0,9 °C 5,7 °C 11,3 km/h (2 Bft)
28.01.2018 19:37 6,8 °C 66 % 1035,7 hPa 0,0 mm 5,0 km/h (1 Bft) W 260 ° 0 min 0,000 mm 0,0 UV-I 0 W/m² 0,9 °C 6,1 °C 6,4 km/h (2 Bft)
28.01.2018 19:38 6,8 °C 66 % 1035,7 hPa 0,0 mm 7,6 km/h (2 Bft) W 272 ° 0 min 0,000 mm 0,0 UV-I 0 W/m² 0,9 °C 5,3 °C 12,9 km/h (3 Bft)
28.01.2018 19:39 6,8 °C 66 % 1035,7 hPa 0,0 mm 6,2 km/h (2 Bft) W-SW 257 ° 0 min 0,000 mm 0,0 UV-I 0 W/m² 0,9 °C 5,7 °C 9,7 km/h (2 Bft)
28.01.2018 19:40 6,8 °C 66 % 1035,7 hPa 0,0 mm 7,2 km/h (2 Bft) W 264 ° 0 min 0,000 mm 0,0 UV-I 0 W/m² 0,9 °C 5,5 °C 11,3 km/h (2 Bft)
28.01.2018 19:42 6,8 °C 66 % 1035,7 hPa 0,0 mm 11,3 km/h (2 Bft) W 260 ° 0 min 0,000 mm 0,0 UV-I 0 W/m² 0,9 °C 4,6 °C 11,3 km/h (2 Bft)
28.01.2018 19:43 6,8 °C 66 % 1035,7 hPa 0,0 mm 8,0 km/h (2 Bft) W-SW 247 ° 0 min 0,000 mm 0,0 UV-I 0 W/m² 0,9 °C 5,2 °C 11,3 km/h (2 Bft)
28.01.2018 19:44 6,8 °C 66 % 1035,7 hPa 0,0 mm 3,2 km/h (1 Bft) W-SW 247 ° 0 min 0,000 mm 0,0 UV-I 0 W/m² 0,9 °C 6,8 °C 4,8 km/h (1 Bft)
28.01.2018 19:45 6,8 °C 66 % 1035,7 hPa 0,0 mm 3,2 km/h (1 Bft) W-SW 247 ° 0 min 0,000 mm 0,0 UV-I 0 W/m² 0,9 °C 6,8 °C 6,4 km/h (2 Bft)
28.01.2018 19:46 6,8 °C 66 % 1035,7 hPa 0,0 mm 4,8 km/h (1 Bft) W 270 ° 0 min 0,000 mm 0,0 UV-I 0 W/m² 0,9 °C 6,2 °C 8,0 km/h (2 Bft)
28.01.2018 19:47 6,8 °C 66 % 1035,7 hPa 0,0 mm 4,8 km/h (1 Bft) W-SW 247 ° 0 min 0,000 mm 0,0 UV-I 0 W/m² 0,9 °C 6,2 °C 9,7 km/h (2 Bft)
28.01.2018 19:48 6,8 °C 66 % 1035,7 hPa 0,0 mm 6,4 km/h (2 Bft) W-SW 247 ° 0 min 0,000 mm 0,0 UV-I 0 W/m² 0,9 °C 5,7 °C 11,3 km/h (2 Bft)
28.01.2018 19:49 6,8 °C 66 % 1035,7 hPa 0,0 mm 6,4 km/h (2 Bft) W-SW 247 ° 0 min 0,000 mm 0,0 UV-I 0 W/m² 0,9 °C 5,7 °C 11,3 km/h (2 Bft)
28.01.2018 19:52 6,8 °C 66 % 1035,7 hPa 0,0 mm 10,1 km/h (2 Bft) W 271 ° 0 min 0,000 mm 0,0 UV-I 0 W/m² 0,9 °C 4,8 °C 14,5 km/h (3 Bft)
28.01.2018 19:53 6,8 °C 66 % 1035,7 hPa 0,0 mm 9,0 km/h (2 Bft) W 269 ° 0 min 0,000 mm 0,0 UV-I 0 W/m² 0,9 °C 5,0 °C 12,9 km/h (3 Bft)
28.01.2018 19:54 6,8 °C 66 % 1035,8 hPa 0,0 mm 8,9 km/h (2 Bft) W-SW 239 ° 0 min 0,000 mm 0,0 UV-I 0 W/m² 0,9 °C 5,0 °C 11,3 km/h (2 Bft)
28.01.2018 19:55 6,7 °C 66 % 1035,8 hPa 0,0 mm 8,5 km/h (2 Bft) W 273 ° 0 min 0,000 mm 0,0 UV-I 0 W/m² 0,8 °C 5,0 °C 11,3 km/h (2 Bft)
28.01.2018 19:56 6,8 °C 66 % 1035,8 hPa 0,0 mm 9,7 km/h (2 Bft) W 270 ° 0 min 0,000 mm 0,0 UV-I 0 W/m² 0,9 °C 4,9 °C 12,9 km/h (3 Bft)
28.01.2018 19:57 6,7 °C 66 % 1035,8 hPa 0,0 mm 9,7 km/h (2 Bft) W 270 ° 0 min 0,000 mm 0,0 UV-I 0 W/m² 0,8 °C 4,8 °C 12,9 km/h (3 Bft)
28.01.2018 19:58 6,7 °C 66 % 1035,9 hPa 0,0 mm 6,4 km/h (2 Bft) W 270 ° 0 min 0,000 mm 0,0 UV-I 0 W/m² 0,8 °C 5,6 °C 9,7 km/h (2 Bft)
28.01.2018 19:59 6,7 °C 66 % 1035,9 hPa 0,0 mm 8,0 km/h (2 Bft) W 270 ° 0 min 0,000 mm 0,0 UV-I 0 W/m² 0,8 °C 5,1 °C 11,3 km/h (2 Bft)
28.01.2018 20:00 6,7 °C 66 % 1035,9 hPa 0,0 mm 6,4 km/h (2 Bft) W 270 ° 0 min 0,025 mm 0,0 UV-I 0 W/m² 0,8 °C 5,6 °C 9,7 km/h (2 Bft)
28.01.2018 20:01 6,7 °C 66 % 1035,9 hPa 0,0 mm 8,0 km/h (2 Bft) W 270 ° 0 min 0,000 mm 0,0 UV-I 0 W/m² 0,8 °C 5,1 °C 12,9 km/h (3 Bft)
28.01.2018 20:02 6,7 °C 66 % 1035,8 hPa 0,0 mm 8,0 km/h (2 Bft) W-SW 247 ° 0 min 0,000 mm 0,0 UV-I 0 W/m² 0,8 °C 5,1 °C 12,9 km/h (3 Bft)
28.01.2018 20:04 6,7 °C 66 % 1035,7 hPa 0,0 mm 3,1 km/h (1 Bft) W 281 ° 0 min 0,001 mm 0,0 UV-I 0 W/m² 0,8 °C 6,7 °C 4,8 km/h (1 Bft)
28.01.2018 20:05 6,7 °C 65 % 1035,7 hPa 0,0 mm 6,1 km/h (2 Bft) W-SW 256 ° 0 min 0,000 mm 0,0 UV-I 0 W/m² 0,6 °C 5,6 °C 9,7 km/h (2 Bft)
28.01.2018 20:07 6,7 °C 65 % 1035,7 hPa 0,0 mm 7,4 km/h (2 Bft) W 262 ° 0 min 0,000 mm 0,0 UV-I 0 W/m² 0,6 °C 5,3 °C 11,3 km/h (2 Bft)
28.01.2018 20:08 6,7 °C 65 % 1035,7 hPa 0,0 mm 9,6 km/h (2 Bft) W-SW 250 ° 0 min 0,000 mm 0,0 UV-I 0 W/m² 0,6 °C 4,8 °C 12,9 km/h (3 Bft)
28.01.2018 20:09 6,7 °C 65 % 1035,7 hPa 0,0 mm 8,3 km/h (2 Bft) W 270 ° 0 min 0,000 mm 0,0 UV-I 0 W/m² 0,6 °C 5,1 °C 12,9 km/h (3 Bft)
28.01.2018 20:10 6,7 °C 65 % 1035,7 hPa 0,0 mm 4,8 km/h (1 Bft) W 270 ° 0 min 0,000 mm 0,0 UV-I 0 W/m² 0,6 °C 6,1 °C 6,4 km/h (2 Bft)
28.01.2018 20:13 6,7 °C 66 % 1035,7 hPa 0,0 mm 7,8 km/h (2 Bft) W 259 ° 0 min 0,000 mm 0,0 UV-I 0 W/m² 0,8 °C 5,2 °C 12,9 km/h (3 Bft)
28.01.2018 20:14 6,7 °C 65 % 1035,7 hPa 0,0 mm 5,9 km/h (2 Bft) W 262 ° 0 min 0,000 mm 0,0 UV-I 0 W/m² 0,6 °C 5,7 °C 9,7 km/h (2 Bft)
28.01.2018 20:15 6,7 °C 65 % 1035,7 hPa 0,0 mm 10,1 km/h (2 Bft) W 267 ° 0 min 0,000 mm 0,0 UV-I 0 W/m² 0,6 °C 4,7 °C 14,5 km/h (3 Bft)
28.01.2018 20:17 6,7 °C 65 % 1035,7 hPa 0,0 mm 6,5 km/h (2 Bft) W 269 ° 0 min 0,000 mm 0,0 UV-I 0 W/m² 0,6 °C 5,5 °C 9,7 km/h (2 Bft)
28.01.2018 20:18 6,6 °C 65 % 1035,7 hPa 0,0 mm 6,5 km/h (2 Bft) W 263 ° 0 min 0,000 mm 0,0 UV-I 0 W/m² 0,5 °C 5,4 °C 11,3 km/h (2 Bft)
28.01.2018 20:19 6,6 °C 65 % 1035,6 hPa 0,0 mm 3,3 km/h (1 Bft) W 266 ° 0 min 0,000 mm 0,0 UV-I 0 W/m² 0,5 °C 6,6 °C 6,4 km/h (2 Bft)
28.01.2018 20:20 6,6 °C 65 % 1035,6 hPa 0,0 mm 3,6 km/h (1 Bft) W-SW 258 ° 0 min 0,000 mm 0,0 UV-I 0 W/m² 0,5 °C 6,6 °C 6,4 km/h (2 Bft)
28.01.2018 20:21 6,6 °C 65 % 1035,6 hPa 0,0 mm 7,6 km/h (2 Bft) W 263 ° 0 min 0,000 mm 0,0 UV-I 0 W/m² 0,5 °C 5,1 °C 11,3 km/h (2 Bft)
28.01.2018 20:22 6,6 °C 65 % 1035,7 hPa 0,0 mm 7,0 km/h (2 Bft) W 266 ° 0 min 0,000 mm 0,0 UV-I 0 W/m² 0,5 °C 5,3 °C 12,9 km/h (3 Bft)
28.01.2018 20:23 6,6 °C 65 % 1035,6 hPa 0,0 mm 7,6 km/h (2 Bft) W-SW 242 ° 0 min 0,000 mm 0,0 UV-I 0 W/m² 0,5 °C 5,1 °C 11,3 km/h (2 Bft)
28.01.2018 20:24 6,6 °C 64 % 1035,7 hPa 0,0 mm 5,8 km/h (2 Bft) W-SW 248 ° 0 min 0,000 mm 0,0 UV-I 0 W/m² 0,3 °C 5,6 °C 9,7 km/h (2 Bft)
28.01.2018 20:25 6,6 °C 64 % 1035,7 hPa 0,0 mm 8,3 km/h (2 Bft) W 280 ° 0 min 0,000 mm 0,0 UV-I 0 W/m² 0,3 °C 4,9 °C 12,9 km/h (3 Bft)
28.01.2018 20:26 6,5 °C 64 % 1035,6 hPa 0,0 mm 6,1 km/h (2 Bft) W-SW 248 ° 0 min 0,000 mm 0,0 UV-I 0 W/m² 0,2 °C 5,4 °C 12,9 km/h (3 Bft)
28.01.2018 20:27 6,5 °C 64 % 1035,6 hPa 0,0 mm 10,4 km/h (2 Bft) W 267 ° 0 min 0,000 mm 0,0 UV-I 0 W/m² 0,2 °C 4,4 °C 12,9 km/h (3 Bft)
28.01.2018 20:28 6,5 °C 64 % 1035,6 hPa 0,0 mm 7,5 km/h (2 Bft) SW 236 ° 0 min 0,000 mm 0,0 UV-I 0 W/m² 0,2 °C 5,0 °C 12,9 km/h (3 Bft)
28.01.2018 20:29 6,5 °C 64 % 1035,6 hPa 0,0 mm 4,2 km/h (1 Bft) W-SW 257 ° 0 min 0,000 mm 0,0 UV-I 0 W/m² 0,2 °C 6,5 °C 6,4 km/h (2 Bft)
28.01.2018 20:30 6,5 °C 63 % 1035,6 hPa 0,0 mm 8,5 km/h (2 Bft) W 262 ° 0 min 0,000 mm 0,0 UV-I 0 W/m² -0,0 °C 4,8 °C 12,9 km/h (3 Bft)
28.01.2018 20:31 6,5 °C 63 % 1035,6 hPa 0,0 mm 6,0 km/h (2 Bft) W-SW 257 ° 0 min 0,000 mm 0,0 UV-I 0 W/m² -0,0 °C 5,4 °C 11,3 km/h (2 Bft)
28.01.2018 20:32 6,6 °C 63 % 1035,6 hPa 0,0 mm 3,1 km/h (1 Bft) W-SW 252 ° 0 min 0,000 mm 0,0 UV-I 0 W/m² 0,1 °C 6,6 °C 6,4 km/h (2 Bft)
28.01.2018 20:33 6,6 °C 63 % 1035,6 hPa 0,0 mm 2,2 km/h (1 Bft) W-SW 252 ° 0 min 0,000 mm 0,0 UV-I 0 W/m² 0,1 °C 6,6 °C 3,2 km/h (1 Bft)
28.01.2018 20:34 6,5 °C 63 % 1035,7 hPa 0,0 mm 5,0 km/h (1 Bft) W-SW 257 ° 0 min 0,000 mm 0,0 UV-I 0 W/m² -0,0 °C 5,8 °C 6,4 km/h (2 Bft)
28.01.2018 20:35 6,6 °C 63 % 1035,7 hPa 0,0 mm 2,7 km/h (1 Bft) W-SW 257 ° 0 min 0,000 mm 0,0 UV-I 0 W/m² 0,1 °C 6,6 °C 4,8 km/h (1 Bft)
28.01.2018 20:36 6,6 °C 62 % 1035,7 hPa 0,0 mm 3,8 km/h (1 Bft) W 281 ° 0 min 0,000 mm 0,0 UV-I 0 W/m² -0,1 °C 6,6 °C 6,4 km/h (2 Bft)
28.01.2018 20:37 6,6 °C 62 % 1035,6 hPa 0,0 mm 8,8 km/h (2 Bft) W-NW 284 ° 0 min 0,000 mm 0,0 UV-I 0 W/m² -0,1 °C 4,8 °C 14,5 km/h (3 Bft)
28.01.2018 20:38 6,6 °C 62 % 1035,7 hPa 0,0 mm 7,5 km/h (2 Bft) W-SW 254 ° 0 min 0,000 mm 0,0 UV-I 0 W/m² -0,1 °C 5,1 °C 11,3 km/h (2 Bft)
28.01.2018 20:39 6,6 °C 62 % 1035,7 hPa 0,0 mm 5,0 km/h (1 Bft) SW 227 ° 0 min 0,000 mm 0,0 UV-I 0 W/m² -0,1 °C 5,9 °C 8,0 km/h (2 Bft)
28.01.2018 20:40 6,6 °C 62 % 1035,6 hPa 0,0 mm 3,0 km/h (1 Bft) SW 227 ° 0 min 0,000 mm 0,0 UV-I 0 W/m² -0,1 °C 6,6 °C 3,2 km/h (1 Bft)
28.01.2018 20:41 6,6 °C 62 % 1035,7 hPa 0,0 mm 7,8 km/h (2 Bft) W-SW 241 ° 0 min 0,000 mm 0,0 UV-I 0 W/m² -0,1 °C 5,1 °C 12,9 km/h (3 Bft)
28.01.2018 20:42 6,6 °C 62 % 1035,6 hPa 0,0 mm 2,9 km/h (1 Bft) SW 235 ° 0 min 0,000 mm 0,0 UV-I 0 W/m² -0,1 °C 6,6 °C 4,8 km/h (1 Bft)
28.01.2018 20:43 6,6 °C 62 % 1035,6 hPa 0,0 mm 4,3 km/h (1 Bft) SW 227 ° 0 min 0,000 mm 0,0 UV-I 0 W/m² -0,1 °C 6,6 °C 6,4 km/h (2 Bft)
28.01.2018 20:44 6,6 °C 62 % 1035,6 hPa 0,0 mm 2,5 km/h (1 Bft) SW 228 ° 0 min 0,000 mm 0,0 UV-I 0 W/m² -0,1 °C 6,6 °C 6,4 km/h (2 Bft)
28.01.2018 20:45 6,6 °C 62 % 1035,6 hPa 0,0 mm 5,9 km/h (2 Bft) W 268 ° 0 min 0,000 mm 0,0 UV-I 0 W/m² -0,1 °C 5,6 °C 9,7 km/h (2 Bft)
28.01.2018 20:46 6,6 °C 61 % 1035,6 hPa 0,0 mm 2,5 km/h (1 Bft) W-NW 287 ° 0 min 0,000 mm 0,0 UV-I 0 W/m² -0,4 °C 6,6 °C 9,7 km/h (2 Bft)
28.01.2018 20:47 6,6 °C 61 % 1035,6 hPa 0,0 mm 3,3 km/h (1 Bft) SW 225 ° 0 min 0,000 mm 0,0 UV-I 0 W/m² -0,4 °C 6,6 °C 4,8 km/h (1 Bft)
28.01.2018 20:48 6,6 °C 60 % 1035,6 hPa 0,0 mm 3,4 km/h (1 Bft) W 267 ° 0 min 0,000 mm 0,0 UV-I 0 W/m² -0,6 °C 6,6 °C 4,8 km/h (1 Bft)
28.01.2018 20:49 6,6 °C 61 % 1035,6 hPa 0,0 mm 3,7 km/h (1 Bft) W-SW 257 ° 0 min 0,000 mm 0,0 UV-I 0 W/m² -0,4 °C 6,6 °C 11,3 km/h (2 Bft)
28.01.2018 20:50 6,6 °C 61 % 1035,5 hPa 0,0 mm 3,5 km/h (1 Bft) W 261 ° 0 min 0,000 mm 0,0 UV-I 0 W/m² -0,4 °C 6,6 °C 4,8 km/h (1 Bft)
28.01.2018 20:51 6,6 °C 61 % 1035,5 hPa 0,0 mm 2,8 km/h (1 Bft) W 259 ° 0 min 0,000 mm 0,0 UV-I 0 W/m² -0,4 °C 6,6 °C 4,8 km/h (1 Bft)
28.01.2018 20:52 6,6 °C 61 % 1035,5 hPa 0,0 mm 5,0 km/h (1 Bft) W 276 ° 0 min 0,000 mm 0,0 UV-I 0 W/m² -0,4 °C 5,9 °C 11,3 km/h (2 Bft)
28.01.2018 20:53 6,6 °C 61 % 1035,5 hPa 0,0 mm 4,4 km/h (1 Bft) W 278 ° 0 min 0,000 mm 0,0 UV-I 0 W/m² -0,4 °C 6,6 °C 9,7 km/h (2 Bft)
28.01.2018 20:54 6,6 °C 61 % 1035,5 hPa 0,0 mm 4,6 km/h (1 Bft) W 264 ° 0 min 0,000 mm 0,0 UV-I 0 W/m² -0,4 °C 6,0 °C 6,4 km/h (2 Bft)
28.01.2018 20:55 6,5 °C 61 % 1035,6 hPa 0,0 mm 3,6 km/h (1 Bft) SW 234 ° 0 min 0,000 mm 0,0 UV-I 0 W/m² -0,5 °C 6,5 °C 4,8 km/h (1 Bft)
28.01.2018 20:56 6,6 °C 60 % 1035,5 hPa 0,0 mm 5,5 km/h (1 Bft) W-SW 244 ° 0 min 0,000 mm 0,0 UV-I 0 W/m² -0,6 °C 5,7 °C 11,3 km/h (2 Bft)
28.01.2018 20:57 6,5 °C 61 % 1035,5 hPa 0,0 mm 4,0 km/h (1 Bft) W 265 ° 0 min 0,000 mm 0,0 UV-I 0 W/m² -0,5 °C 6,5 °C 9,7 km/h (2 Bft)
28.01.2018 20:58 6,6 °C 61 % 1035,5 hPa 0,0 mm 4,8 km/h (1 Bft) W-SW 242 ° 0 min 0,000 mm 0,0 UV-I 0 W/m² -0,4 °C 6,0 °C 12,9 km/h (3 Bft)
28.01.2018 20:59 6,5 °C 60 % 1035,5 hPa 0,0 mm 4,6 km/h (1 Bft) W-SW 255 ° 0 min 0,000 mm 0,0 UV-I 0 W/m² -0,7 °C 5,9 °C 9,7 km/h (2 Bft)
28.01.2018 21:00 6,5 °C 60 % 1035,5 hPa 0,0 mm 6,3 km/h (2 Bft) W-SW 250 ° 0 min 0,000 mm 0,0 UV-I 0 W/m² -0,7 °C 5,4 °C 12,9 km/h (3 Bft)
28.01.2018 21:01 6,5 °C 60 % 1035,4 hPa 0,0 mm 6,5 km/h (2 Bft) W 263 ° 0 min 0,025 mm 0,0 UV-I 0 W/m² -0,7 °C 5,3 °C 12,9 km/h (3 Bft)
28.01.2018 21:02 6,5 °C 60 % 1035,4 hPa 0,0 mm 9,3 km/h (2 Bft) SW 229 ° 0 min 0,000 mm 0,0 UV-I 0 W/m² -0,7 °C 4,6 °C 12,9 km/h (3 Bft)
28.01.2018 21:03 6,4 °C 60 % 1035,3 hPa 0,0 mm 3,2 km/h (1 Bft) SW 229 ° 0 min 0,000 mm 0,0 UV-I 0 W/m² -0,8 °C 6,4 °C 6,4 km/h (2 Bft)
28.01.2018 21:04 6,4 °C 60 % 1035,3 hPa 0,0 mm 3,6 km/h (1 Bft) SW 230 ° 0 min 0,000 mm 0,0 UV-I 0 W/m² -0,8 °C 6,4 °C 6,4 km/h (2 Bft)
28.01.2018 21:05 6,4 °C 60 % 1035,3 hPa 0,0 mm 3,8 km/h (1 Bft) SW 230 ° 0 min 0,000 mm 0,0 UV-I 0 W/m² -0,8 °C 6,4 °C 4,8 km/h (1 Bft)
28.01.2018 21:06 6,4 °C 60 % 1035,2 hPa 0,0 mm 3,8 km/h (1 Bft) SW 230 ° 0 min 0,000 mm 0,0 UV-I 0 W/m² -0,8 °C 6,4 °C 4,8 km/h (1 Bft)
28.01.2018 21:07 6,4 °C 60 % 1035,2 hPa 0,0 mm 4,9 km/h (1 Bft) S-SW 197 ° 0 min 0,000 mm 0,0 UV-I 0 W/m² -0,8 °C 5,7 °C 8,0 km/h (2 Bft)
28.01.2018 21:08 6,4 °C 60 % 1035,2 hPa 0,0 mm 7,1 km/h (2 Bft) S-SW 207 ° 0 min 0,000 mm 0,0 UV-I 0 W/m² -0,8 °C 5,0 °C 11,3 km/h (2 Bft)
28.01.2018 21:09 6,4 °C 60 % 1035,2 hPa 0,0 mm 5,0 km/h (1 Bft) S-SW 200 ° 0 min 0,000 mm 0,0 UV-I 0 W/m² -0,8 °C 5,7 °C 8,0 km/h (2 Bft)
28.01.2018 21:10 6,4 °C 60 % 1035,2 hPa 0,0 mm 6,1 km/h (2 Bft) S-SW 200 ° 0 min 0,000 mm 0,0 UV-I 0 W/m² -0,8 °C 5,3 °C 9,7 km/h (2 Bft)
28.01.2018 21:11 6,4 °C 61 % 1035,2 hPa 0,0 mm 4,6 km/h (1 Bft) S-SW 192 ° 0 min 0,000 mm 0,0 UV-I 0 W/m² -0,6 °C 5,8 °C 8,0 km/h (2 Bft)
28.01.2018 21:12 6,4 °C 61 % 1035,1 hPa 0,0 mm 4,8 km/h (1 Bft) S 188 ° 0 min 0,000 mm 0,0 UV-I 0 W/m² -0,6 °C 5,7 °C 8,0 km/h (2 Bft)
28.01.2018 21:13 6,4 °C 62 % 1035,0 hPa 0,0 mm 2,2 km/h (1 Bft) S 184 ° 0 min 0,000 mm 0,0 UV-I 0 W/m² -0,3 °C 6,4 °C 4,8 km/h (1 Bft)
28.01.2018 21:14 6,4 °C 62 % 1035,0 hPa 0,0 mm 0,9 km/h (0 Bft) S 184 ° 0 min 0,000 mm 0,0 UV-I 0 W/m² -0,3 °C 6,4 °C 1,6 km/h (1 Bft)
28.01.2018 21:15 6,4 °C 62 % 1035,0 hPa 0,0 mm 3,2 km/h (1 Bft) S 184 ° 0 min 0,000 mm 0,0 UV-I 0 W/m² -0,3 °C 6,4 °C 4,8 km/h (1 Bft)
28.01.2018 21:16 6,4 °C 62 % 1034,9 hPa 0,0 mm 1,2 km/h (1 Bft) S 184 ° 0 min 0,000 mm 0,0 UV-I 0 W/m² -0,3 °C 6,4 °C 3,2 km/h (1 Bft)
28.01.2018 21:17 6,4 °C 63 % 1035,0 hPa 0,0 mm 0,6 km/h (0 Bft) S 184 ° 0 min 0,000 mm 0,0 UV-I 0 W/m² -0,1 °C 6,4 °C 1,6 km/h (1 Bft)
28.01.2018 21:18 6,4 °C 63 % 1035,0 hPa 0,0 mm 0,3 km/h (0 Bft) S 184 ° 0 min 0,000 mm 0,0 UV-I 0 W/m² -0,1 °C 6,4 °C 1,6 km/h (1 Bft)
28.01.2018 21:19 6,3 °C 63 % 1035,0 hPa 0,0 mm 0,0 km/h (0 Bft) S 184 ° 0 min 0,000 mm 0,0 UV-I 0 W/m² -0,2 °C 6,3 °C 0,0 km/h (0 Bft)
28.01.2018 21:20 6,3 °C 63 % 1034,9 hPa 0,0 mm 0,0 km/h (0 Bft) S 184 ° 0 min 0,000 mm 0,0 UV-I 0 W/m² -0,2 °C 6,3 °C 0,0 km/h (0 Bft)
28.01.2018 21:21 6,3 °C 63 % 1035,0 hPa 0,0 mm 0,0 km/h (0 Bft) S 184 ° 0 min 0,000 mm 0,0 UV-I 0 W/m² -0,2 °C 6,3 °C 0,0 km/h (0 Bft)
28.01.2018 21:22 6,3 °C 63 % 1035,1 hPa 0,0 mm 0,0 km/h (0 Bft) S 184 ° 0 min 0,000 mm 0,0 UV-I 0 W/m² -0,2 °C 6,3 °C 0,0 km/h (0 Bft)
28.01.2018 21:23 6,3 °C 63 % 1035,2 hPa 0,0 mm 0,1 km/h (0 Bft) S 184 ° 0 min 0,000 mm 0,0 UV-I 0 W/m² -0,2 °C 6,3 °C 1,6 km/h (1 Bft)
28.01.2018 21:24 6,3 °C 63 % 1035,2 hPa 0,0 mm 2,0 km/h (1 Bft) S 184 ° 0 min 0,000 mm 0,0 UV-I 0 W/m² -0,2 °C 6,3 °C 3,2 km/h (1 Bft)
28.01.2018 21:25 6,2 °C 64 % 1035,2 hPa 0,0 mm 0,2 km/h (0 Bft) S 184 ° 0 min 0,000 mm 0,0 UV-I 0 W/m² -0,1 °C 6,2 °C 1,6 km/h (1 Bft)
28.01.2018 21:26 6,2 °C 64 % 1035,2 hPa 0,0 mm 0,1 km/h (0 Bft) S 184 ° 0 min 0,000 mm 0,0 UV-I 0 W/m² -0,1 °C 6,2 °C 1,6 km/h (1 Bft)
28.01.2018 21:27 6,2 °C 64 % 1035,3 hPa 0,0 mm 0,1 km/h (0 Bft) S 184 ° 0 min 0,000 mm 0,0 UV-I 0 W/m² -0,1 °C 6,2 °C 1,6 km/h (1 Bft)
28.01.2018 21:28 6,2 °C 64 % 1035,3 hPa 0,0 mm 0,0 km/h (0 Bft) S 184 ° 0 min 0,000 mm 0,0 UV-I 0 W/m² -0,1 °C 6,2 °C 0,0 km/h (0 Bft)
28.01.2018 21:29 6,1 °C 64 % 1035,3 hPa 0,0 mm 0,0 km/h (0 Bft) S 184 ° 0 min 0,000 mm 0,0 UV-I 0 W/m² -0,2 °C 6,1 °C 0,0 km/h (0 Bft)
28.01.2018 21:30 6,1 °C 64 % 1035,3 hPa 0,0 mm 0,0 km/h (0 Bft) S 184 ° 0 min 0,000 mm 0,0 UV-I 0 W/m² -0,2 °C 6,1 °C 0,0 km/h (0 Bft)
28.01.2018 21:31 6,1 °C 64 % 1035,2 hPa 0,0 mm 0,1 km/h (0 Bft) S 184 ° 0 min 0,000 mm 0,0 UV-I 0 W/m² -0,2 °C 6,1 °C 1,6 km/h (1 Bft)
28.01.2018 21:32 6,0 °C 64 % 1035,3 hPa 0,0 mm 1,8 km/h (1 Bft) S 184 ° 0 min 0,000 mm 0,0 UV-I 0 W/m² -0,3 °C 6,0 °C 3,2 km/h (1 Bft)
28.01.2018 21:33 5,9 °C 64 % 1035,2 hPa 0,0 mm 2,0 km/h (1 Bft) S 184 ° 0 min 0,000 mm 0,0 UV-I 0 W/m² -0,4 °C 5,9 °C 3,2 km/h (1 Bft)
28.01.2018 21:34 5,9 °C 65 % 1035,1 hPa 0,0 mm 0,9 km/h (0 Bft) S 184 ° 0 min 0,000 mm 0,0 UV-I 0 W/m² -0,2 °C 5,9 °C 3,2 km/h (1 Bft)
28.01.2018 21:35 5,9 °C 65 % 1035,2 hPa 0,0 mm 3,0 km/h (1 Bft) S 184 ° 0 min 0,000 mm 0,0 UV-I 0 W/m² -0,2 °C 5,9 °C 4,8 km/h (1 Bft)
28.01.2018 21:36 5,9 °C 65 % 1035,1 hPa 0,0 mm 1,8 km/h (1 Bft) S 184 ° 0 min 0,000 mm 0,0 UV-I 0 W/m² -0,2 °C 5,9 °C 3,2 km/h (1 Bft)
28.01.2018 21:37 5,8 °C 65 % 1035,1 hPa 0,0 mm 2,7 km/h (1 Bft) S 184 ° 0 min 0,000 mm 0,0 UV-I 0 W/m² -0,3 °C 5,8 °C 4,8 km/h (1 Bft)
28.01.2018 21:38 5,8 °C 65 % 1035,1 hPa 0,0 mm 3,4 km/h (1 Bft) S 184 ° 0 min 0,000 mm 0,0 UV-I 0 W/m² -0,3 °C 5,8 °C 4,8 km/h (1 Bft)
28.01.2018 21:39 5,8 °C 65 % 1035,1 hPa 0,0 mm 2,5 km/h (1 Bft) S 184 ° 0 min 0,000 mm 0,0 UV-I 0 W/m² -0,3 °C 5,8 °C 4,8 km/h (1 Bft)
28.01.2018 21:40 5,8 °C 66 % 1035,1 hPa 0,0 mm 2,1 km/h (1 Bft) S-SW 198 ° 0 min 0,000 mm 0,0 UV-I 0 W/m² -0,0 °C 5,8 °C 4,8 km/h (1 Bft)
28.01.2018 21:41 5,8 °C 66 % 1035,1 hPa 0,0 mm 4,0 km/h (1 Bft) S-SW 198 ° 0 min 0,000 mm 0,0 UV-I 0 W/m² -0,0 °C 5,8 °C 4,8 km/h (1 Bft)
28.01.2018 21:42 5,7 °C 67 % 1035,1 hPa 0,0 mm 6,4 km/h (2 Bft) S-SW 202 ° 0 min 0,000 mm 0,0 UV-I 0 W/m² 0,1 °C 4,4 °C 9,7 km/h (2 Bft)
28.01.2018 21:43 5,7 °C 66 % 1035,1 hPa 0,0 mm 1,6 km/h (1 Bft) W-NW 292 ° 0 min 0,000 mm 0,0 UV-I 0 W/m² -0,1 °C 5,7 °C 3,2 km/h (1 Bft)
28.01.2018 21:44 5,7 °C 67 % 1035,2 hPa 0,0 mm 4,8 km/h (1 Bft) W-NW 292 ° 0 min 0,000 mm 0,0 UV-I 0 W/m² 0,1 °C 5,0 °C 6,4 km/h (2 Bft)
28.01.2018 21:45 5,6 °C 67 % 1035,2 hPa 0,0 mm 6,4 km/h (2 Bft) W 270 ° 0 min 0,000 mm 0,0 UV-I 0 W/m² -0,0 °C 4,3 °C 9,7 km/h (2 Bft)
28.01.2018 21:46 5,6 °C 68 % 1035,3 hPa 0,0 mm 3,2 km/h (1 Bft) W-SW 247 ° 0 min 0,000 mm 0,0 UV-I 0 W/m² 0,2 °C 5,6 °C 4,8 km/h (1 Bft)
28.01.2018 21:47 5,6 °C 68 % 1035,2 hPa 0,0 mm 3,2 km/h (1 Bft) W-SW 247 ° 0 min 0,000 mm 0,0 UV-I 0 W/m² 0,2 °C 5,6 °C 4,8 km/h (1 Bft)
28.01.2018 21:48 5,6 °C 68 % 1035,1 hPa 0,0 mm 3,2 km/h (1 Bft) SW 225 ° 0 min 0,000 mm 0,0 UV-I 0 W/m² 0,2 °C 5,6 °C 6,4 km/h (2 Bft)
28.01.2018 21:50 5,5 °C 68 % 1035,2 hPa 0,0 mm 3,1 km/h (1 Bft) SW 232 ° 0 min 0,000 mm 0,0 UV-I 0 W/m² 0,1 °C 5,5 °C 4,8 km/h (1 Bft)
28.01.2018 21:52 5,4 °C 68 % 1035,1 hPa 0,0 mm 2,6 km/h (1 Bft) W-SW 248 ° 0 min 0,000 mm 0,0 UV-I 0 W/m² -0,0 °C 5,4 °C 4,8 km/h (1 Bft)
28.01.2018 21:53 5,4 °C 69 % 1035,1 hPa 0,0 mm 3,2 km/h (1 Bft) SW 227 ° 0 min 0,000 mm 0,0 UV-I 0 W/m² 0,2 °C 5,4 °C 4,8 km/h (1 Bft)
28.01.2018 21:54 5,4 °C 68 % 1035,1 hPa 0,0 mm 4,7 km/h (1 Bft) SW 221 ° 0 min 0,000 mm 0,0 UV-I 0 W/m² -0,0 °C 4,7 °C 6,4 km/h (2 Bft)
28.01.2018 21:56 5,4 °C 68 % 1035,0 hPa 0,0 mm 3,1 km/h (1 Bft) W-SW 253 ° 0 min 0,000 mm 0,0 UV-I 0 W/m² -0,0 °C 5,4 °C 6,4 km/h (2 Bft)
28.01.2018 21:57 5,4 °C 67 % 1035,0 hPa 0,0 mm 3,6 km/h (1 Bft) SW 224 ° 0 min 0,000 mm 0,0 UV-I 0 W/m² -0,2 °C 5,4 °C 4,8 km/h (1 Bft)
28.01.2018 21:59 5,5 °C 67 % 1035,0 hPa 0,0 mm 1,9 km/h (1 Bft) SW 232 ° 0 min 0,000 mm 0,0 UV-I 0 W/m² -0,1 °C 5,5 °C 4,8 km/h (1 Bft)
28.01.2018 22:00 5,5 °C 67 % 1035,0 hPa 0,0 mm 0,7 km/h (0 Bft) SW 232 ° 0 min 0,000 mm 0,0 UV-I 0 W/m² -0,1 °C 5,5 °C 3,2 km/h (1 Bft)
28.01.2018 22:02 5,5 °C 68 % 1035,0 hPa 0,0 mm 2,9 km/h (1 Bft) SW 221 ° 0 min 0,026 mm 0,0 UV-I 0 W/m² 0,1 °C 5,5 °C 4,8 km/h (1 Bft)
28.01.2018 22:03 5,5 °C 67 % 1035,0 hPa 0,0 mm 4,8 km/h (1 Bft) S-SW 211 ° 0 min 0,000 mm 0,0 UV-I 0 W/m² -0,1 °C 4,7 °C 6,4 km/h (2 Bft)
28.01.2018 22:05 5,5 °C 68 % 1035,1 hPa 0,0 mm 1,8 km/h (1 Bft) S-SW 211 ° 0 min 0,000 mm 0,0 UV-I 0 W/m² 0,1 °C 5,5 °C 3,2 km/h (1 Bft)
28.01.2018 22:06 5,5 °C 68 % 1035,1 hPa 0,0 mm 2,0 km/h (1 Bft) S-SW 211 ° 0 min 0,000 mm 0,0 UV-I 0 W/m² 0,1 °C 5,5 °C 3,2 km/h (1 Bft)
28.01.2018 22:08 5,5 °C 68 % 1035,1 hPa 0,0 mm 1,7 km/h (1 Bft) S-SW 211 ° 0 min 0,000 mm 0,0 UV-I 0 W/m² 0,1 °C 5,5 °C 3,2 km/h (1 Bft)
28.01.2018 22:09 5,5 °C 68 % 1035,1 hPa 0,0 mm 0,3 km/h (0 Bft) S-SW 211 ° 0 min 0,000 mm 0,0 UV-I 0 W/m² 0,1 °C 5,5 °C 1,6 km/h (1 Bft)
28.01.2018 22:11 5,5 °C 69 % 1035,1 hPa 0,0 mm 1,4 km/h (1 Bft) S-SW 211 ° 0 min 0,000 mm 0,0 UV-I 0 W/m² 0,3 °C 5,5 °C 3,2 km/h (1 Bft)
28.01.2018 22:12 5,4 °C 69 % 1035,1 hPa 0,0 mm 0,0 km/h (0 Bft) S-SW 211 ° 0 min 0,000 mm 0,0 UV-I 0 W/m² 0,2 °C 5,4 °C 0,0 km/h (0 Bft)
28.01.2018 22:14 5,4 °C 69 % 1035,2 hPa 0,0 mm 0,0 km/h (0 Bft) S-SW 211 ° 0 min 0,000 mm 0,0 UV-I 0 W/m² 0,2 °C 5,4 °C 0,0 km/h (0 Bft)
28.01.2018 22:15 5,4 °C 70 % 1035,2 hPa 0,0 mm 0,0 km/h (0 Bft) S-SW 211 ° 0 min 0,000 mm 0,0 UV-I 0 W/m² 0,4 °C 5,4 °C 0,0 km/h (0 Bft)
28.01.2018 22:17 5,4 °C 70 % 1035,2 hPa 0,0 mm 0,0 km/h (0 Bft) S-SW 211 ° 0 min 0,000 mm 0,0 UV-I 0 W/m² 0,4 °C 5,4 °C 0,0 km/h (0 Bft)
28.01.2018 22:18 5,3 °C 69 % 1035,2 hPa 0,0 mm 0,0 km/h (0 Bft) S-SW 211 ° 0 min 0,000 mm 0,0 UV-I 0 W/m² 0,1 °C 5,3 °C 0,0 km/h (0 Bft)
28.01.2018 22:20 5,3 °C 70 % 1035,2 hPa 0,0 mm 0,0 km/h (0 Bft) S-SW 211 ° 0 min 0,000 mm 0,0 UV-I 0 W/m² 0,3 °C 5,3 °C 0,0 km/h (0 Bft)
28.01.2018 22:21 5,2 °C 70 % 1035,2 hPa 0,0 mm 0,0 km/h (0 Bft) S-SW 211 ° 0 min 0,000 mm 0,0 UV-I 0 W/m² 0,2 °C 5,2 °C 0,0 km/h (0 Bft)
28.01.2018 22:23 5,2 °C 70 % 1035,2 hPa 0,0 mm 0,0 km/h (0 Bft) S-SW 211 ° 0 min 0,000 mm 0,0 UV-I 0 W/m² 0,2 °C 5,2 °C 0,0 km/h (0 Bft)
28.01.2018 22:24 5,2 °C 70 % 1035,2 hPa 0,0 mm 0,0 km/h (0 Bft) S-SW 211 ° 0 min 0,000 mm 0,0 UV-I 0 W/m² 0,2 °C 5,2 °C 0,0 km/h (0 Bft)
28.01.2018 22:26 4,9 °C 71 % 1035,0 hPa 0,0 mm 0,0 km/h (0 Bft) S-SW 211 ° 0 min 0,000 mm 0,0 UV-I 0 W/m² 0,1 °C 4,9 °C 0,0 km/h (0 Bft)
28.01.2018 22:27 4,9 °C 71 % 1035,0 hPa 0,0 mm 0,0 km/h (0 Bft) S-SW 211 ° 0 min 0,000 mm 0,0 UV-I 0 W/m² 0,1 °C 4,9 °C 0,0 km/h (0 Bft)
28.01.2018 22:29 4,9 °C 71 % 1035,0 hPa 0,0 mm 0,0 km/h (0 Bft) S-SW 211 ° 0 min 0,000 mm 0,0 UV-I 0 W/m² 0,1 °C 4,9 °C 0,0 km/h (0 Bft)
28.01.2018 22:30 4,8 °C 72 % 1035,0 hPa 0,0 mm 0,0 km/h (0 Bft) S-SW 211 ° 0 min 0,000 mm 0,0 UV-I 0 W/m² 0,2 °C 4,8 °C 0,0 km/h (0 Bft)
28.01.2018 22:32 4,7 °C 72 % 1035,0 hPa 0,0 mm 0,0 km/h (0 Bft) S-SW 211 ° 0 min 0,000 mm 0,0 UV-I 0 W/m² 0,1 °C 4,7 °C 0,0 km/h (0 Bft)
28.01.2018 22:33 4,7 °C 72 % 1035,0 hPa 0,0 mm 0,0 km/h (0 Bft) S-SW 211 ° 0 min 0,000 mm 0,0 UV-I 0 W/m² 0,1 °C 4,7 °C 0,0 km/h (0 Bft)
28.01.2018 22:35 4,6 °C 72 % 1035,0 hPa 0,0 mm 0,0 km/h (0 Bft) S-SW 211 ° 0 min 0,000 mm 0,0 UV-I 0 W/m² -0,0 °C 4,6 °C 0,0 km/h (0 Bft)
28.01.2018 22:36 4,5 °C 72 % 1035,0 hPa 0,0 mm 0,0 km/h (0 Bft) S-SW 211 ° 0 min 0,000 mm 0,0 UV-I 0 W/m² -0,1 °C 4,5 °C 0,0 km/h (0 Bft)
28.01.2018 22:38 4,4 °C 73 % 1035,0 hPa 0,0 mm 0,0 km/h (0 Bft) S-SW 211 ° 0 min 0,000 mm 0,0 UV-I 0 W/m² -0,0 °C 4,4 °C 0,0 km/h (0 Bft)
28.01.2018 22:39 4,4 °C 73 % 1035,0 hPa 0,0 mm 0,0 km/h (0 Bft) S-SW 211 ° 0 min 0,000 mm 0,0 UV-I 0 W/m² -0,0 °C 4,4 °C 0,0 km/h (0 Bft)
28.01.2018 22:41 4,3 °C 73 % 1035,0 hPa 0,0 mm 0,0 km/h (0 Bft) S-SW 211 ° 0 min 0,000 mm 0,0 UV-I 0 W/m² -0,1 °C 4,3 °C 0,0 km/h (0 Bft)
28.01.2018 22:42 4,3 °C 73 % 1035,0 hPa 0,0 mm 0,0 km/h (0 Bft) S-SW 211 ° 0 min 0,000 mm 0,0 UV-I 0 W/m² -0,1 °C 4,3 °C 0,0 km/h (0 Bft)
28.01.2018 22:44 4,2 °C 73 % 1035,0 hPa 0,0 mm 0,0 km/h (0 Bft) S-SW 211 ° 0 min 0,000 mm 0,0 UV-I 0 W/m² -0,2 °C 4,2 °C 0,0 km/h (0 Bft)
28.01.2018 22:45 4,2 °C 73 % 1035,0 hPa 0,0 mm 0,0 km/h (0 Bft) S-SW 211 ° 0 min 0,000 mm 0,0 UV-I 0 W/m² -0,2 °C 4,2 °C 0,0 km/h (0 Bft)
28.01.2018 22:47 4,1 °C 73 % 1035,0 hPa 0,0 mm 0,0 km/h (0 Bft) S-SW 211 ° 0 min 0,000 mm 0,0 UV-I 0 W/m² -0,3 °C 4,1 °C 0,0 km/h (0 Bft)
28.01.2018 22:48 4,1 °C 73 % 1035,0 hPa 0,0 mm 0,0 km/h (0 Bft) S-SW 211 ° 0 min 0,000 mm 0,0 UV-I 0 W/m² -0,3 °C 4,1 °C 0,0 km/h (0 Bft)
28.01.2018 22:50 4,0 °C 74 % 1035,0 hPa 0,0 mm 0,0 km/h (0 Bft) S-SW 211 ° 0 min 0,000 mm 0,0 UV-I 0 W/m² -0,2 °C 4,0 °C 0,0 km/h (0 Bft)
28.01.2018 22:51 3,9 °C 74 % 1035,0 hPa 0,0 mm 0,0 km/h (0 Bft) S-SW 211 ° 0 min 0,000 mm 0,0 UV-I 0 W/m² -0,3 °C 3,9 °C 0,0 km/h (0 Bft)
28.01.2018 22:53 3,8 °C 74 % 1034,9 hPa 0,0 mm 0,0 km/h (0 Bft) S-SW 211 ° 0 min 0,000 mm 0,0 UV-I 0 W/m² -0,4 °C 3,8 °C 0,0 km/h (0 Bft)
28.01.2018 22:54 3,7 °C 74 % 1034,9 hPa 0,0 mm 0,0 km/h (0 Bft) S-SW 211 ° 0 min 0,000 mm 0,0 UV-I 0 W/m² -0,5 °C 3,7 °C 0,0 km/h (0 Bft)
28.01.2018 22:56 3,6 °C 75 % 1035,0 hPa 0,0 mm 0,0 km/h (0 Bft) S-SW 211 ° 0 min 0,000 mm 0,0 UV-I 0 W/m² -0,4 °C 3,6 °C 0,0 km/h (0 Bft)
28.01.2018 22:57 3,6 °C 75 % 1035,0 hPa 0,0 mm 0,0 km/h (0 Bft) S-SW 211 ° 0 min 0,000 mm 0,0 UV-I 0 W/m² -0,4 °C 3,6 °C 0,0 km/h (0 Bft)
28.01.2018 22:59 3,5 °C 76 % 1034,9 hPa 0,0 mm 0,6 km/h (0 Bft) S-SW 211 ° 0 min 0,000 mm 0,0 UV-I 0 W/m² -0,3 °C 3,5 °C 3,2 km/h (1 Bft)
28.01.2018 23:00 3,5 °C 76 % 1034,9 hPa 0,0 mm 0,0 km/h (0 Bft) S-SW 211 ° 0 min 0,000 mm 0,0 UV-I 0 W/m² -0,3 °C 3,5 °C 0,0 km/h (0 Bft)
28.01.2018 23:02 3,3 °C 76 % 1034,9 hPa 0,0 mm 2,8 km/h (1 Bft) W-SW 240 ° 0 min 0,025 mm 0,0 UV-I 0 W/m² -0,5 °C 3,3 °C 6,4 km/h (2 Bft)
28.01.2018 23:03 3,3 °C 77 % 1034,9 hPa 0,0 mm 0,8 km/h (0 Bft) W-SW 240 ° 0 min 0,000 mm 0,0 UV-I 0 W/m² -0,3 °C 3,3 °C 1,6 km/h (1 Bft)
28.01.2018 23:05 3,3 °C 77 % 1034,9 hPa 0,0 mm 1,4 km/h (1 Bft) NW 307 ° 0 min 0,000 mm 0,0 UV-I 0 W/m² -0,3 °C 3,3 °C 4,8 km/h (1 Bft)
28.01.2018 23:06 3,3 °C 77 % 1034,9 hPa 0,0 mm 2,3 km/h (1 Bft) NW 326 ° 0 min 0,000 mm 0,0 UV-I 0 W/m² -0,3 °C 3,3 °C 6,4 km/h (2 Bft)
28.01.2018 23:08 3,3 °C 77 % 1034,9 hPa 0,0 mm 0,3 km/h (0 Bft) NW 326 ° 0 min 0,000 mm 0,0 UV-I 0 W/m² -0,3 °C 3,3 °C 1,6 km/h (1 Bft)
28.01.2018 23:09 3,3 °C 77 % 1034,9 hPa 0,0 mm 0,0 km/h (0 Bft) NW 326 ° 0 min 0,000 mm 0,0 UV-I 0 W/m² -0,3 °C 3,3 °C 0,0 km/h (0 Bft)
28.01.2018 23:11 3,2 °C 77 % 1034,8 hPa 0,0 mm 0,2 km/h (0 Bft) W 273 ° 0 min 0,000 mm 0,0 UV-I 0 W/m² -0,4 °C 3,2 °C 1,6 km/h (1 Bft)
28.01.2018 23:12 3,2 °C 77 % 1034,8 hPa 0,0 mm 0,0 km/h (0 Bft) W 273 ° 0 min 0,000 mm 0,0 UV-I 0 W/m² -0,4 °C 3,2 °C 0,0 km/h (0 Bft)
28.01.2018 23:14 3,1 °C 78 % 1034,9 hPa 0,0 mm 0,8 km/h (0 Bft) W 273 ° 0 min 0,000 mm 0,0 UV-I 0 W/m² -0,4 °C 3,1 °C 3,2 km/h (1 Bft)
28.01.2018 23:15 3,1 °C 78 % 1034,9 hPa 0,0 mm 0,0 km/h (0 Bft) W 273 ° 0 min 0,000 mm 0,0 UV-I 0 W/m² -0,4 °C 3,1 °C 0,0 km/h (0 Bft)
28.01.2018 23:17 3,0 °C 78 % 1034,8 hPa 0,0 mm 0,0 km/h (0 Bft) W 273 ° 0 min 0,000 mm 0,0 UV-I 0 W/m² -0,5 °C 3,0 °C 0,0 km/h (0 Bft)
28.01.2018 23:18 3,0 °C 78 % 1034,8 hPa 0,0 mm 0,1 km/h (0 Bft) S-SW 210 ° 0 min 0,000 mm 0,0 UV-I 0 W/m² -0,5 °C 3,0 °C 1,6 km/h (1 Bft)
28.01.2018 23:20 3,0 °C 79 % 1034,7 hPa 0,0 mm 3,7 km/h (1 Bft) W-NW 290 ° 0 min 0,000 mm 0,0 UV-I 0 W/m² -0,3 °C 3,0 °C 11,3 km/h (2 Bft)
28.01.2018 23:21 3,0 °C 78 % 1034,7 hPa 0,0 mm 1,4 km/h (1 Bft) S-SW 202 ° 0 min 0,000 mm 0,0 UV-I 0 W/m² -0,5 °C 3,0 °C 4,8 km/h (1 Bft)
28.01.2018 23:23 3,1 °C 79 % 1034,7 hPa 0,0 mm 2,1 km/h (1 Bft) S 188 ° 0 min 0,000 mm 0,0 UV-I 0 W/m² -0,2 °C 3,1 °C 6,4 km/h (2 Bft)
28.01.2018 23:24 3,2 °C 78 % 1034,7 hPa 0,0 mm 3,4 km/h (1 Bft) S 188 ° 0 min 0,000 mm 0,0 UV-I 0 W/m² -0,3 °C 3,2 °C 6,4 km/h (2 Bft)
28.01.2018 23:26 3,3 °C 78 % 1034,7 hPa 0,0 mm 3,1 km/h (1 Bft) S 171 ° 0 min 0,000 mm 0,0 UV-I 0 W/m² -0,2 °C 3,3 °C 9,7 km/h (2 Bft)
28.01.2018 23:27 3,4 °C 78 % 1034,7 hPa 0,0 mm 0,1 km/h (0 Bft) S 171 ° 0 min 0,000 mm 0,0 UV-I 0 W/m² -0,1 °C 3,4 °C 1,6 km/h (1 Bft)
28.01.2018 23:29 3,6 °C 77 % 1034,7 hPa 0,0 mm 2,6 km/h (1 Bft) S-SW 209 ° 0 min 0,000 mm 0,0 UV-I 0 W/m² -0,0 °C 3,6 °C 9,7 km/h (2 Bft)
28.01.2018 23:30 3,6 °C 77 % 1034,7 hPa 0,0 mm 4,1 km/h (1 Bft) S 186 ° 0 min 0,000 mm 0,0 UV-I 0 W/m² -0,0 °C 3,6 °C 6,4 km/h (2 Bft)
28.01.2018 23:32 3,6 °C 77 % 1034,6 hPa 0,0 mm 1,5 km/h (1 Bft) S 187 ° 0 min 0,000 mm 0,0 UV-I 0 W/m² -0,0 °C 3,6 °C 4,8 km/h (1 Bft)
28.01.2018 23:33 3,6 °C 77 % 1034,6 hPa 0,0 mm 0,5 km/h (0 Bft) S 187 ° 0 min 0,000 mm 0,0 UV-I 0 W/m² -0,0 °C 3,6 °C 1,6 km/h (1 Bft)
28.01.2018 23:35 3,6 °C 77 % 1034,6 hPa 0,0 mm 1,9 km/h (1 Bft) W 273 ° 0 min 0,000 mm 0,0 UV-I 0 W/m² -0,0 °C 3,6 °C 4,8 km/h (1 Bft)
28.01.2018 23:36 3,6 °C 77 % 1034,6 hPa 0,0 mm 0,0 km/h (0 Bft) W 273 ° 0 min 0,000 mm 0,0 UV-I 0 W/m² -0,0 °C 3,6 °C 0,0 km/h (0 Bft)
28.01.2018 23:38 3,6 °C 77 % 1034,6 hPa 0,0 mm 0,0 km/h (0 Bft) W 273 ° 0 min 0,000 mm 0,0 UV-I 0 W/m² -0,0 °C 3,6 °C 0,0 km/h (0 Bft)
28.01.2018 23:39 3,6 °C 77 % 1034,6 hPa 0,0 mm 0,0 km/h (0 Bft) W 273 ° 0 min 0,000 mm 0,0 UV-I 0 W/m² -0,0 °C 3,6 °C 0,0 km/h (0 Bft)
28.01.2018 23:41 3,5 °C 77 % 1034,5 hPa 0,0 mm 1,9 km/h (1 Bft) S-SW 201 ° 0 min 0,000 mm 0,0 UV-I 0 W/m² -0,1 °C 3,5 °C 4,8 km/h (1 Bft)
28.01.2018 23:42 3,5 °C 77 % 1034,5 hPa 0,0 mm 0,2 km/h (0 Bft) S-SW 201 ° 0 min 0,000 mm 0,0 UV-I 0 W/m² -0,1 °C 3,5 °C 1,6 km/h (1 Bft)
28.01.2018 23:44 3,4 °C 77 % 1034,5 hPa 0,0 mm 1,0 km/h (0 Bft) S 191 ° 0 min 0,000 mm 0,0 UV-I 0 W/m² -0,2 °C 3,4 °C 4,8 km/h (1 Bft)
28.01.2018 23:45 3,4 °C 77 % 1034,5 hPa 0,0 mm 0,5 km/h (0 Bft) S 191 ° 0 min 0,000 mm 0,0 UV-I 0 W/m² -0,2 °C 3,4 °C 3,2 km/h (1 Bft)
28.01.2018 23:47 3,4 °C 78 % 1034,5 hPa 0,0 mm 2,0 km/h (1 Bft) S 191 ° 0 min 0,000 mm 0,0 UV-I 0 W/m² -0,1 °C 3,4 °C 4,8 km/h (1 Bft)
28.01.2018 23:48 3,4 °C 78 % 1034,5 hPa 0,0 mm 2,4 km/h (1 Bft) S 191 ° 0 min 0,000 mm 0,0 UV-I 0 W/m² -0,1 °C 3,4 °C 3,2 km/h (1 Bft)
28.01.2018 23:50 3,4 °C 78 % 1034,4 hPa 0,0 mm 3,0 km/h (1 Bft) S 191 ° 0 min 0,000 mm 0,0 UV-I 0 W/m² -0,1 °C 3,4 °C 6,4 km/h (2 Bft)
28.01.2018 23:51 3,4 °C 78 % 1034,4 hPa 0,0 mm 1,2 km/h (1 Bft) S 191 ° 0 min 0,000 mm 0,0 UV-I 0 W/m² -0,1 °C 3,4 °C 3,2 km/h (1 Bft)
28.01.2018 23:53 3,4 °C 78 % 1034,5 hPa 0,0 mm 0,1 km/h (0 Bft) S 191 ° 0 min 0,000 mm 0,0 UV-I 0 W/m² -0,1 °C 3,4 °C 1,6 km/h (1 Bft)
28.01.2018 23:54 3,3 °C 78 % 1034,5 hPa 0,0 mm 0,5 km/h (0 Bft) S-SW 192 ° 0 min 0,000 mm 0,0 UV-I 0 W/m² -0,2 °C 3,3 °C 1,6 km/h (1 Bft)
28.01.2018 23:56 3,4 °C 78 % 1034,5 hPa 0,0 mm 2,5 km/h (1 Bft) S 174 ° 0 min 0,000 mm 0,0 UV-I 0 W/m² -0,1 °C 3,4 °C 4,8 km/h (1 Bft)
28.01.2018 23:57 3,3 °C 79 % 1034,5 hPa 0,0 mm 2,7 km/h (1 Bft) S 174 ° 0 min 0,000 mm 0,0 UV-I 0 W/m² 0,0 °C 3,3 °C 4,8 km/h (1 Bft)
28.01.2018 23:59 3,4 °C 79 % 1034,5 hPa 0,0 mm 2,1 km/h (1 Bft) S 174 ° 0 min 0,000 mm 0,0 UV-I 0 W/m² 0,1 °C 3,4 °C 3,2 km/h (1 Bft)
_ Min-Zeit 07:07 15:28 02:21 - 23:39 - - - - - - 06:38 07:30 23:39
Minimum _ 0,7 °C 58 % 1034,0 hPa - 0,0 km/h (0 Bft) - - - - - - -0,8 °C -1,7 °C 0,0 km/h (0 Bft)
_ Max-Zeit 13:35 07:30 20:01 23:59 13:58 - - 15:17 14:01 13:23 15:17 13:52 14:45 13:02
Maximum _ 9,0 °C 91 % 1035,9 hPa 0,0 mm 17,2 km/h
W (3 Bft)
- - 1 min 0,127 mm 1,6 UV-I 294 W/m² 2,3 °C 8,6 °C 27,4 km/h
W (4 Bft)
Durchschnitt _ 4,9 °C 76 % 1035,0 hPa #0,0 mm 4,7 km/h (1 Bft) W - #1 min. #0,889 mm 1,1 UV-I 47 W/m² 0,8 °C 4,2 °C 7,6 km/h (2 Bft)